<?xml version="1.0" encoding="UTF-8" standalone="no" ?>
<gpx xmlns="http://www.topografix.com/GPX/1/1" xmlns:xsi="http://www.w3.org/2001/XMLSchema-instance" xsi:schemaLocation="http://www.topografix.com/GPX/1/1 http://www.topografix.com/GPX/1/1/gpx.xsd" version="1.1" creator="VisuGPX - https://www.visugpx.com">
  <metadata>
    <name>GR52 / GR5 par Menton</name>
    <desc><![CDATA[Randonnée de 7 jours par le GR5 de Menton en direction du Nord en traversant notamment le parc du Mercantour.Enorme variété de paysages dès le départ et vues imprenables dès les premières heures, on est tout de suite dans le bain. Altitude max 2800 m mais encore pas mal de névés à cette période surtout à la descente vers le refuge de Nice. Comme d'habitude nous avons préféré les bivouacs "into the wild" et nous n'avons pas été déçus ! Terrain correct cependant les 2 premiers jours nécessitent de pouvoir enquiller beaucoup de D+.]]></desc>
  </metadata>
  <wpt lat="43.72679" lon="6.51125">
    <ele>955.9</ele>
    <name><![CDATA[xXSNAjco--.1.3gp]]></name>
  </wpt>
  <wpt lat="43.72679" lon="6.51125">
    <ele>955.9</ele>
    <name><![CDATA[xXSNAjco--.1.3gp]]></name>
  </wpt>
  <trk>
    <name><![CDATA[GR52 / GR5 par Menton_6]]></name>
    <trkseg>
      <trkpt lat="44.12442" lon="7.24096">
        <ele>2199.96</ele>
        <time>2020-06-29T05:11:25Z</time>
      </trkpt>
      <trkpt lat="44.12447" lon="7.24097">
        <ele>2200.282</ele>
        <time>2020-06-29T05:11:41Z</time>
      </trkpt>
      <trkpt lat="44.12447" lon="7.24097">
        <ele>2200.282</ele>
        <time>2020-06-29T05:11:57Z</time>
      </trkpt>
      <trkpt lat="44.12447" lon="7.24095">
        <ele>2200.291</ele>
        <time>2020-06-29T05:12:12Z</time>
      </trkpt>
      <trkpt lat="44.12448" lon="7.24081">
        <ele>2198.97</ele>
        <time>2020-06-29T05:12:27Z</time>
      </trkpt>
      <trkpt lat="44.12447" lon="7.24079">
        <ele>2198.87</ele>
        <time>2020-06-29T05:12:43Z</time>
      </trkpt>
      <trkpt lat="44.12448" lon="7.24074">
        <ele>2198.96</ele>
        <time>2020-06-29T05:12:59Z</time>
      </trkpt>
      <trkpt lat="44.12446" lon="7.24074">
        <ele>2196.917</ele>
        <time>2020-06-29T05:13:14Z</time>
      </trkpt>
      <trkpt lat="44.12443" lon="7.24063">
        <ele>2193.915</ele>
        <time>2020-06-29T05:13:30Z</time>
      </trkpt>
      <trkpt lat="44.12445" lon="7.24053">
        <ele>2193.545</ele>
        <time>2020-06-29T05:13:46Z</time>
      </trkpt>
      <trkpt lat="44.1244" lon="7.24037">
        <ele>2195.651</ele>
        <time>2020-06-29T05:14:02Z</time>
      </trkpt>
      <trkpt lat="44.12437" lon="7.24021">
        <ele>2197.085</ele>
        <time>2020-06-29T05:14:17Z</time>
      </trkpt>
      <trkpt lat="44.12437" lon="7.24001">
        <ele>2199.441</ele>
        <time>2020-06-29T05:14:33Z</time>
      </trkpt>
      <trkpt lat="44.12445" lon="7.23982">
        <ele>2198.096</ele>
        <time>2020-06-29T05:14:48Z</time>
      </trkpt>
      <trkpt lat="44.12445" lon="7.23969">
        <ele>2197.459</ele>
        <time>2020-06-29T05:15:04Z</time>
      </trkpt>
      <trkpt lat="44.12447" lon="7.2396">
        <ele>2198.225</ele>
        <time>2020-06-29T05:15:20Z</time>
      </trkpt>
      <trkpt lat="44.12454" lon="7.23945">
        <ele>2198.559</ele>
        <time>2020-06-29T05:15:36Z</time>
      </trkpt>
      <trkpt lat="44.12459" lon="7.23933">
        <ele>2199.314</ele>
        <time>2020-06-29T05:15:52Z</time>
      </trkpt>
      <trkpt lat="44.12463" lon="7.23922">
        <ele>2199.772</ele>
        <time>2020-06-29T05:16:08Z</time>
      </trkpt>
      <trkpt lat="44.12475" lon="7.23925">
        <ele>2200.154</ele>
        <time>2020-06-29T05:16:24Z</time>
      </trkpt>
      <trkpt lat="44.12485" lon="7.2392">
        <ele>2201.65</ele>
        <time>2020-06-29T05:16:40Z</time>
      </trkpt>
      <trkpt lat="44.12492" lon="7.23914">
        <ele>2201.342</ele>
        <time>2020-06-29T05:16:55Z</time>
      </trkpt>
      <trkpt lat="44.12506" lon="7.23904">
        <ele>2205.444</ele>
        <time>2020-06-29T05:17:10Z</time>
      </trkpt>
      <trkpt lat="44.12514" lon="7.23891">
        <ele>2206.985</ele>
        <time>2020-06-29T05:17:26Z</time>
      </trkpt>
      <trkpt lat="44.1252" lon="7.2388">
        <ele>2206.809</ele>
        <time>2020-06-29T05:17:42Z</time>
      </trkpt>
      <trkpt lat="44.12527" lon="7.23886">
        <ele>2206.415</ele>
        <time>2020-06-29T05:17:58Z</time>
      </trkpt>
      <trkpt lat="44.12527" lon="7.23886">
        <ele>2205.718</ele>
        <time>2020-06-29T05:18:13Z</time>
      </trkpt>
      <trkpt lat="44.12538" lon="7.23889">
        <ele>2200.695</ele>
        <time>2020-06-29T05:18:29Z</time>
      </trkpt>
      <trkpt lat="44.12537" lon="7.23862">
        <ele>2199.206</ele>
        <time>2020-06-29T05:18:44Z</time>
      </trkpt>
      <trkpt lat="44.12526" lon="7.2385">
        <ele>2194.791</ele>
        <time>2020-06-29T05:19:00Z</time>
      </trkpt>
      <trkpt lat="44.12531" lon="7.2383">
        <ele>2196.449</ele>
        <time>2020-06-29T05:19:16Z</time>
      </trkpt>
      <trkpt lat="44.12531" lon="7.23821">
        <ele>2194.797</ele>
        <time>2020-06-29T05:19:32Z</time>
      </trkpt>
      <trkpt lat="44.12538" lon="7.23804">
        <ele>2192.039</ele>
        <time>2020-06-29T05:19:47Z</time>
      </trkpt>
      <trkpt lat="44.12545" lon="7.23797">
        <ele>2191.117</ele>
        <time>2020-06-29T05:20:03Z</time>
      </trkpt>
      <trkpt lat="44.12555" lon="7.23799">
        <ele>2192.238</ele>
        <time>2020-06-29T05:20:18Z</time>
      </trkpt>
      <trkpt lat="44.12572" lon="7.23808">
        <ele>2199.811</ele>
        <time>2020-06-29T05:20:34Z</time>
      </trkpt>
      <trkpt lat="44.12577" lon="7.23814">
        <ele>2200.523</ele>
        <time>2020-06-29T05:20:50Z</time>
      </trkpt>
      <trkpt lat="44.12576" lon="7.23816">
        <ele>2200.006</ele>
        <time>2020-06-29T05:21:06Z</time>
      </trkpt>
      <trkpt lat="44.12566" lon="7.23818">
        <ele>2196.972</ele>
        <time>2020-06-29T05:21:22Z</time>
      </trkpt>
      <trkpt lat="44.12566" lon="7.23818">
        <ele>2196.972</ele>
        <time>2020-06-29T05:21:38Z</time>
      </trkpt>
      <trkpt lat="44.12566" lon="7.23818">
        <ele>2196.972</ele>
        <time>2020-06-29T05:21:53Z</time>
      </trkpt>
      <trkpt lat="44.12572" lon="7.23815">
        <ele>2194.968</ele>
        <time>2020-06-29T05:22:08Z</time>
      </trkpt>
      <trkpt lat="44.12572" lon="7.23815">
        <ele>2194.968</ele>
        <time>2020-06-29T05:22:23Z</time>
      </trkpt>
      <trkpt lat="44.12572" lon="7.23815">
        <ele>2194.968</ele>
        <time>2020-06-29T05:22:38Z</time>
      </trkpt>
      <trkpt lat="44.12573" lon="7.23818">
        <ele>2195.642</ele>
        <time>2020-06-29T05:22:53Z</time>
      </trkpt>
      <trkpt lat="44.12578" lon="7.23834">
        <ele>2196.125</ele>
        <time>2020-06-29T05:23:09Z</time>
      </trkpt>
      <trkpt lat="44.12587" lon="7.23835">
        <ele>2196.483</ele>
        <time>2020-06-29T05:23:24Z</time>
      </trkpt>
      <trkpt lat="44.12586" lon="7.23838">
        <ele>2194.707</ele>
        <time>2020-06-29T05:23:40Z</time>
      </trkpt>
      <trkpt lat="44.12589" lon="7.23844">
        <ele>2195.637</ele>
        <time>2020-06-29T05:23:56Z</time>
      </trkpt>
      <trkpt lat="44.12592" lon="7.2384">
        <ele>2195.813</ele>
        <time>2020-06-29T05:24:12Z</time>
      </trkpt>
      <trkpt lat="44.12604" lon="7.23836">
        <ele>2196.869</ele>
        <time>2020-06-29T05:24:27Z</time>
      </trkpt>
      <trkpt lat="44.12605" lon="7.23834">
        <ele>2196.797</ele>
        <time>2020-06-29T05:24:43Z</time>
      </trkpt>
      <trkpt lat="44.12604" lon="7.23835">
        <ele>2198.202</ele>
        <time>2020-06-29T05:24:59Z</time>
      </trkpt>
      <trkpt lat="44.12604" lon="7.23835">
        <ele>2198.202</ele>
        <time>2020-06-29T05:25:14Z</time>
      </trkpt>
      <trkpt lat="44.12604" lon="7.23835">
        <ele>2198.202</ele>
        <time>2020-06-29T05:25:30Z</time>
      </trkpt>
      <trkpt lat="44.12597" lon="7.23843">
        <ele>2195.988</ele>
        <time>2020-06-29T05:25:45Z</time>
      </trkpt>
      <trkpt lat="44.12593" lon="7.23847">
        <ele>2197.377</ele>
        <time>2020-06-29T05:26:00Z</time>
      </trkpt>
      <trkpt lat="44.12584" lon="7.23842">
        <ele>2196.154</ele>
        <time>2020-06-29T05:26:16Z</time>
      </trkpt>
      <trkpt lat="44.12572" lon="7.23842">
        <ele>2195.094</ele>
        <time>2020-06-29T05:26:31Z</time>
      </trkpt>
      <trkpt lat="44.12567" lon="7.23824">
        <ele>2194.057</ele>
        <time>2020-06-29T05:26:47Z</time>
      </trkpt>
      <trkpt lat="44.12557" lon="7.23813">
        <ele>2197.336</ele>
        <time>2020-06-29T05:27:03Z</time>
      </trkpt>
      <trkpt lat="44.12552" lon="7.23806">
        <ele>2196.208</ele>
        <time>2020-06-29T05:27:19Z</time>
      </trkpt>
      <trkpt lat="44.12541" lon="7.23805">
        <ele>2192.385</ele>
        <time>2020-06-29T05:27:34Z</time>
      </trkpt>
      <trkpt lat="44.12535" lon="7.23816">
        <ele>2187.126</ele>
        <time>2020-06-29T05:27:50Z</time>
      </trkpt>
      <trkpt lat="44.12536" lon="7.23818">
        <ele>2186.449</ele>
        <time>2020-06-29T05:28:05Z</time>
      </trkpt>
      <trkpt lat="44.12536" lon="7.23818">
        <ele>2186.449</ele>
        <time>2020-06-29T05:28:20Z</time>
      </trkpt>
      <trkpt lat="44.12536" lon="7.23818">
        <ele>2186.449</ele>
        <time>2020-06-29T05:28:36Z</time>
      </trkpt>
      <trkpt lat="44.12535" lon="7.23816">
        <ele>2187.298</ele>
        <time>2020-06-29T05:28:51Z</time>
      </trkpt>
      <trkpt lat="44.12535" lon="7.23816">
        <ele>2187.298</ele>
        <time>2020-06-29T05:29:07Z</time>
      </trkpt>
      <trkpt lat="44.12535" lon="7.23814">
        <ele>2189.48</ele>
        <time>2020-06-29T05:29:23Z</time>
      </trkpt>
      <trkpt lat="44.12534" lon="7.23814">
        <ele>2189.535</ele>
        <time>2020-06-29T05:29:38Z</time>
      </trkpt>
      <trkpt lat="44.12532" lon="7.23814">
        <ele>2189.765</ele>
        <time>2020-06-29T05:29:54Z</time>
      </trkpt>
      <trkpt lat="44.12533" lon="7.23813">
        <ele>2189.843</ele>
        <time>2020-06-29T05:30:10Z</time>
      </trkpt>
      <trkpt lat="44.12535" lon="7.23802">
        <ele>2190.085</ele>
        <time>2020-06-29T05:30:26Z</time>
      </trkpt>
      <trkpt lat="44.12541" lon="7.23791">
        <ele>2193.418</ele>
        <time>2020-06-29T05:30:42Z</time>
      </trkpt>
      <trkpt lat="44.12544" lon="7.23783">
        <ele>2193.926</ele>
        <time>2020-06-29T05:30:58Z</time>
      </trkpt>
      <trkpt lat="44.12541" lon="7.23767">
        <ele>2195.215</ele>
        <time>2020-06-29T05:31:14Z</time>
      </trkpt>
      <trkpt lat="44.12543" lon="7.23758">
        <ele>2197.414</ele>
        <time>2020-06-29T05:31:30Z</time>
      </trkpt>
      <trkpt lat="44.12545" lon="7.23752">
        <ele>2200.508</ele>
        <time>2020-06-29T05:31:46Z</time>
      </trkpt>
      <trkpt lat="44.12544" lon="7.23736">
        <ele>2203.959</ele>
        <time>2020-06-29T05:32:02Z</time>
      </trkpt>
      <trkpt lat="44.12541" lon="7.23722">
        <ele>2205.375</ele>
        <time>2020-06-29T05:32:18Z</time>
      </trkpt>
      <trkpt lat="44.12534" lon="7.23712">
        <ele>2206.63</ele>
        <time>2020-06-29T05:32:33Z</time>
      </trkpt>
      <trkpt lat="44.12534" lon="7.237">
        <ele>2208.493</ele>
        <time>2020-06-29T05:32:49Z</time>
      </trkpt>
      <trkpt lat="44.12538" lon="7.23698">
        <ele>2207.552</ele>
        <time>2020-06-29T05:33:05Z</time>
      </trkpt>
      <trkpt lat="44.12551" lon="7.23693">
        <ele>2204.606</ele>
        <time>2020-06-29T05:33:21Z</time>
      </trkpt>
      <trkpt lat="44.12556" lon="7.2369">
        <ele>2201.937</ele>
        <time>2020-06-29T05:33:37Z</time>
      </trkpt>
      <trkpt lat="44.12556" lon="7.2369">
        <ele>2201.937</ele>
        <time>2020-06-29T05:33:53Z</time>
      </trkpt>
      <trkpt lat="44.12553" lon="7.23682">
        <ele>2201.944</ele>
        <time>2020-06-29T05:34:09Z</time>
      </trkpt>
      <trkpt lat="44.12545" lon="7.23672">
        <ele>2199.333</ele>
        <time>2020-06-29T05:34:24Z</time>
      </trkpt>
      <trkpt lat="44.12538" lon="7.23666">
        <ele>2202.513</ele>
        <time>2020-06-29T05:34:40Z</time>
      </trkpt>
      <trkpt lat="44.12535" lon="7.23659">
        <ele>2208.262</ele>
        <time>2020-06-29T05:34:56Z</time>
      </trkpt>
      <trkpt lat="44.12532" lon="7.23653">
        <ele>2209.863</ele>
        <time>2020-06-29T05:35:12Z</time>
      </trkpt>
      <trkpt lat="44.12519" lon="7.23646">
        <ele>2208.772</ele>
        <time>2020-06-29T05:35:27Z</time>
      </trkpt>
      <trkpt lat="44.12519" lon="7.23646">
        <ele>2208.772</ele>
        <time>2020-06-29T05:35:43Z</time>
      </trkpt>
      <trkpt lat="44.1252" lon="7.23647">
        <ele>2210.886</ele>
        <time>2020-06-29T05:35:58Z</time>
      </trkpt>
      <trkpt lat="44.1252" lon="7.23647">
        <ele>2210.886</ele>
        <time>2020-06-29T05:36:14Z</time>
      </trkpt>
      <trkpt lat="44.12525" lon="7.2364">
        <ele>2211.083</ele>
        <time>2020-06-29T05:36:30Z</time>
      </trkpt>
      <trkpt lat="44.12531" lon="7.23635">
        <ele>2212.36</ele>
        <time>2020-06-29T05:36:45Z</time>
      </trkpt>
      <trkpt lat="44.12533" lon="7.23633">
        <ele>2212.944</ele>
        <time>2020-06-29T05:37:00Z</time>
      </trkpt>
      <trkpt lat="44.12549" lon="7.2363">
        <ele>2217.445</ele>
        <time>2020-06-29T05:37:16Z</time>
      </trkpt>
      <trkpt lat="44.12556" lon="7.2363">
        <ele>2220.577</ele>
        <time>2020-06-29T05:37:32Z</time>
      </trkpt>
      <trkpt lat="44.12559" lon="7.23628">
        <ele>2223.875</ele>
        <time>2020-06-29T05:37:48Z</time>
      </trkpt>
      <trkpt lat="44.1256" lon="7.23623">
        <ele>2224.601</ele>
        <time>2020-06-29T05:38:03Z</time>
      </trkpt>
      <trkpt lat="44.12554" lon="7.23618">
        <ele>2224.679</ele>
        <time>2020-06-29T05:38:18Z</time>
      </trkpt>
      <trkpt lat="44.1255" lon="7.23616">
        <ele>2228.488</ele>
        <time>2020-06-29T05:38:34Z</time>
      </trkpt>
      <trkpt lat="44.1255" lon="7.23616">
        <ele>2228.488</ele>
        <time>2020-06-29T05:38:50Z</time>
      </trkpt>
      <trkpt lat="44.12547" lon="7.23614">
        <ele>2227.5</ele>
        <time>2020-06-29T05:39:05Z</time>
      </trkpt>
      <trkpt lat="44.12536" lon="7.23601">
        <ele>2235.882</ele>
        <time>2020-06-29T05:39:21Z</time>
      </trkpt>
      <trkpt lat="44.12533" lon="7.23599">
        <ele>2240.934</ele>
        <time>2020-06-29T05:39:37Z</time>
      </trkpt>
      <trkpt lat="44.12532" lon="7.23594">
        <ele>2241.576</ele>
        <time>2020-06-29T05:39:53Z</time>
      </trkpt>
      <trkpt lat="44.12529" lon="7.2359">
        <ele>2243.706</ele>
        <time>2020-06-29T05:40:08Z</time>
      </trkpt>
      <trkpt lat="44.12541" lon="7.23583">
        <ele>2248.151</ele>
        <time>2020-06-29T05:40:24Z</time>
      </trkpt>
      <trkpt lat="44.12538" lon="7.23573">
        <ele>2253.615</ele>
        <time>2020-06-29T05:40:40Z</time>
      </trkpt>
      <trkpt lat="44.12536" lon="7.23569">
        <ele>2256.163</ele>
        <time>2020-06-29T05:40:56Z</time>
      </trkpt>
      <trkpt lat="44.12537" lon="7.23571">
        <ele>2256.858</ele>
        <time>2020-06-29T05:41:11Z</time>
      </trkpt>
      <trkpt lat="44.12537" lon="7.23571">
        <ele>2256.858</ele>
        <time>2020-06-29T05:41:27Z</time>
      </trkpt>
      <trkpt lat="44.12537" lon="7.23571">
        <ele>2256.858</ele>
        <time>2020-06-29T05:41:43Z</time>
      </trkpt>
      <trkpt lat="44.12537" lon="7.23571">
        <ele>2256.858</ele>
        <time>2020-06-29T05:41:58Z</time>
      </trkpt>
      <trkpt lat="44.12537" lon="7.23571">
        <ele>2256.858</ele>
        <time>2020-06-29T05:42:14Z</time>
      </trkpt>
      <trkpt lat="44.12537" lon="7.23571">
        <ele>2256.858</ele>
        <time>2020-06-29T05:42:30Z</time>
      </trkpt>
      <trkpt lat="44.12537" lon="7.23571">
        <ele>2256.858</ele>
        <time>2020-06-29T05:42:45Z</time>
      </trkpt>
      <trkpt lat="44.12537" lon="7.23571">
        <ele>2256.858</ele>
        <time>2020-06-29T05:43:00Z</time>
      </trkpt>
      <trkpt lat="44.12537" lon="7.23571">
        <ele>2256.858</ele>
        <time>2020-06-29T05:43:15Z</time>
      </trkpt>
      <trkpt lat="44.12537" lon="7.23571">
        <ele>2256.858</ele>
        <time>2020-06-29T05:43:31Z</time>
      </trkpt>
      <trkpt lat="44.12535" lon="7.23572">
        <ele>2257.973</ele>
        <time>2020-06-29T05:43:47Z</time>
      </trkpt>
      <trkpt lat="44.12534" lon="7.2357">
        <ele>2259.221</ele>
        <time>2020-06-29T05:44:03Z</time>
      </trkpt>
      <trkpt lat="44.12534" lon="7.2357">
        <ele>2259.221</ele>
        <time>2020-06-29T05:44:19Z</time>
      </trkpt>
      <trkpt lat="44.12534" lon="7.2357">
        <ele>2259.221</ele>
        <time>2020-06-29T05:44:34Z</time>
      </trkpt>
      <trkpt lat="44.12533" lon="7.23561">
        <ele>2258.974</ele>
        <time>2020-06-29T05:44:50Z</time>
      </trkpt>
      <trkpt lat="44.1253" lon="7.23537">
        <ele>2259.768</ele>
        <time>2020-06-29T05:45:05Z</time>
      </trkpt>
      <trkpt lat="44.12531" lon="7.23521">
        <ele>2261.387</ele>
        <time>2020-06-29T05:45:21Z</time>
      </trkpt>
      <trkpt lat="44.12531" lon="7.23517">
        <ele>2262.395</ele>
        <time>2020-06-29T05:45:37Z</time>
      </trkpt>
      <trkpt lat="44.12539" lon="7.23498">
        <ele>2262.723</ele>
        <time>2020-06-29T05:45:52Z</time>
      </trkpt>
      <trkpt lat="44.12539" lon="7.23491">
        <ele>2264.023</ele>
        <time>2020-06-29T05:46:07Z</time>
      </trkpt>
      <trkpt lat="44.12538" lon="7.23485">
        <ele>2264.86</ele>
        <time>2020-06-29T05:46:22Z</time>
      </trkpt>
      <trkpt lat="44.12536" lon="7.23473">
        <ele>2268.209</ele>
        <time>2020-06-29T05:46:38Z</time>
      </trkpt>
      <trkpt lat="44.12538" lon="7.23465">
        <ele>2268.875</ele>
        <time>2020-06-29T05:46:53Z</time>
      </trkpt>
      <trkpt lat="44.12536" lon="7.2345">
        <ele>2270.387</ele>
        <time>2020-06-29T05:47:09Z</time>
      </trkpt>
      <trkpt lat="44.12531" lon="7.23433">
        <ele>2272.073</ele>
        <time>2020-06-29T05:47:24Z</time>
      </trkpt>
      <trkpt lat="44.12531" lon="7.23433">
        <ele>2272.073</ele>
        <time>2020-06-29T05:47:40Z</time>
      </trkpt>
      <trkpt lat="44.12523" lon="7.23415">
        <ele>2276.297</ele>
        <time>2020-06-29T05:47:55Z</time>
      </trkpt>
      <trkpt lat="44.12518" lon="7.23396">
        <ele>2279.902</ele>
        <time>2020-06-29T05:48:10Z</time>
      </trkpt>
      <trkpt lat="44.12514" lon="7.23379">
        <ele>2283.574</ele>
        <time>2020-06-29T05:48:26Z</time>
      </trkpt>
      <trkpt lat="44.12507" lon="7.23371">
        <ele>2286.279</ele>
        <time>2020-06-29T05:48:42Z</time>
      </trkpt>
      <trkpt lat="44.12502" lon="7.23365">
        <ele>2287.535</ele>
        <time>2020-06-29T05:48:57Z</time>
      </trkpt>
      <trkpt lat="44.12496" lon="7.23354">
        <ele>2287.726</ele>
        <time>2020-06-29T05:49:13Z</time>
      </trkpt>
      <trkpt lat="44.12489" lon="7.23342">
        <ele>2290.213</ele>
        <time>2020-06-29T05:49:29Z</time>
      </trkpt>
      <trkpt lat="44.12479" lon="7.23329">
        <ele>2292.766</ele>
        <time>2020-06-29T05:49:45Z</time>
      </trkpt>
      <trkpt lat="44.12473" lon="7.2332">
        <ele>2296.652</ele>
        <time>2020-06-29T05:50:00Z</time>
      </trkpt>
      <trkpt lat="44.12464" lon="7.23313">
        <ele>2296.687</ele>
        <time>2020-06-29T05:50:16Z</time>
      </trkpt>
      <trkpt lat="44.12457" lon="7.23308">
        <ele>2296.889</ele>
        <time>2020-06-29T05:50:31Z</time>
      </trkpt>
      <trkpt lat="44.12451" lon="7.23301">
        <ele>2295.549</ele>
        <time>2020-06-29T05:50:47Z</time>
      </trkpt>
      <trkpt lat="44.12449" lon="7.23295">
        <ele>2295.206</ele>
        <time>2020-06-29T05:51:02Z</time>
      </trkpt>
      <trkpt lat="44.12442" lon="7.23281">
        <ele>2297.055</ele>
        <time>2020-06-29T05:51:18Z</time>
      </trkpt>
      <trkpt lat="44.12437" lon="7.23281">
        <ele>2300.313</ele>
        <time>2020-06-29T05:51:34Z</time>
      </trkpt>
      <trkpt lat="44.12431" lon="7.23275">
        <ele>2304.828</ele>
        <time>2020-06-29T05:51:50Z</time>
      </trkpt>
      <trkpt lat="44.12423" lon="7.23267">
        <ele>2304.736</ele>
        <time>2020-06-29T05:52:06Z</time>
      </trkpt>
      <trkpt lat="44.12414" lon="7.23264">
        <ele>2304.482</ele>
        <time>2020-06-29T05:52:22Z</time>
      </trkpt>
      <trkpt lat="44.12408" lon="7.2326">
        <ele>2305.196</ele>
        <time>2020-06-29T05:52:38Z</time>
      </trkpt>
      <trkpt lat="44.12402" lon="7.23249">
        <ele>2304.898</ele>
        <time>2020-06-29T05:52:53Z</time>
      </trkpt>
      <trkpt lat="44.12399" lon="7.23247">
        <ele>2306.018</ele>
        <time>2020-06-29T05:53:09Z</time>
      </trkpt>
      <trkpt lat="44.12384" lon="7.23244">
        <ele>2307.002</ele>
        <time>2020-06-29T05:53:24Z</time>
      </trkpt>
      <trkpt lat="44.12379" lon="7.23241">
        <ele>2308.418</ele>
        <time>2020-06-29T05:53:40Z</time>
      </trkpt>
      <trkpt lat="44.12376" lon="7.23237">
        <ele>2309.003</ele>
        <time>2020-06-29T05:53:55Z</time>
      </trkpt>
      <trkpt lat="44.12374" lon="7.23236">
        <ele>2309.57</ele>
        <time>2020-06-29T05:54:11Z</time>
      </trkpt>
      <trkpt lat="44.12366" lon="7.23231">
        <ele>2308.863</ele>
        <time>2020-06-29T05:54:27Z</time>
      </trkpt>
      <trkpt lat="44.12366" lon="7.23231">
        <ele>2308.863</ele>
        <time>2020-06-29T05:54:43Z</time>
      </trkpt>
      <trkpt lat="44.12357" lon="7.23226">
        <ele>2314.75</ele>
        <time>2020-06-29T05:54:59Z</time>
      </trkpt>
      <trkpt lat="44.12351" lon="7.23225">
        <ele>2316.468</ele>
        <time>2020-06-29T05:55:14Z</time>
      </trkpt>
      <trkpt lat="44.12341" lon="7.23221">
        <ele>2318.125</ele>
        <time>2020-06-29T05:55:30Z</time>
      </trkpt>
      <trkpt lat="44.12337" lon="7.23219">
        <ele>2320.074</ele>
        <time>2020-06-29T05:55:46Z</time>
      </trkpt>
      <trkpt lat="44.12334" lon="7.23219">
        <ele>2323.953</ele>
        <time>2020-06-29T05:56:01Z</time>
      </trkpt>
      <trkpt lat="44.12332" lon="7.23219">
        <ele>2325.92</ele>
        <time>2020-06-29T05:56:17Z</time>
      </trkpt>
      <trkpt lat="44.12323" lon="7.2321">
        <ele>2326.666</ele>
        <time>2020-06-29T05:56:33Z</time>
      </trkpt>
      <trkpt lat="44.12318" lon="7.23206">
        <ele>2327.856</ele>
        <time>2020-06-29T05:56:48Z</time>
      </trkpt>
      <trkpt lat="44.12318" lon="7.23206">
        <ele>2327.856</ele>
        <time>2020-06-29T05:57:04Z</time>
      </trkpt>
      <trkpt lat="44.12318" lon="7.23206">
        <ele>2327.856</ele>
        <time>2020-06-29T05:57:20Z</time>
      </trkpt>
      <trkpt lat="44.1231" lon="7.23201">
        <ele>2333.211</ele>
        <time>2020-06-29T05:57:35Z</time>
      </trkpt>
      <trkpt lat="44.12302" lon="7.23186">
        <ele>2342.597</ele>
        <time>2020-06-29T05:57:51Z</time>
      </trkpt>
      <trkpt lat="44.12297" lon="7.23172">
        <ele>2348.641</ele>
        <time>2020-06-29T05:58:07Z</time>
      </trkpt>
      <trkpt lat="44.12292" lon="7.23156">
        <ele>2347.955</ele>
        <time>2020-06-29T05:58:22Z</time>
      </trkpt>
      <trkpt lat="44.12288" lon="7.23149">
        <ele>2348.683</ele>
        <time>2020-06-29T05:58:38Z</time>
      </trkpt>
      <trkpt lat="44.12284" lon="7.23138">
        <ele>2351.953</ele>
        <time>2020-06-29T05:58:54Z</time>
      </trkpt>
      <trkpt lat="44.12274" lon="7.23129">
        <ele>2356.621</ele>
        <time>2020-06-29T05:59:09Z</time>
      </trkpt>
      <trkpt lat="44.12267" lon="7.23126">
        <ele>2356.556</ele>
        <time>2020-06-29T05:59:25Z</time>
      </trkpt>
      <trkpt lat="44.12256" lon="7.23122">
        <ele>2353.131</ele>
        <time>2020-06-29T05:59:41Z</time>
      </trkpt>
      <trkpt lat="44.12248" lon="7.2312">
        <ele>2353.869</ele>
        <time>2020-06-29T05:59:56Z</time>
      </trkpt>
      <trkpt lat="44.12243" lon="7.23117">
        <ele>2357.594</ele>
        <time>2020-06-29T06:00:12Z</time>
      </trkpt>
      <trkpt lat="44.12243" lon="7.23108">
        <ele>2359.43</ele>
        <time>2020-06-29T06:00:28Z</time>
      </trkpt>
      <trkpt lat="44.12237" lon="7.23099">
        <ele>2359.736</ele>
        <time>2020-06-29T06:00:43Z</time>
      </trkpt>
      <trkpt lat="44.12237" lon="7.2309">
        <ele>2361.679</ele>
        <time>2020-06-29T06:00:59Z</time>
      </trkpt>
      <trkpt lat="44.12237" lon="7.23087">
        <ele>2362.82</ele>
        <time>2020-06-29T06:01:14Z</time>
      </trkpt>
      <trkpt lat="44.12234" lon="7.2308">
        <ele>2363.845</ele>
        <time>2020-06-29T06:01:29Z</time>
      </trkpt>
      <trkpt lat="44.12233" lon="7.23079">
        <ele>2364.235</ele>
        <time>2020-06-29T06:01:45Z</time>
      </trkpt>
      <trkpt lat="44.12225" lon="7.23058">
        <ele>2367.508</ele>
        <time>2020-06-29T06:02:00Z</time>
      </trkpt>
      <trkpt lat="44.12216" lon="7.23048">
        <ele>2375.313</ele>
        <time>2020-06-29T06:02:16Z</time>
      </trkpt>
      <trkpt lat="44.12208" lon="7.23036">
        <ele>2378.147</ele>
        <time>2020-06-29T06:02:32Z</time>
      </trkpt>
      <trkpt lat="44.12201" lon="7.23032">
        <ele>2380.452</ele>
        <time>2020-06-29T06:02:48Z</time>
      </trkpt>
      <trkpt lat="44.12194" lon="7.23028">
        <ele>2387.103</ele>
        <time>2020-06-29T06:03:03Z</time>
      </trkpt>
      <trkpt lat="44.12186" lon="7.2302">
        <ele>2390.126</ele>
        <time>2020-06-29T06:03:19Z</time>
      </trkpt>
      <trkpt lat="44.12179" lon="7.23006">
        <ele>2390.058</ele>
        <time>2020-06-29T06:03:34Z</time>
      </trkpt>
      <trkpt lat="44.12176" lon="7.23005">
        <ele>2394.394</ele>
        <time>2020-06-29T06:03:49Z</time>
      </trkpt>
      <trkpt lat="44.12173" lon="7.23005">
        <ele>2402.986</ele>
        <time>2020-06-29T06:04:05Z</time>
      </trkpt>
      <trkpt lat="44.12171" lon="7.23005">
        <ele>2406.118</ele>
        <time>2020-06-29T06:04:20Z</time>
      </trkpt>
      <trkpt lat="44.12171" lon="7.23005">
        <ele>2406.118</ele>
        <time>2020-06-29T06:04:36Z</time>
      </trkpt>
      <trkpt lat="44.12172" lon="7.23006">
        <ele>2405.723</ele>
        <time>2020-06-29T06:04:52Z</time>
      </trkpt>
      <trkpt lat="44.12172" lon="7.23006">
        <ele>2405.545</ele>
        <time>2020-06-29T06:05:08Z</time>
      </trkpt>
      <trkpt lat="44.12172" lon="7.23006">
        <ele>2405.196</ele>
        <time>2020-06-29T06:05:24Z</time>
      </trkpt>
      <trkpt lat="44.12171" lon="7.23007">
        <ele>2405.667</ele>
        <time>2020-06-29T06:05:40Z</time>
      </trkpt>
      <trkpt lat="44.12171" lon="7.23007">
        <ele>2405.051</ele>
        <time>2020-06-29T06:05:56Z</time>
      </trkpt>
      <trkpt lat="44.12171" lon="7.23006">
        <ele>2405.389</ele>
        <time>2020-06-29T06:06:12Z</time>
      </trkpt>
      <trkpt lat="44.12171" lon="7.23006">
        <ele>2405.389</ele>
        <time>2020-06-29T06:06:27Z</time>
      </trkpt>
      <trkpt lat="44.12171" lon="7.23006">
        <ele>2405.389</ele>
        <time>2020-06-29T06:06:43Z</time>
      </trkpt>
      <trkpt lat="44.12171" lon="7.23006">
        <ele>2405.389</ele>
        <time>2020-06-29T06:06:58Z</time>
      </trkpt>
      <trkpt lat="44.12171" lon="7.23006">
        <ele>2405.389</ele>
        <time>2020-06-29T06:07:14Z</time>
      </trkpt>
      <trkpt lat="44.12171" lon="7.23006">
        <ele>2405.389</ele>
        <time>2020-06-29T06:07:30Z</time>
      </trkpt>
      <trkpt lat="44.12171" lon="7.23006">
        <ele>2405.389</ele>
        <time>2020-06-29T06:07:46Z</time>
      </trkpt>
      <trkpt lat="44.12171" lon="7.23006">
        <ele>2405.389</ele>
        <time>2020-06-29T06:08:01Z</time>
      </trkpt>
      <trkpt lat="44.12171" lon="7.23006">
        <ele>2405.389</ele>
        <time>2020-06-29T06:08:16Z</time>
      </trkpt>
      <trkpt lat="44.12171" lon="7.23006">
        <ele>2405.683</ele>
        <time>2020-06-29T06:08:32Z</time>
      </trkpt>
      <trkpt lat="44.12171" lon="7.23006">
        <ele>2405.683</ele>
        <time>2020-06-29T06:08:48Z</time>
      </trkpt>
      <trkpt lat="44.12171" lon="7.23006">
        <ele>2405.683</ele>
        <time>2020-06-29T06:09:03Z</time>
      </trkpt>
      <trkpt lat="44.12171" lon="7.23006">
        <ele>2405.683</ele>
        <time>2020-06-29T06:09:19Z</time>
      </trkpt>
      <trkpt lat="44.12171" lon="7.23006">
        <ele>2405.683</ele>
        <time>2020-06-29T06:09:35Z</time>
      </trkpt>
      <trkpt lat="44.12171" lon="7.23006">
        <ele>2405.683</ele>
        <time>2020-06-29T06:09:50Z</time>
      </trkpt>
      <trkpt lat="44.12171" lon="7.23006">
        <ele>2405.683</ele>
        <time>2020-06-29T06:10:06Z</time>
      </trkpt>
      <trkpt lat="44.12171" lon="7.23006">
        <ele>2405.683</ele>
        <time>2020-06-29T06:10:21Z</time>
      </trkpt>
      <trkpt lat="44.12171" lon="7.23006">
        <ele>2405.683</ele>
        <time>2020-06-29T06:10:37Z</time>
      </trkpt>
      <trkpt lat="44.12171" lon="7.23006">
        <ele>2405.683</ele>
        <time>2020-06-29T06:10:53Z</time>
      </trkpt>
      <trkpt lat="44.12171" lon="7.23006">
        <ele>2405.683</ele>
        <time>2020-06-29T06:11:08Z</time>
      </trkpt>
      <trkpt lat="44.12171" lon="7.23006">
        <ele>2405.683</ele>
        <time>2020-06-29T06:11:24Z</time>
      </trkpt>
      <trkpt lat="44.12171" lon="7.23006">
        <ele>2405.683</ele>
        <time>2020-06-29T06:11:40Z</time>
      </trkpt>
      <trkpt lat="44.12171" lon="7.23006">
        <ele>2405.683</ele>
        <time>2020-06-29T06:11:56Z</time>
      </trkpt>
      <trkpt lat="44.12171" lon="7.23006">
        <ele>2405.683</ele>
        <time>2020-06-29T06:12:12Z</time>
      </trkpt>
      <trkpt lat="44.12171" lon="7.23006">
        <ele>2405.683</ele>
        <time>2020-06-29T06:12:27Z</time>
      </trkpt>
      <trkpt lat="44.12171" lon="7.23007">
        <ele>2405.678</ele>
        <time>2020-06-29T06:12:42Z</time>
      </trkpt>
      <trkpt lat="44.12171" lon="7.23007">
        <ele>2405.678</ele>
        <time>2020-06-29T06:12:58Z</time>
      </trkpt>
      <trkpt lat="44.12171" lon="7.23007">
        <ele>2405.678</ele>
        <time>2020-06-29T06:13:14Z</time>
      </trkpt>
      <trkpt lat="44.12171" lon="7.23005">
        <ele>2404.578</ele>
        <time>2020-06-29T06:13:29Z</time>
      </trkpt>
      <trkpt lat="44.1217" lon="7.23007">
        <ele>2404.763</ele>
        <time>2020-06-29T06:13:44Z</time>
      </trkpt>
      <trkpt lat="44.12171" lon="7.23007">
        <ele>2405.044</ele>
        <time>2020-06-29T06:14:00Z</time>
      </trkpt>
      <trkpt lat="44.12171" lon="7.23007">
        <ele>2405.044</ele>
        <time>2020-06-29T06:14:15Z</time>
      </trkpt>
      <trkpt lat="44.12171" lon="7.23007">
        <ele>2405.044</ele>
        <time>2020-06-29T06:14:31Z</time>
      </trkpt>
      <trkpt lat="44.12168" lon="7.23008">
        <ele>2404.963</ele>
        <time>2020-06-29T06:14:47Z</time>
      </trkpt>
      <trkpt lat="44.12168" lon="7.23008">
        <ele>2404.963</ele>
        <time>2020-06-29T06:15:03Z</time>
      </trkpt>
      <trkpt lat="44.12168" lon="7.23008">
        <ele>2404.963</ele>
        <time>2020-06-29T06:15:19Z</time>
      </trkpt>
      <trkpt lat="44.12168" lon="7.23008">
        <ele>2404.963</ele>
        <time>2020-06-29T06:15:35Z</time>
      </trkpt>
      <trkpt lat="44.1217" lon="7.23008">
        <ele>2404.659</ele>
        <time>2020-06-29T06:15:50Z</time>
      </trkpt>
      <trkpt lat="44.12167" lon="7.23006">
        <ele>2406.085</ele>
        <time>2020-06-29T06:16:05Z</time>
      </trkpt>
      <trkpt lat="44.12166" lon="7.23002">
        <ele>2409.022</ele>
        <time>2020-06-29T06:16:21Z</time>
      </trkpt>
      <trkpt lat="44.12163" lon="7.22988">
        <ele>2406.829</ele>
        <time>2020-06-29T06:16:37Z</time>
      </trkpt>
      <trkpt lat="44.12157" lon="7.22977">
        <ele>2411.016</ele>
        <time>2020-06-29T06:16:53Z</time>
      </trkpt>
      <trkpt lat="44.12156" lon="7.22977">
        <ele>2410.656</ele>
        <time>2020-06-29T06:17:08Z</time>
      </trkpt>
      <trkpt lat="44.12147" lon="7.22964">
        <ele>2410.358</ele>
        <time>2020-06-29T06:17:24Z</time>
      </trkpt>
      <trkpt lat="44.12144" lon="7.22961">
        <ele>2410.682</ele>
        <time>2020-06-29T06:17:40Z</time>
      </trkpt>
      <trkpt lat="44.12144" lon="7.22963">
        <ele>2411.551</ele>
        <time>2020-06-29T06:17:55Z</time>
      </trkpt>
      <trkpt lat="44.12152" lon="7.22971">
        <ele>2410.321</ele>
        <time>2020-06-29T06:18:10Z</time>
      </trkpt>
      <trkpt lat="44.12162" lon="7.2299">
        <ele>2411.049</ele>
        <time>2020-06-29T06:18:25Z</time>
      </trkpt>
      <trkpt lat="44.1217" lon="7.22999">
        <ele>2410.39</ele>
        <time>2020-06-29T06:18:41Z</time>
      </trkpt>
      <trkpt lat="44.12168" lon="7.22985">
        <ele>2407.176</ele>
        <time>2020-06-29T06:18:57Z</time>
      </trkpt>
      <trkpt lat="44.12176" lon="7.22975">
        <ele>2407.187</ele>
        <time>2020-06-29T06:19:12Z</time>
      </trkpt>
      <trkpt lat="44.12187" lon="7.22961">
        <ele>2411.501</ele>
        <time>2020-06-29T06:19:28Z</time>
      </trkpt>
      <trkpt lat="44.12188" lon="7.22959">
        <ele>2411.967</ele>
        <time>2020-06-29T06:19:43Z</time>
      </trkpt>
      <trkpt lat="44.12188" lon="7.22959">
        <ele>2411.967</ele>
        <time>2020-06-29T06:19:58Z</time>
      </trkpt>
      <trkpt lat="44.12188" lon="7.22959">
        <ele>2411.967</ele>
        <time>2020-06-29T06:20:13Z</time>
      </trkpt>
      <trkpt lat="44.12188" lon="7.22959">
        <ele>2411.967</ele>
        <time>2020-06-29T06:20:29Z</time>
      </trkpt>
      <trkpt lat="44.1218" lon="7.22976">
        <ele>2411.554</ele>
        <time>2020-06-29T06:20:45Z</time>
      </trkpt>
      <trkpt lat="44.1217" lon="7.22986">
        <ele>2410.829</ele>
        <time>2020-06-29T06:21:01Z</time>
      </trkpt>
      <trkpt lat="44.1217" lon="7.22985">
        <ele>2411.645</ele>
        <time>2020-06-29T06:21:17Z</time>
      </trkpt>
      <trkpt lat="44.12168" lon="7.22975">
        <ele>2415.805</ele>
        <time>2020-06-29T06:21:33Z</time>
      </trkpt>
      <trkpt lat="44.12167" lon="7.22966">
        <ele>2416.152</ele>
        <time>2020-06-29T06:21:49Z</time>
      </trkpt>
      <trkpt lat="44.12161" lon="7.22961">
        <ele>2414.501</ele>
        <time>2020-06-29T06:22:05Z</time>
      </trkpt>
      <trkpt lat="44.12159" lon="7.22958">
        <ele>2416.518</ele>
        <time>2020-06-29T06:22:20Z</time>
      </trkpt>
      <trkpt lat="44.12158" lon="7.22957">
        <ele>2416.007</ele>
        <time>2020-06-29T06:22:35Z</time>
      </trkpt>
      <trkpt lat="44.12155" lon="7.2295">
        <ele>2415.868</ele>
        <time>2020-06-29T06:22:51Z</time>
      </trkpt>
      <trkpt lat="44.12155" lon="7.2295">
        <ele>2415.868</ele>
        <time>2020-06-29T06:23:06Z</time>
      </trkpt>
      <trkpt lat="44.12157" lon="7.22941">
        <ele>2418.742</ele>
        <time>2020-06-29T06:23:22Z</time>
      </trkpt>
      <trkpt lat="44.12152" lon="7.22933">
        <ele>2423.046</ele>
        <time>2020-06-29T06:23:37Z</time>
      </trkpt>
      <trkpt lat="44.12147" lon="7.22925">
        <ele>2424.917</ele>
        <time>2020-06-29T06:23:53Z</time>
      </trkpt>
      <trkpt lat="44.12138" lon="7.22916">
        <ele>2421.961</ele>
        <time>2020-06-29T06:24:08Z</time>
      </trkpt>
      <trkpt lat="44.12137" lon="7.22913">
        <ele>2421.809</ele>
        <time>2020-06-29T06:24:23Z</time>
      </trkpt>
      <trkpt lat="44.12131" lon="7.22901">
        <ele>2424.589</ele>
        <time>2020-06-29T06:24:39Z</time>
      </trkpt>
      <trkpt lat="44.12131" lon="7.22899">
        <ele>2429.223</ele>
        <time>2020-06-29T06:24:54Z</time>
      </trkpt>
      <trkpt lat="44.12131" lon="7.22896">
        <ele>2432.299</ele>
        <time>2020-06-29T06:25:10Z</time>
      </trkpt>
      <trkpt lat="44.12129" lon="7.22894">
        <ele>2433.526</ele>
        <time>2020-06-29T06:25:26Z</time>
      </trkpt>
      <trkpt lat="44.12126" lon="7.22879">
        <ele>2437.263</ele>
        <time>2020-06-29T06:25:42Z</time>
      </trkpt>
      <trkpt lat="44.12125" lon="7.22871">
        <ele>2444.584</ele>
        <time>2020-06-29T06:25:58Z</time>
      </trkpt>
      <trkpt lat="44.12124" lon="7.22871">
        <ele>2444.105</ele>
        <time>2020-06-29T06:26:14Z</time>
      </trkpt>
      <trkpt lat="44.12126" lon="7.22874">
        <ele>2443.925</ele>
        <time>2020-06-29T06:26:29Z</time>
      </trkpt>
      <trkpt lat="44.12128" lon="7.22867">
        <ele>2445.382</ele>
        <time>2020-06-29T06:26:44Z</time>
      </trkpt>
      <trkpt lat="44.12125" lon="7.22852">
        <ele>2445.975</ele>
        <time>2020-06-29T06:26:59Z</time>
      </trkpt>
      <trkpt lat="44.12119" lon="7.22849">
        <ele>2443.284</ele>
        <time>2020-06-29T06:27:15Z</time>
      </trkpt>
      <trkpt lat="44.1212" lon="7.22839">
        <ele>2447.524</ele>
        <time>2020-06-29T06:27:31Z</time>
      </trkpt>
      <trkpt lat="44.12117" lon="7.22831">
        <ele>2441.72</ele>
        <time>2020-06-29T06:27:46Z</time>
      </trkpt>
      <trkpt lat="44.12118" lon="7.22826">
        <ele>2439.911</ele>
        <time>2020-06-29T06:28:02Z</time>
      </trkpt>
      <trkpt lat="44.12122" lon="7.22823">
        <ele>2439.715</ele>
        <time>2020-06-29T06:28:17Z</time>
      </trkpt>
      <trkpt lat="44.12125" lon="7.22816">
        <ele>2439.902</ele>
        <time>2020-06-29T06:28:33Z</time>
      </trkpt>
      <trkpt lat="44.12125" lon="7.22816">
        <ele>2439.902</ele>
        <time>2020-06-29T06:28:48Z</time>
      </trkpt>
      <trkpt lat="44.12125" lon="7.22813">
        <ele>2440.559</ele>
        <time>2020-06-29T06:29:04Z</time>
      </trkpt>
      <trkpt lat="44.12123" lon="7.22803">
        <ele>2448.523</ele>
        <time>2020-06-29T06:29:19Z</time>
      </trkpt>
      <trkpt lat="44.12119" lon="7.2279">
        <ele>2453.655</ele>
        <time>2020-06-29T06:29:35Z</time>
      </trkpt>
      <trkpt lat="44.1212" lon="7.22784">
        <ele>2456.102</ele>
        <time>2020-06-29T06:29:51Z</time>
      </trkpt>
      <trkpt lat="44.1212" lon="7.22784">
        <ele>2456.102</ele>
        <time>2020-06-29T06:30:06Z</time>
      </trkpt>
      <trkpt lat="44.12119" lon="7.22784">
        <ele>2456.441</ele>
        <time>2020-06-29T06:30:21Z</time>
      </trkpt>
      <trkpt lat="44.12121" lon="7.22781">
        <ele>2461.867</ele>
        <time>2020-06-29T06:30:37Z</time>
      </trkpt>
      <trkpt lat="44.12114" lon="7.22774">
        <ele>2463.529</ele>
        <time>2020-06-29T06:30:53Z</time>
      </trkpt>
      <trkpt lat="44.12112" lon="7.2277">
        <ele>2466.043</ele>
        <time>2020-06-29T06:31:08Z</time>
      </trkpt>
      <trkpt lat="44.12115" lon="7.22761">
        <ele>2470.36</ele>
        <time>2020-06-29T06:31:24Z</time>
      </trkpt>
      <trkpt lat="44.12109" lon="7.22759">
        <ele>2469.358</ele>
        <time>2020-06-29T06:31:40Z</time>
      </trkpt>
      <trkpt lat="44.12108" lon="7.22756">
        <ele>2471.874</ele>
        <time>2020-06-29T06:31:55Z</time>
      </trkpt>
      <trkpt lat="44.1211" lon="7.22751">
        <ele>2476.554</ele>
        <time>2020-06-29T06:32:11Z</time>
      </trkpt>
      <trkpt lat="44.12109" lon="7.22745">
        <ele>2478.888</ele>
        <time>2020-06-29T06:32:27Z</time>
      </trkpt>
      <trkpt lat="44.1211" lon="7.2274">
        <ele>2483.249</ele>
        <time>2020-06-29T06:32:42Z</time>
      </trkpt>
      <trkpt lat="44.12111" lon="7.22738">
        <ele>2483.85</ele>
        <time>2020-06-29T06:32:58Z</time>
      </trkpt>
      <trkpt lat="44.12111" lon="7.22737">
        <ele>2484.419</ele>
        <time>2020-06-29T06:33:14Z</time>
      </trkpt>
      <trkpt lat="44.12111" lon="7.22735">
        <ele>2486.303</ele>
        <time>2020-06-29T06:33:29Z</time>
      </trkpt>
      <trkpt lat="44.12111" lon="7.22731">
        <ele>2487.956</ele>
        <time>2020-06-29T06:33:45Z</time>
      </trkpt>
      <trkpt lat="44.12111" lon="7.22731">
        <ele>2487.956</ele>
        <time>2020-06-29T06:34:00Z</time>
      </trkpt>
      <trkpt lat="44.12111" lon="7.22731">
        <ele>2487.956</ele>
        <time>2020-06-29T06:34:16Z</time>
      </trkpt>
      <trkpt lat="44.12109" lon="7.22731">
        <ele>2489.746</ele>
        <time>2020-06-29T06:34:32Z</time>
      </trkpt>
      <trkpt lat="44.12108" lon="7.22731">
        <ele>2492.117</ele>
        <time>2020-06-29T06:34:48Z</time>
      </trkpt>
      <trkpt lat="44.12105" lon="7.22728">
        <ele>2491.021</ele>
        <time>2020-06-29T06:35:04Z</time>
      </trkpt>
      <trkpt lat="44.12105" lon="7.22727">
        <ele>2489.948</ele>
        <time>2020-06-29T06:35:19Z</time>
      </trkpt>
      <trkpt lat="44.12103" lon="7.22722">
        <ele>2489.352</ele>
        <time>2020-06-29T06:35:35Z</time>
      </trkpt>
      <trkpt lat="44.121" lon="7.22716">
        <ele>2489.326</ele>
        <time>2020-06-29T06:35:51Z</time>
      </trkpt>
      <trkpt lat="44.12101" lon="7.22715">
        <ele>2490.362</ele>
        <time>2020-06-29T06:36:06Z</time>
      </trkpt>
      <trkpt lat="44.12101" lon="7.22715">
        <ele>2490.362</ele>
        <time>2020-06-29T06:36:22Z</time>
      </trkpt>
      <trkpt lat="44.12099" lon="7.22712">
        <ele>2492.045</ele>
        <time>2020-06-29T06:36:38Z</time>
      </trkpt>
      <trkpt lat="44.12099" lon="7.22712">
        <ele>2492.045</ele>
        <time>2020-06-29T06:36:53Z</time>
      </trkpt>
      <trkpt lat="44.12099" lon="7.22712">
        <ele>2492.045</ele>
        <time>2020-06-29T06:37:08Z</time>
      </trkpt>
      <trkpt lat="44.12099" lon="7.22711">
        <ele>2491.868</ele>
        <time>2020-06-29T06:37:24Z</time>
      </trkpt>
      <trkpt lat="44.12099" lon="7.22711">
        <ele>2491.868</ele>
        <time>2020-06-29T06:37:39Z</time>
      </trkpt>
      <trkpt lat="44.12104" lon="7.22709">
        <ele>2493.784</ele>
        <time>2020-06-29T06:37:55Z</time>
      </trkpt>
      <trkpt lat="44.12104" lon="7.22709">
        <ele>2493.784</ele>
        <time>2020-06-29T06:38:11Z</time>
      </trkpt>
      <trkpt lat="44.12104" lon="7.22709">
        <ele>2493.784</ele>
        <time>2020-06-29T06:38:26Z</time>
      </trkpt>
      <trkpt lat="44.12103" lon="7.22719">
        <ele>2492.023</ele>
        <time>2020-06-29T06:38:42Z</time>
      </trkpt>
      <trkpt lat="44.12103" lon="7.22718">
        <ele>2491.448</ele>
        <time>2020-06-29T06:38:58Z</time>
      </trkpt>
      <trkpt lat="44.12101" lon="7.22718">
        <ele>2491.306</ele>
        <time>2020-06-29T06:39:14Z</time>
      </trkpt>
      <trkpt lat="44.12101" lon="7.22718">
        <ele>2491.366</ele>
        <time>2020-06-29T06:39:29Z</time>
      </trkpt>
      <trkpt lat="44.12101" lon="7.22718">
        <ele>2491.366</ele>
        <time>2020-06-29T06:39:45Z</time>
      </trkpt>
      <trkpt lat="44.12098" lon="7.22718">
        <ele>2491.134</ele>
        <time>2020-06-29T06:40:01Z</time>
      </trkpt>
      <trkpt lat="44.12084" lon="7.22716">
        <ele>2494.864</ele>
        <time>2020-06-29T06:40:17Z</time>
      </trkpt>
      <trkpt lat="44.12081" lon="7.2271">
        <ele>2494.396</ele>
        <time>2020-06-29T06:40:32Z</time>
      </trkpt>
      <trkpt lat="44.12081" lon="7.22711">
        <ele>2494.737</ele>
        <time>2020-06-29T06:40:47Z</time>
      </trkpt>
      <trkpt lat="44.12083" lon="7.22709">
        <ele>2494.784</ele>
        <time>2020-06-29T06:41:02Z</time>
      </trkpt>
      <trkpt lat="44.12083" lon="7.22709">
        <ele>2494.784</ele>
        <time>2020-06-29T06:41:18Z</time>
      </trkpt>
      <trkpt lat="44.12082" lon="7.22702">
        <ele>2494.802</ele>
        <time>2020-06-29T06:41:33Z</time>
      </trkpt>
      <trkpt lat="44.12082" lon="7.22689">
        <ele>2495.543</ele>
        <time>2020-06-29T06:41:49Z</time>
      </trkpt>
      <trkpt lat="44.12085" lon="7.22679">
        <ele>2494.232</ele>
        <time>2020-06-29T06:42:05Z</time>
      </trkpt>
      <trkpt lat="44.12087" lon="7.22676">
        <ele>2491.614</ele>
        <time>2020-06-29T06:42:20Z</time>
      </trkpt>
      <trkpt lat="44.12092" lon="7.22661">
        <ele>2497.553</ele>
        <time>2020-06-29T06:42:36Z</time>
      </trkpt>
      <trkpt lat="44.12095" lon="7.22657">
        <ele>2496.34</ele>
        <time>2020-06-29T06:42:52Z</time>
      </trkpt>
      <trkpt lat="44.12101" lon="7.22652">
        <ele>2498.025</ele>
        <time>2020-06-29T06:43:07Z</time>
      </trkpt>
      <trkpt lat="44.12109" lon="7.22644">
        <ele>2497.779</ele>
        <time>2020-06-29T06:43:23Z</time>
      </trkpt>
      <trkpt lat="44.12116" lon="7.22639">
        <ele>2497.954</ele>
        <time>2020-06-29T06:43:39Z</time>
      </trkpt>
      <trkpt lat="44.12121" lon="7.22628">
        <ele>2497.881</ele>
        <time>2020-06-29T06:43:55Z</time>
      </trkpt>
      <trkpt lat="44.12124" lon="7.22623">
        <ele>2494.456</ele>
        <time>2020-06-29T06:44:11Z</time>
      </trkpt>
      <trkpt lat="44.1213" lon="7.2262">
        <ele>2494.514</ele>
        <time>2020-06-29T06:44:26Z</time>
      </trkpt>
      <trkpt lat="44.12135" lon="7.22609">
        <ele>2498.933</ele>
        <time>2020-06-29T06:44:42Z</time>
      </trkpt>
      <trkpt lat="44.12135" lon="7.22609">
        <ele>2498.933</ele>
        <time>2020-06-29T06:44:57Z</time>
      </trkpt>
      <trkpt lat="44.12148" lon="7.22594">
        <ele>2500.277</ele>
        <time>2020-06-29T06:45:13Z</time>
      </trkpt>
      <trkpt lat="44.12155" lon="7.22584">
        <ele>2505.603</ele>
        <time>2020-06-29T06:45:28Z</time>
      </trkpt>
      <trkpt lat="44.12161" lon="7.22571">
        <ele>2512.124</ele>
        <time>2020-06-29T06:45:43Z</time>
      </trkpt>
      <trkpt lat="44.12161" lon="7.22565">
        <ele>2511.423</ele>
        <time>2020-06-29T06:45:59Z</time>
      </trkpt>
      <trkpt lat="44.12166" lon="7.2255">
        <ele>2512.369</ele>
        <time>2020-06-29T06:46:15Z</time>
      </trkpt>
      <trkpt lat="44.12173" lon="7.22533">
        <ele>2516.675</ele>
        <time>2020-06-29T06:46:30Z</time>
      </trkpt>
      <trkpt lat="44.12179" lon="7.22522">
        <ele>2521.361</ele>
        <time>2020-06-29T06:46:45Z</time>
      </trkpt>
      <trkpt lat="44.12177" lon="7.22507">
        <ele>2521.866</ele>
        <time>2020-06-29T06:47:01Z</time>
      </trkpt>
      <trkpt lat="44.12184" lon="7.22495">
        <ele>2523.641</ele>
        <time>2020-06-29T06:47:16Z</time>
      </trkpt>
      <trkpt lat="44.12186" lon="7.2249">
        <ele>2525.406</ele>
        <time>2020-06-29T06:47:32Z</time>
      </trkpt>
      <trkpt lat="44.12189" lon="7.22486">
        <ele>2525.821</ele>
        <time>2020-06-29T06:47:48Z</time>
      </trkpt>
      <trkpt lat="44.12188" lon="7.22466">
        <ele>2524.426</ele>
        <time>2020-06-29T06:48:03Z</time>
      </trkpt>
      <trkpt lat="44.12191" lon="7.22456">
        <ele>2528.026</ele>
        <time>2020-06-29T06:48:19Z</time>
      </trkpt>
      <trkpt lat="44.12187" lon="7.22441">
        <ele>2526.946</ele>
        <time>2020-06-29T06:48:35Z</time>
      </trkpt>
      <trkpt lat="44.12187" lon="7.2243">
        <ele>2527.426</ele>
        <time>2020-06-29T06:48:51Z</time>
      </trkpt>
      <trkpt lat="44.12187" lon="7.2243">
        <ele>2527.569</ele>
        <time>2020-06-29T06:49:07Z</time>
      </trkpt>
      <trkpt lat="44.12187" lon="7.22427">
        <ele>2530.446</ele>
        <time>2020-06-29T06:49:22Z</time>
      </trkpt>
      <trkpt lat="44.12187" lon="7.22427">
        <ele>2530.446</ele>
        <time>2020-06-29T06:49:38Z</time>
      </trkpt>
      <trkpt lat="44.12186" lon="7.22426">
        <ele>2530.853</ele>
        <time>2020-06-29T06:49:53Z</time>
      </trkpt>
      <trkpt lat="44.12185" lon="7.22426">
        <ele>2531.156</ele>
        <time>2020-06-29T06:50:09Z</time>
      </trkpt>
      <trkpt lat="44.12185" lon="7.22426">
        <ele>2531.156</ele>
        <time>2020-06-29T06:50:24Z</time>
      </trkpt>
      <trkpt lat="44.12185" lon="7.22426">
        <ele>2531.156</ele>
        <time>2020-06-29T06:50:39Z</time>
      </trkpt>
      <trkpt lat="44.12185" lon="7.22426">
        <ele>2531.156</ele>
        <time>2020-06-29T06:50:54Z</time>
      </trkpt>
      <trkpt lat="44.12185" lon="7.22426">
        <ele>2531.156</ele>
        <time>2020-06-29T06:51:10Z</time>
      </trkpt>
      <trkpt lat="44.12184" lon="7.22424">
        <ele>2533.356</ele>
        <time>2020-06-29T06:51:25Z</time>
      </trkpt>
      <trkpt lat="44.12184" lon="7.22424">
        <ele>2533.356</ele>
        <time>2020-06-29T06:51:41Z</time>
      </trkpt>
      <trkpt lat="44.12177" lon="7.22428">
        <ele>2533.675</ele>
        <time>2020-06-29T06:51:56Z</time>
      </trkpt>
      <trkpt lat="44.12163" lon="7.22425">
        <ele>2529.913</ele>
        <time>2020-06-29T06:52:12Z</time>
      </trkpt>
      <trkpt lat="44.12156" lon="7.22419">
        <ele>2529.1</ele>
        <time>2020-06-29T06:52:27Z</time>
      </trkpt>
      <trkpt lat="44.12156" lon="7.22419">
        <ele>2529.1</ele>
        <time>2020-06-29T06:52:43Z</time>
      </trkpt>
      <trkpt lat="44.12151" lon="7.2241">
        <ele>2529.119</ele>
        <time>2020-06-29T06:52:58Z</time>
      </trkpt>
      <trkpt lat="44.12141" lon="7.22408">
        <ele>2529.969</ele>
        <time>2020-06-29T06:53:13Z</time>
      </trkpt>
      <trkpt lat="44.12136" lon="7.224">
        <ele>2531.633</ele>
        <time>2020-06-29T06:53:29Z</time>
      </trkpt>
      <trkpt lat="44.12134" lon="7.22398">
        <ele>2532.201</ele>
        <time>2020-06-29T06:53:45Z</time>
      </trkpt>
      <trkpt lat="44.12129" lon="7.22394">
        <ele>2533.749</ele>
        <time>2020-06-29T06:54:00Z</time>
      </trkpt>
      <trkpt lat="44.12127" lon="7.22391">
        <ele>2535.068</ele>
        <time>2020-06-29T06:54:16Z</time>
      </trkpt>
      <trkpt lat="44.12125" lon="7.22388">
        <ele>2535.198</ele>
        <time>2020-06-29T06:54:31Z</time>
      </trkpt>
      <trkpt lat="44.12125" lon="7.22384">
        <ele>2534.795</ele>
        <time>2020-06-29T06:54:46Z</time>
      </trkpt>
      <trkpt lat="44.12122" lon="7.22371">
        <ele>2537.835</ele>
        <time>2020-06-29T06:55:02Z</time>
      </trkpt>
      <trkpt lat="44.12122" lon="7.22371">
        <ele>2537.835</ele>
        <time>2020-06-29T06:55:18Z</time>
      </trkpt>
      <trkpt lat="44.12106" lon="7.22376">
        <ele>2545.211</ele>
        <time>2020-06-29T06:55:34Z</time>
      </trkpt>
      <trkpt lat="44.12099" lon="7.2238">
        <ele>2543.587</ele>
        <time>2020-06-29T06:55:49Z</time>
      </trkpt>
      <trkpt lat="44.12095" lon="7.22376">
        <ele>2544.021</ele>
        <time>2020-06-29T06:56:05Z</time>
      </trkpt>
      <trkpt lat="44.12095" lon="7.22376">
        <ele>2544.021</ele>
        <time>2020-06-29T06:56:21Z</time>
      </trkpt>
      <trkpt lat="44.12095" lon="7.22376">
        <ele>2544.021</ele>
        <time>2020-06-29T06:56:37Z</time>
      </trkpt>
      <trkpt lat="44.12095" lon="7.22376">
        <ele>2544.021</ele>
        <time>2020-06-29T06:56:52Z</time>
      </trkpt>
      <trkpt lat="44.12095" lon="7.22376">
        <ele>2544.021</ele>
        <time>2020-06-29T06:57:08Z</time>
      </trkpt>
      <trkpt lat="44.12095" lon="7.22376">
        <ele>2544.021</ele>
        <time>2020-06-29T06:57:24Z</time>
      </trkpt>
      <trkpt lat="44.12095" lon="7.22376">
        <ele>2544.021</ele>
        <time>2020-06-29T06:57:40Z</time>
      </trkpt>
      <trkpt lat="44.12095" lon="7.22376">
        <ele>2544.021</ele>
        <time>2020-06-29T06:57:56Z</time>
      </trkpt>
      <trkpt lat="44.12095" lon="7.22376">
        <ele>2544.021</ele>
        <time>2020-06-29T06:58:11Z</time>
      </trkpt>
      <trkpt lat="44.12095" lon="7.22376">
        <ele>2544.021</ele>
        <time>2020-06-29T06:58:27Z</time>
      </trkpt>
      <trkpt lat="44.12095" lon="7.22376">
        <ele>2544.021</ele>
        <time>2020-06-29T06:58:43Z</time>
      </trkpt>
      <trkpt lat="44.12093" lon="7.22375">
        <ele>2544.113</ele>
        <time>2020-06-29T06:58:59Z</time>
      </trkpt>
      <trkpt lat="44.12093" lon="7.22375">
        <ele>2544.113</ele>
        <time>2020-06-29T06:59:14Z</time>
      </trkpt>
      <trkpt lat="44.12093" lon="7.22375">
        <ele>2544.113</ele>
        <time>2020-06-29T06:59:30Z</time>
      </trkpt>
      <trkpt lat="44.12093" lon="7.22375">
        <ele>2544.113</ele>
        <time>2020-06-29T06:59:45Z</time>
      </trkpt>
      <trkpt lat="44.12093" lon="7.22375">
        <ele>2544.113</ele>
        <time>2020-06-29T07:00:01Z</time>
      </trkpt>
      <trkpt lat="44.12093" lon="7.22375">
        <ele>2544.113</ele>
        <time>2020-06-29T07:00:17Z</time>
      </trkpt>
      <trkpt lat="44.12093" lon="7.22375">
        <ele>2544.113</ele>
        <time>2020-06-29T07:00:32Z</time>
      </trkpt>
      <trkpt lat="44.12093" lon="7.22375">
        <ele>2544.113</ele>
        <time>2020-06-29T07:00:48Z</time>
      </trkpt>
      <trkpt lat="44.12092" lon="7.22373">
        <ele>2543.63</ele>
        <time>2020-06-29T07:01:04Z</time>
      </trkpt>
      <trkpt lat="44.12092" lon="7.22373">
        <ele>2543.63</ele>
        <time>2020-06-29T07:01:20Z</time>
      </trkpt>
      <trkpt lat="44.12092" lon="7.22373">
        <ele>2543.63</ele>
        <time>2020-06-29T07:01:35Z</time>
      </trkpt>
      <trkpt lat="44.12092" lon="7.22373">
        <ele>2543.63</ele>
        <time>2020-06-29T07:01:50Z</time>
      </trkpt>
      <trkpt lat="44.12092" lon="7.22373">
        <ele>2543.63</ele>
        <time>2020-06-29T07:02:06Z</time>
      </trkpt>
      <trkpt lat="44.12092" lon="7.22373">
        <ele>2543.63</ele>
        <time>2020-06-29T07:02:21Z</time>
      </trkpt>
      <trkpt lat="44.12092" lon="7.22373">
        <ele>2543.63</ele>
        <time>2020-06-29T07:02:37Z</time>
      </trkpt>
      <trkpt lat="44.12099" lon="7.22376">
        <ele>2546.94</ele>
        <time>2020-06-29T07:02:53Z</time>
      </trkpt>
      <trkpt lat="44.12102" lon="7.22373">
        <ele>2545.475</ele>
        <time>2020-06-29T07:03:08Z</time>
      </trkpt>
      <trkpt lat="44.12105" lon="7.22375">
        <ele>2545.98</ele>
        <time>2020-06-29T07:03:24Z</time>
      </trkpt>
      <trkpt lat="44.12106" lon="7.22376">
        <ele>2546.027</ele>
        <time>2020-06-29T07:03:39Z</time>
      </trkpt>
      <trkpt lat="44.12123" lon="7.22376">
        <ele>2545.643</ele>
        <time>2020-06-29T07:03:55Z</time>
      </trkpt>
      <trkpt lat="44.12123" lon="7.22376">
        <ele>2545.643</ele>
        <time>2020-06-29T07:04:10Z</time>
      </trkpt>
      <trkpt lat="44.12123" lon="7.22376">
        <ele>2545.643</ele>
        <time>2020-06-29T07:04:26Z</time>
      </trkpt>
      <trkpt lat="44.12122" lon="7.22385">
        <ele>2544.345</ele>
        <time>2020-06-29T07:04:42Z</time>
      </trkpt>
      <trkpt lat="44.1213" lon="7.2239">
        <ele>2540.839</ele>
        <time>2020-06-29T07:04:57Z</time>
      </trkpt>
      <trkpt lat="44.12132" lon="7.22394">
        <ele>2537.199</ele>
        <time>2020-06-29T07:05:13Z</time>
      </trkpt>
      <trkpt lat="44.12132" lon="7.22394">
        <ele>2537.199</ele>
        <time>2020-06-29T07:05:28Z</time>
      </trkpt>
      <trkpt lat="44.12147" lon="7.22402">
        <ele>2531.82</ele>
        <time>2020-06-29T07:05:44Z</time>
      </trkpt>
      <trkpt lat="44.12149" lon="7.22406">
        <ele>2529.95</ele>
        <time>2020-06-29T07:06:00Z</time>
      </trkpt>
      <trkpt lat="44.12149" lon="7.22406">
        <ele>2529.95</ele>
        <time>2020-06-29T07:06:15Z</time>
      </trkpt>
      <trkpt lat="44.12149" lon="7.22406">
        <ele>2529.95</ele>
        <time>2020-06-29T07:06:31Z</time>
      </trkpt>
      <trkpt lat="44.12149" lon="7.22406">
        <ele>2529.95</ele>
        <time>2020-06-29T07:06:46Z</time>
      </trkpt>
      <trkpt lat="44.12149" lon="7.22406">
        <ele>2529.95</ele>
        <time>2020-06-29T07:07:01Z</time>
      </trkpt>
      <trkpt lat="44.12149" lon="7.22406">
        <ele>2529.95</ele>
        <time>2020-06-29T07:07:16Z</time>
      </trkpt>
      <trkpt lat="44.12149" lon="7.22406">
        <ele>2529.95</ele>
        <time>2020-06-29T07:07:31Z</time>
      </trkpt>
      <trkpt lat="44.12149" lon="7.22406">
        <ele>2529.95</ele>
        <time>2020-06-29T07:07:47Z</time>
      </trkpt>
      <trkpt lat="44.12149" lon="7.22406">
        <ele>2529.95</ele>
        <time>2020-06-29T07:08:03Z</time>
      </trkpt>
      <trkpt lat="44.12149" lon="7.22406">
        <ele>2529.95</ele>
        <time>2020-06-29T07:08:18Z</time>
      </trkpt>
      <trkpt lat="44.12149" lon="7.22406">
        <ele>2529.95</ele>
        <time>2020-06-29T07:08:33Z</time>
      </trkpt>
      <trkpt lat="44.12157" lon="7.22417">
        <ele>2524.336</ele>
        <time>2020-06-29T07:08:49Z</time>
      </trkpt>
      <trkpt lat="44.12158" lon="7.22418">
        <ele>2523.875</ele>
        <time>2020-06-29T07:09:04Z</time>
      </trkpt>
      <trkpt lat="44.12161" lon="7.22419">
        <ele>2523.767</ele>
        <time>2020-06-29T07:09:20Z</time>
      </trkpt>
      <trkpt lat="44.12162" lon="7.22423">
        <ele>2522.394</ele>
        <time>2020-06-29T07:09:36Z</time>
      </trkpt>
      <trkpt lat="44.12163" lon="7.22424">
        <ele>2522.819</ele>
        <time>2020-06-29T07:09:51Z</time>
      </trkpt>
      <trkpt lat="44.12171" lon="7.22438">
        <ele>2529.063</ele>
        <time>2020-06-29T07:10:07Z</time>
      </trkpt>
      <trkpt lat="44.12176" lon="7.22448">
        <ele>2529.5</ele>
        <time>2020-06-29T07:10:23Z</time>
      </trkpt>
      <trkpt lat="44.12178" lon="7.22463">
        <ele>2526.695</ele>
        <time>2020-06-29T07:10:38Z</time>
      </trkpt>
      <trkpt lat="44.12181" lon="7.22483">
        <ele>2522.728</ele>
        <time>2020-06-29T07:10:54Z</time>
      </trkpt>
      <trkpt lat="44.12179" lon="7.22493">
        <ele>2522.746</ele>
        <time>2020-06-29T07:11:10Z</time>
      </trkpt>
      <trkpt lat="44.12178" lon="7.22515">
        <ele>2521.337</ele>
        <time>2020-06-29T07:11:26Z</time>
      </trkpt>
      <trkpt lat="44.12176" lon="7.22528">
        <ele>2521.901</ele>
        <time>2020-06-29T07:11:41Z</time>
      </trkpt>
      <trkpt lat="44.12176" lon="7.22543">
        <ele>2522.754</ele>
        <time>2020-06-29T07:11:57Z</time>
      </trkpt>
      <trkpt lat="44.12174" lon="7.22553">
        <ele>2523.32</ele>
        <time>2020-06-29T07:12:12Z</time>
      </trkpt>
      <trkpt lat="44.12172" lon="7.22567">
        <ele>2520.813</ele>
        <time>2020-06-29T07:12:27Z</time>
      </trkpt>
      <trkpt lat="44.12167" lon="7.22586">
        <ele>2521.307</ele>
        <time>2020-06-29T07:12:43Z</time>
      </trkpt>
      <trkpt lat="44.12163" lon="7.22605">
        <ele>2523.941</ele>
        <time>2020-06-29T07:12:58Z</time>
      </trkpt>
      <trkpt lat="44.12162" lon="7.22617">
        <ele>2523.462</ele>
        <time>2020-06-29T07:13:14Z</time>
      </trkpt>
      <trkpt lat="44.12162" lon="7.22617">
        <ele>2523.681</ele>
        <time>2020-06-29T07:13:29Z</time>
      </trkpt>
      <trkpt lat="44.12162" lon="7.22617">
        <ele>2523.681</ele>
        <time>2020-06-29T07:13:45Z</time>
      </trkpt>
      <trkpt lat="44.1216" lon="7.22618">
        <ele>2523.484</ele>
        <time>2020-06-29T07:14:00Z</time>
      </trkpt>
      <trkpt lat="44.12161" lon="7.2262">
        <ele>2523.748</ele>
        <time>2020-06-29T07:14:15Z</time>
      </trkpt>
      <trkpt lat="44.12161" lon="7.22622">
        <ele>2524.027</ele>
        <time>2020-06-29T07:14:31Z</time>
      </trkpt>
      <trkpt lat="44.12161" lon="7.22638">
        <ele>2526.183</ele>
        <time>2020-06-29T07:14:47Z</time>
      </trkpt>
      <trkpt lat="44.12153" lon="7.22653">
        <ele>2524.756</ele>
        <time>2020-06-29T07:15:02Z</time>
      </trkpt>
      <trkpt lat="44.12145" lon="7.22669">
        <ele>2524.158</ele>
        <time>2020-06-29T07:15:18Z</time>
      </trkpt>
      <trkpt lat="44.12142" lon="7.22679">
        <ele>2521.482</ele>
        <time>2020-06-29T07:15:33Z</time>
      </trkpt>
      <trkpt lat="44.12134" lon="7.22694">
        <ele>2517.434</ele>
        <time>2020-06-29T07:15:49Z</time>
      </trkpt>
      <trkpt lat="44.12126" lon="7.227">
        <ele>2513.487</ele>
        <time>2020-06-29T07:16:04Z</time>
      </trkpt>
      <trkpt lat="44.12126" lon="7.227">
        <ele>2513.218</ele>
        <time>2020-06-29T07:16:20Z</time>
      </trkpt>
      <trkpt lat="44.12124" lon="7.22695">
        <ele>2511.272</ele>
        <time>2020-06-29T07:16:35Z</time>
      </trkpt>
      <trkpt lat="44.12117" lon="7.22695">
        <ele>2508.914</ele>
        <time>2020-06-29T07:16:51Z</time>
      </trkpt>
      <trkpt lat="44.12113" lon="7.22702">
        <ele>2505.945</ele>
        <time>2020-06-29T07:17:06Z</time>
      </trkpt>
      <trkpt lat="44.1211" lon="7.22707">
        <ele>2503.157</ele>
        <time>2020-06-29T07:17:21Z</time>
      </trkpt>
      <trkpt lat="44.12105" lon="7.22714">
        <ele>2500.297</ele>
        <time>2020-06-29T07:17:37Z</time>
      </trkpt>
      <trkpt lat="44.12106" lon="7.22717">
        <ele>2498.261</ele>
        <time>2020-06-29T07:17:53Z</time>
      </trkpt>
      <trkpt lat="44.12105" lon="7.22717">
        <ele>2497.406</ele>
        <time>2020-06-29T07:18:08Z</time>
      </trkpt>
      <trkpt lat="44.12105" lon="7.22717">
        <ele>2497.406</ele>
        <time>2020-06-29T07:18:24Z</time>
      </trkpt>
      <trkpt lat="44.12105" lon="7.22717">
        <ele>2497.406</ele>
        <time>2020-06-29T07:18:40Z</time>
      </trkpt>
      <trkpt lat="44.1211" lon="7.22725">
        <ele>2494.311</ele>
        <time>2020-06-29T07:18:55Z</time>
      </trkpt>
      <trkpt lat="44.12115" lon="7.22729">
        <ele>2494.074</ele>
        <time>2020-06-29T07:19:11Z</time>
      </trkpt>
      <trkpt lat="44.12116" lon="7.22731">
        <ele>2493.312</ele>
        <time>2020-06-29T07:19:26Z</time>
      </trkpt>
      <trkpt lat="44.12117" lon="7.22733">
        <ele>2492.899</ele>
        <time>2020-06-29T07:19:42Z</time>
      </trkpt>
      <trkpt lat="44.12117" lon="7.22733">
        <ele>2492.899</ele>
        <time>2020-06-29T07:19:58Z</time>
      </trkpt>
      <trkpt lat="44.12117" lon="7.22733">
        <ele>2492.899</ele>
        <time>2020-06-29T07:20:13Z</time>
      </trkpt>
      <trkpt lat="44.12121" lon="7.2274">
        <ele>2492.081</ele>
        <time>2020-06-29T07:20:28Z</time>
      </trkpt>
      <trkpt lat="44.12121" lon="7.22741">
        <ele>2490.937</ele>
        <time>2020-06-29T07:20:44Z</time>
      </trkpt>
      <trkpt lat="44.1212" lon="7.22749">
        <ele>2489.929</ele>
        <time>2020-06-29T07:20:59Z</time>
      </trkpt>
      <trkpt lat="44.12123" lon="7.2275">
        <ele>2488.557</ele>
        <time>2020-06-29T07:21:15Z</time>
      </trkpt>
      <trkpt lat="44.12123" lon="7.2275">
        <ele>2488.557</ele>
        <time>2020-06-29T07:21:31Z</time>
      </trkpt>
      <trkpt lat="44.12123" lon="7.2275">
        <ele>2488.557</ele>
        <time>2020-06-29T07:21:46Z</time>
      </trkpt>
      <trkpt lat="44.12124" lon="7.2276">
        <ele>2486.694</ele>
        <time>2020-06-29T07:22:02Z</time>
      </trkpt>
      <trkpt lat="44.12117" lon="7.22762">
        <ele>2481.54</ele>
        <time>2020-06-29T07:22:18Z</time>
      </trkpt>
      <trkpt lat="44.12117" lon="7.22762">
        <ele>2481.54</ele>
        <time>2020-06-29T07:22:33Z</time>
      </trkpt>
      <trkpt lat="44.12117" lon="7.22762">
        <ele>2481.54</ele>
        <time>2020-06-29T07:22:49Z</time>
      </trkpt>
      <trkpt lat="44.12117" lon="7.22764">
        <ele>2481.314</ele>
        <time>2020-06-29T07:23:05Z</time>
      </trkpt>
      <trkpt lat="44.12118" lon="7.22764">
        <ele>2480.945</ele>
        <time>2020-06-29T07:23:21Z</time>
      </trkpt>
      <trkpt lat="44.12118" lon="7.22765">
        <ele>2480.665</ele>
        <time>2020-06-29T07:23:37Z</time>
      </trkpt>
      <trkpt lat="44.12118" lon="7.22769">
        <ele>2478.899</ele>
        <time>2020-06-29T07:23:52Z</time>
      </trkpt>
      <trkpt lat="44.12117" lon="7.22778">
        <ele>2475.8</ele>
        <time>2020-06-29T07:24:08Z</time>
      </trkpt>
      <trkpt lat="44.12117" lon="7.22779">
        <ele>2475.411</ele>
        <time>2020-06-29T07:24:23Z</time>
      </trkpt>
      <trkpt lat="44.12117" lon="7.22779">
        <ele>2475.411</ele>
        <time>2020-06-29T07:24:38Z</time>
      </trkpt>
      <trkpt lat="44.12115" lon="7.22782">
        <ele>2474.637</ele>
        <time>2020-06-29T07:24:54Z</time>
      </trkpt>
      <trkpt lat="44.12115" lon="7.22782">
        <ele>2474.637</ele>
        <time>2020-06-29T07:25:09Z</time>
      </trkpt>
      <trkpt lat="44.12115" lon="7.22787">
        <ele>2471.783</ele>
        <time>2020-06-29T07:25:24Z</time>
      </trkpt>
      <trkpt lat="44.12115" lon="7.22787">
        <ele>2471.783</ele>
        <time>2020-06-29T07:25:39Z</time>
      </trkpt>
      <trkpt lat="44.12113" lon="7.22791">
        <ele>2470.301</ele>
        <time>2020-06-29T07:25:55Z</time>
      </trkpt>
      <trkpt lat="44.12113" lon="7.22791">
        <ele>2470.301</ele>
        <time>2020-06-29T07:26:10Z</time>
      </trkpt>
      <trkpt lat="44.12113" lon="7.22791">
        <ele>2470.301</ele>
        <time>2020-06-29T07:26:26Z</time>
      </trkpt>
      <trkpt lat="44.12108" lon="7.22798">
        <ele>2467.903</ele>
        <time>2020-06-29T07:26:42Z</time>
      </trkpt>
      <trkpt lat="44.12106" lon="7.22803">
        <ele>2465.565</ele>
        <time>2020-06-29T07:26:58Z</time>
      </trkpt>
      <trkpt lat="44.12106" lon="7.22803">
        <ele>2465.565</ele>
        <time>2020-06-29T07:27:13Z</time>
      </trkpt>
      <trkpt lat="44.12106" lon="7.22803">
        <ele>2465.565</ele>
        <time>2020-06-29T07:27:29Z</time>
      </trkpt>
      <trkpt lat="44.121" lon="7.22805">
        <ele>2462.188</ele>
        <time>2020-06-29T07:27:44Z</time>
      </trkpt>
      <trkpt lat="44.12097" lon="7.22807">
        <ele>2459.519</ele>
        <time>2020-06-29T07:28:00Z</time>
      </trkpt>
      <trkpt lat="44.12096" lon="7.22813">
        <ele>2452.705</ele>
        <time>2020-06-29T07:28:15Z</time>
      </trkpt>
      <trkpt lat="44.12097" lon="7.22815">
        <ele>2450.36</ele>
        <time>2020-06-29T07:28:31Z</time>
      </trkpt>
      <trkpt lat="44.12097" lon="7.22815">
        <ele>2450.36</ele>
        <time>2020-06-29T07:28:46Z</time>
      </trkpt>
      <trkpt lat="44.12097" lon="7.22815">
        <ele>2450.36</ele>
        <time>2020-06-29T07:29:02Z</time>
      </trkpt>
      <trkpt lat="44.12097" lon="7.2282">
        <ele>2447.53</ele>
        <time>2020-06-29T07:29:17Z</time>
      </trkpt>
      <trkpt lat="44.121" lon="7.22822">
        <ele>2446.331</ele>
        <time>2020-06-29T07:29:33Z</time>
      </trkpt>
      <trkpt lat="44.12099" lon="7.22823">
        <ele>2445.765</ele>
        <time>2020-06-29T07:29:49Z</time>
      </trkpt>
      <trkpt lat="44.12099" lon="7.22823">
        <ele>2445.495</ele>
        <time>2020-06-29T07:30:04Z</time>
      </trkpt>
      <trkpt lat="44.12099" lon="7.22822">
        <ele>2444.883</ele>
        <time>2020-06-29T07:30:20Z</time>
      </trkpt>
      <trkpt lat="44.12098" lon="7.22821">
        <ele>2443.951</ele>
        <time>2020-06-29T07:30:36Z</time>
      </trkpt>
      <trkpt lat="44.12095" lon="7.22818">
        <ele>2439.134</ele>
        <time>2020-06-29T07:30:51Z</time>
      </trkpt>
      <trkpt lat="44.12093" lon="7.22824">
        <ele>2435.835</ele>
        <time>2020-06-29T07:31:07Z</time>
      </trkpt>
      <trkpt lat="44.12093" lon="7.22827">
        <ele>2435.183</ele>
        <time>2020-06-29T07:31:23Z</time>
      </trkpt>
      <trkpt lat="44.12084" lon="7.22831">
        <ele>2430.619</ele>
        <time>2020-06-29T07:31:38Z</time>
      </trkpt>
      <trkpt lat="44.1208" lon="7.22835">
        <ele>2428.202</ele>
        <time>2020-06-29T07:31:54Z</time>
      </trkpt>
      <trkpt lat="44.12077" lon="7.22834">
        <ele>2423.955</ele>
        <time>2020-06-29T07:32:09Z</time>
      </trkpt>
      <trkpt lat="44.12075" lon="7.22846">
        <ele>2421.265</ele>
        <time>2020-06-29T07:32:25Z</time>
      </trkpt>
      <trkpt lat="44.12075" lon="7.22846">
        <ele>2421.265</ele>
        <time>2020-06-29T07:32:41Z</time>
      </trkpt>
      <trkpt lat="44.12075" lon="7.22846">
        <ele>2421.265</ele>
        <time>2020-06-29T07:32:56Z</time>
      </trkpt>
      <trkpt lat="44.12079" lon="7.22848">
        <ele>2422.047</ele>
        <time>2020-06-29T07:33:12Z</time>
      </trkpt>
      <trkpt lat="44.1209" lon="7.22864">
        <ele>2424.402</ele>
        <time>2020-06-29T07:33:28Z</time>
      </trkpt>
      <trkpt lat="44.12094" lon="7.22888">
        <ele>2421.043</ele>
        <time>2020-06-29T07:33:44Z</time>
      </trkpt>
      <trkpt lat="44.12103" lon="7.22904">
        <ele>2417.737</ele>
        <time>2020-06-29T07:34:00Z</time>
      </trkpt>
      <trkpt lat="44.12116" lon="7.22921">
        <ele>2418.093</ele>
        <time>2020-06-29T07:34:15Z</time>
      </trkpt>
      <trkpt lat="44.12124" lon="7.22939">
        <ele>2417.87</ele>
        <time>2020-06-29T07:34:31Z</time>
      </trkpt>
      <trkpt lat="44.12139" lon="7.22959">
        <ele>2415.783</ele>
        <time>2020-06-29T07:34:47Z</time>
      </trkpt>
      <trkpt lat="44.1215" lon="7.22973">
        <ele>2412.328</ele>
        <time>2020-06-29T07:35:02Z</time>
      </trkpt>
      <trkpt lat="44.12164" lon="7.22991">
        <ele>2412.597</ele>
        <time>2020-06-29T07:35:18Z</time>
      </trkpt>
      <trkpt lat="44.12164" lon="7.22996">
        <ele>2409.26</ele>
        <time>2020-06-29T07:35:34Z</time>
      </trkpt>
      <trkpt lat="44.12168" lon="7.22997">
        <ele>2409.843</ele>
        <time>2020-06-29T07:35:50Z</time>
      </trkpt>
      <trkpt lat="44.12167" lon="7.22999">
        <ele>2411.538</ele>
        <time>2020-06-29T07:36:05Z</time>
      </trkpt>
      <trkpt lat="44.12167" lon="7.22998">
        <ele>2411.935</ele>
        <time>2020-06-29T07:36:21Z</time>
      </trkpt>
      <trkpt lat="44.12167" lon="7.22998">
        <ele>2411.935</ele>
        <time>2020-06-29T07:36:37Z</time>
      </trkpt>
      <trkpt lat="44.12167" lon="7.22998">
        <ele>2411.935</ele>
        <time>2020-06-29T07:36:52Z</time>
      </trkpt>
      <trkpt lat="44.12167" lon="7.22998">
        <ele>2411.935</ele>
        <time>2020-06-29T07:37:08Z</time>
      </trkpt>
      <trkpt lat="44.12167" lon="7.22998">
        <ele>2411.935</ele>
        <time>2020-06-29T07:37:24Z</time>
      </trkpt>
      <trkpt lat="44.12167" lon="7.22999">
        <ele>2411.235</ele>
        <time>2020-06-29T07:37:40Z</time>
      </trkpt>
      <trkpt lat="44.12163" lon="7.22999">
        <ele>2409.811</ele>
        <time>2020-06-29T07:37:56Z</time>
      </trkpt>
      <trkpt lat="44.12164" lon="7.22993">
        <ele>2408.326</ele>
        <time>2020-06-29T07:38:11Z</time>
      </trkpt>
      <trkpt lat="44.12173" lon="7.22976">
        <ele>2408.533</ele>
        <time>2020-06-29T07:38:27Z</time>
      </trkpt>
      <trkpt lat="44.12188" lon="7.22955">
        <ele>2406.766</ele>
        <time>2020-06-29T07:38:42Z</time>
      </trkpt>
      <trkpt lat="44.12192" lon="7.22942">
        <ele>2407.587</ele>
        <time>2020-06-29T07:38:58Z</time>
      </trkpt>
      <trkpt lat="44.12206" lon="7.22929">
        <ele>2407.731</ele>
        <time>2020-06-29T07:39:14Z</time>
      </trkpt>
      <trkpt lat="44.1222" lon="7.22918">
        <ele>2409.506</ele>
        <time>2020-06-29T07:39:29Z</time>
      </trkpt>
      <trkpt lat="44.12238" lon="7.22917">
        <ele>2410.426</ele>
        <time>2020-06-29T07:39:45Z</time>
      </trkpt>
      <trkpt lat="44.12238" lon="7.22918">
        <ele>2409.875</ele>
        <time>2020-06-29T07:40:01Z</time>
      </trkpt>
      <trkpt lat="44.12252" lon="7.22918">
        <ele>2408.959</ele>
        <time>2020-06-29T07:40:17Z</time>
      </trkpt>
      <trkpt lat="44.12261" lon="7.22917">
        <ele>2408.803</ele>
        <time>2020-06-29T07:40:32Z</time>
      </trkpt>
      <trkpt lat="44.1228" lon="7.22908">
        <ele>2406.972</ele>
        <time>2020-06-29T07:40:48Z</time>
      </trkpt>
      <trkpt lat="44.12284" lon="7.22904">
        <ele>2406.703</ele>
        <time>2020-06-29T07:41:04Z</time>
      </trkpt>
      <trkpt lat="44.12296" lon="7.22896">
        <ele>2405.909</ele>
        <time>2020-06-29T07:41:19Z</time>
      </trkpt>
      <trkpt lat="44.12305" lon="7.22895">
        <ele>2404.721</ele>
        <time>2020-06-29T07:41:35Z</time>
      </trkpt>
      <trkpt lat="44.12317" lon="7.22894">
        <ele>2405.849</ele>
        <time>2020-06-29T07:41:51Z</time>
      </trkpt>
      <trkpt lat="44.12319" lon="7.2289">
        <ele>2407.833</ele>
        <time>2020-06-29T07:42:07Z</time>
      </trkpt>
      <trkpt lat="44.12327" lon="7.22892">
        <ele>2407.997</ele>
        <time>2020-06-29T07:42:23Z</time>
      </trkpt>
      <trkpt lat="44.1234" lon="7.2288">
        <ele>2408.281</ele>
        <time>2020-06-29T07:42:39Z</time>
      </trkpt>
      <trkpt lat="44.12355" lon="7.22871">
        <ele>2408.7</ele>
        <time>2020-06-29T07:42:55Z</time>
      </trkpt>
      <trkpt lat="44.12369" lon="7.22861">
        <ele>2408.279</ele>
        <time>2020-06-29T07:43:11Z</time>
      </trkpt>
      <trkpt lat="44.12381" lon="7.2286">
        <ele>2406.876</ele>
        <time>2020-06-29T07:43:27Z</time>
      </trkpt>
      <trkpt lat="44.12388" lon="7.22866">
        <ele>2405.563</ele>
        <time>2020-06-29T07:43:42Z</time>
      </trkpt>
      <trkpt lat="44.12411" lon="7.22874">
        <ele>2401.707</ele>
        <time>2020-06-29T07:43:58Z</time>
      </trkpt>
      <trkpt lat="44.12427" lon="7.22866">
        <ele>2398.927</ele>
        <time>2020-06-29T07:44:14Z</time>
      </trkpt>
      <trkpt lat="44.12444" lon="7.22853">
        <ele>2398.156</ele>
        <time>2020-06-29T07:44:29Z</time>
      </trkpt>
      <trkpt lat="44.12448" lon="7.22844">
        <ele>2397.525</ele>
        <time>2020-06-29T07:44:45Z</time>
      </trkpt>
      <trkpt lat="44.12462" lon="7.22841">
        <ele>2398.317</ele>
        <time>2020-06-29T07:45:01Z</time>
      </trkpt>
      <trkpt lat="44.12479" lon="7.22839">
        <ele>2395.52</ele>
        <time>2020-06-29T07:45:17Z</time>
      </trkpt>
      <trkpt lat="44.12489" lon="7.22835">
        <ele>2394.578</ele>
        <time>2020-06-29T07:45:33Z</time>
      </trkpt>
      <trkpt lat="44.12514" lon="7.22823">
        <ele>2395.518</ele>
        <time>2020-06-29T07:45:48Z</time>
      </trkpt>
      <trkpt lat="44.12527" lon="7.22823">
        <ele>2395.601</ele>
        <time>2020-06-29T07:46:03Z</time>
      </trkpt>
      <trkpt lat="44.12536" lon="7.22827">
        <ele>2394.118</ele>
        <time>2020-06-29T07:46:19Z</time>
      </trkpt>
      <trkpt lat="44.12542" lon="7.22828">
        <ele>2394.283</ele>
        <time>2020-06-29T07:46:35Z</time>
      </trkpt>
      <trkpt lat="44.12542" lon="7.22828">
        <ele>2394.283</ele>
        <time>2020-06-29T07:46:50Z</time>
      </trkpt>
      <trkpt lat="44.12542" lon="7.22828">
        <ele>2394.283</ele>
        <time>2020-06-29T07:47:05Z</time>
      </trkpt>
      <trkpt lat="44.12552" lon="7.22828">
        <ele>2392.837</ele>
        <time>2020-06-29T07:47:20Z</time>
      </trkpt>
      <trkpt lat="44.12552" lon="7.22828">
        <ele>2392.837</ele>
        <time>2020-06-29T07:47:35Z</time>
      </trkpt>
      <trkpt lat="44.12552" lon="7.22828">
        <ele>2392.837</ele>
        <time>2020-06-29T07:47:50Z</time>
      </trkpt>
      <trkpt lat="44.1256" lon="7.22829">
        <ele>2391.451</ele>
        <time>2020-06-29T07:48:06Z</time>
      </trkpt>
      <trkpt lat="44.12577" lon="7.22831">
        <ele>2388.495</ele>
        <time>2020-06-29T07:48:21Z</time>
      </trkpt>
      <trkpt lat="44.12583" lon="7.22833">
        <ele>2388.083</ele>
        <time>2020-06-29T07:48:37Z</time>
      </trkpt>
      <trkpt lat="44.12598" lon="7.22831">
        <ele>2386.205</ele>
        <time>2020-06-29T07:48:53Z</time>
      </trkpt>
      <trkpt lat="44.12612" lon="7.22832">
        <ele>2381.52</ele>
        <time>2020-06-29T07:49:08Z</time>
      </trkpt>
      <trkpt lat="44.12624" lon="7.22833">
        <ele>2380.419</ele>
        <time>2020-06-29T07:49:24Z</time>
      </trkpt>
      <trkpt lat="44.12623" lon="7.22833">
        <ele>2381.562</ele>
        <time>2020-06-29T07:49:39Z</time>
      </trkpt>
      <trkpt lat="44.12628" lon="7.22831">
        <ele>2381.277</ele>
        <time>2020-06-29T07:49:55Z</time>
      </trkpt>
      <trkpt lat="44.12632" lon="7.22831">
        <ele>2381.028</ele>
        <time>2020-06-29T07:50:11Z</time>
      </trkpt>
      <trkpt lat="44.12648" lon="7.22827">
        <ele>2377.495</ele>
        <time>2020-06-29T07:50:26Z</time>
      </trkpt>
      <trkpt lat="44.12652" lon="7.22827">
        <ele>2376.067</ele>
        <time>2020-06-29T07:50:42Z</time>
      </trkpt>
      <trkpt lat="44.12652" lon="7.22827">
        <ele>2376.067</ele>
        <time>2020-06-29T07:50:58Z</time>
      </trkpt>
      <trkpt lat="44.1267" lon="7.2283">
        <ele>2373.618</ele>
        <time>2020-06-29T07:51:13Z</time>
      </trkpt>
      <trkpt lat="44.12679" lon="7.22834">
        <ele>2371.86</ele>
        <time>2020-06-29T07:51:29Z</time>
      </trkpt>
      <trkpt lat="44.12688" lon="7.22836">
        <ele>2371.503</ele>
        <time>2020-06-29T07:51:44Z</time>
      </trkpt>
      <trkpt lat="44.127" lon="7.22839">
        <ele>2370.002</ele>
        <time>2020-06-29T07:52:00Z</time>
      </trkpt>
      <trkpt lat="44.12711" lon="7.22843">
        <ele>2367.933</ele>
        <time>2020-06-29T07:52:16Z</time>
      </trkpt>
      <trkpt lat="44.12719" lon="7.22851">
        <ele>2366.11</ele>
        <time>2020-06-29T07:52:31Z</time>
      </trkpt>
      <trkpt lat="44.12735" lon="7.22866">
        <ele>2361.741</ele>
        <time>2020-06-29T07:52:47Z</time>
      </trkpt>
      <trkpt lat="44.12739" lon="7.22867">
        <ele>2359.47</ele>
        <time>2020-06-29T07:53:02Z</time>
      </trkpt>
      <trkpt lat="44.12746" lon="7.22866">
        <ele>2357.934</ele>
        <time>2020-06-29T07:53:18Z</time>
      </trkpt>
      <trkpt lat="44.1276" lon="7.22868">
        <ele>2359.701</ele>
        <time>2020-06-29T07:53:34Z</time>
      </trkpt>
      <trkpt lat="44.12772" lon="7.22874">
        <ele>2358.785</ele>
        <time>2020-06-29T07:53:49Z</time>
      </trkpt>
      <trkpt lat="44.1278" lon="7.22879">
        <ele>2357.71</ele>
        <time>2020-06-29T07:54:05Z</time>
      </trkpt>
      <trkpt lat="44.12787" lon="7.22895">
        <ele>2357.847</ele>
        <time>2020-06-29T07:54:20Z</time>
      </trkpt>
      <trkpt lat="44.12792" lon="7.22902">
        <ele>2356.847</ele>
        <time>2020-06-29T07:54:36Z</time>
      </trkpt>
      <trkpt lat="44.12797" lon="7.22907">
        <ele>2356.395</ele>
        <time>2020-06-29T07:54:52Z</time>
      </trkpt>
      <trkpt lat="44.12807" lon="7.22918">
        <ele>2354.024</ele>
        <time>2020-06-29T07:55:07Z</time>
      </trkpt>
      <trkpt lat="44.12807" lon="7.22918">
        <ele>2354.024</ele>
        <time>2020-06-29T07:55:23Z</time>
      </trkpt>
      <trkpt lat="44.12807" lon="7.22918">
        <ele>2354.024</ele>
        <time>2020-06-29T07:55:39Z</time>
      </trkpt>
      <trkpt lat="44.12807" lon="7.22918">
        <ele>2354.024</ele>
        <time>2020-06-29T07:55:55Z</time>
      </trkpt>
      <trkpt lat="44.12807" lon="7.22918">
        <ele>2354.024</ele>
        <time>2020-06-29T07:56:11Z</time>
      </trkpt>
      <trkpt lat="44.12807" lon="7.22935">
        <ele>2351.538</ele>
        <time>2020-06-29T07:56:26Z</time>
      </trkpt>
      <trkpt lat="44.12815" lon="7.22941">
        <ele>2351.62</ele>
        <time>2020-06-29T07:56:42Z</time>
      </trkpt>
      <trkpt lat="44.12819" lon="7.22953">
        <ele>2349.47</ele>
        <time>2020-06-29T07:56:57Z</time>
      </trkpt>
      <trkpt lat="44.12824" lon="7.22953">
        <ele>2348.477</ele>
        <time>2020-06-29T07:57:12Z</time>
      </trkpt>
      <trkpt lat="44.12828" lon="7.22952">
        <ele>2346.824</ele>
        <time>2020-06-29T07:57:28Z</time>
      </trkpt>
      <trkpt lat="44.12836" lon="7.22968">
        <ele>2343.717</ele>
        <time>2020-06-29T07:57:43Z</time>
      </trkpt>
      <trkpt lat="44.1284" lon="7.22985">
        <ele>2341.322</ele>
        <time>2020-06-29T07:57:58Z</time>
      </trkpt>
      <trkpt lat="44.12831" lon="7.22998">
        <ele>2338.285</ele>
        <time>2020-06-29T07:58:14Z</time>
      </trkpt>
      <trkpt lat="44.12824" lon="7.23011">
        <ele>2340.512</ele>
        <time>2020-06-29T07:58:29Z</time>
      </trkpt>
      <trkpt lat="44.12815" lon="7.23016">
        <ele>2339.932</ele>
        <time>2020-06-29T07:58:45Z</time>
      </trkpt>
      <trkpt lat="44.12817" lon="7.23018">
        <ele>2339.312</ele>
        <time>2020-06-29T07:59:01Z</time>
      </trkpt>
      <trkpt lat="44.12826" lon="7.23014">
        <ele>2337.6</ele>
        <time>2020-06-29T07:59:16Z</time>
      </trkpt>
      <trkpt lat="44.12836" lon="7.23018">
        <ele>2338.256</ele>
        <time>2020-06-29T07:59:32Z</time>
      </trkpt>
      <trkpt lat="44.1284" lon="7.2302">
        <ele>2336.738</ele>
        <time>2020-06-29T07:59:48Z</time>
      </trkpt>
      <trkpt lat="44.12842" lon="7.2302">
        <ele>2336.424</ele>
        <time>2020-06-29T08:00:03Z</time>
      </trkpt>
      <trkpt lat="44.12848" lon="7.23029">
        <ele>2328.811</ele>
        <time>2020-06-29T08:00:19Z</time>
      </trkpt>
      <trkpt lat="44.12865" lon="7.23033">
        <ele>2323.156</ele>
        <time>2020-06-29T08:00:34Z</time>
      </trkpt>
      <trkpt lat="44.12867" lon="7.23034">
        <ele>2322.718</ele>
        <time>2020-06-29T08:00:49Z</time>
      </trkpt>
      <trkpt lat="44.12867" lon="7.23034">
        <ele>2322.718</ele>
        <time>2020-06-29T08:01:05Z</time>
      </trkpt>
      <trkpt lat="44.12868" lon="7.23042">
        <ele>2321.723</ele>
        <time>2020-06-29T08:01:21Z</time>
      </trkpt>
      <trkpt lat="44.12876" lon="7.23051">
        <ele>2319.402</ele>
        <time>2020-06-29T08:01:37Z</time>
      </trkpt>
      <trkpt lat="44.12873" lon="7.23066">
        <ele>2316.476</ele>
        <time>2020-06-29T08:01:52Z</time>
      </trkpt>
      <trkpt lat="44.12873" lon="7.23084">
        <ele>2317.926</ele>
        <time>2020-06-29T08:02:08Z</time>
      </trkpt>
      <trkpt lat="44.12874" lon="7.23085">
        <ele>2318.202</ele>
        <time>2020-06-29T08:02:23Z</time>
      </trkpt>
      <trkpt lat="44.12874" lon="7.23085">
        <ele>2318.202</ele>
        <time>2020-06-29T08:02:39Z</time>
      </trkpt>
      <trkpt lat="44.12874" lon="7.23085">
        <ele>2318.202</ele>
        <time>2020-06-29T08:02:55Z</time>
      </trkpt>
      <trkpt lat="44.12874" lon="7.23085">
        <ele>2318.202</ele>
        <time>2020-06-29T08:03:11Z</time>
      </trkpt>
      <trkpt lat="44.12874" lon="7.23085">
        <ele>2318.202</ele>
        <time>2020-06-29T08:03:27Z</time>
      </trkpt>
      <trkpt lat="44.12874" lon="7.23085">
        <ele>2318.202</ele>
        <time>2020-06-29T08:03:43Z</time>
      </trkpt>
      <trkpt lat="44.12874" lon="7.23085">
        <ele>2318.202</ele>
        <time>2020-06-29T08:03:58Z</time>
      </trkpt>
      <trkpt lat="44.12874" lon="7.23085">
        <ele>2318.202</ele>
        <time>2020-06-29T08:04:14Z</time>
      </trkpt>
      <trkpt lat="44.12876" lon="7.23087">
        <ele>2318.102</ele>
        <time>2020-06-29T08:04:29Z</time>
      </trkpt>
      <trkpt lat="44.12876" lon="7.23105">
        <ele>2317.802</ele>
        <time>2020-06-29T08:04:45Z</time>
      </trkpt>
      <trkpt lat="44.12883" lon="7.23105">
        <ele>2317.417</ele>
        <time>2020-06-29T08:05:00Z</time>
      </trkpt>
      <trkpt lat="44.12889" lon="7.23106">
        <ele>2316.699</ele>
        <time>2020-06-29T08:05:16Z</time>
      </trkpt>
      <trkpt lat="44.12904" lon="7.23105">
        <ele>2313.041</ele>
        <time>2020-06-29T08:05:31Z</time>
      </trkpt>
      <trkpt lat="44.12912" lon="7.23096">
        <ele>2310.077</ele>
        <time>2020-06-29T08:05:47Z</time>
      </trkpt>
      <trkpt lat="44.12918" lon="7.23109">
        <ele>2309.08</ele>
        <time>2020-06-29T08:06:03Z</time>
      </trkpt>
      <trkpt lat="44.12921" lon="7.23114">
        <ele>2305.855</ele>
        <time>2020-06-29T08:06:18Z</time>
      </trkpt>
      <trkpt lat="44.12919" lon="7.23116">
        <ele>2305.946</ele>
        <time>2020-06-29T08:06:34Z</time>
      </trkpt>
      <trkpt lat="44.1292" lon="7.23116">
        <ele>2305.844</ele>
        <time>2020-06-29T08:06:49Z</time>
      </trkpt>
      <trkpt lat="44.12922" lon="7.23114">
        <ele>2305.943</ele>
        <time>2020-06-29T08:07:05Z</time>
      </trkpt>
      <trkpt lat="44.12933" lon="7.23114">
        <ele>2302.214</ele>
        <time>2020-06-29T08:07:21Z</time>
      </trkpt>
      <trkpt lat="44.1294" lon="7.23118">
        <ele>2299.228</ele>
        <time>2020-06-29T08:07:37Z</time>
      </trkpt>
      <trkpt lat="44.12946" lon="7.23113">
        <ele>2294.812</ele>
        <time>2020-06-29T08:07:52Z</time>
      </trkpt>
      <trkpt lat="44.12952" lon="7.23127">
        <ele>2293.205</ele>
        <time>2020-06-29T08:08:08Z</time>
      </trkpt>
      <trkpt lat="44.12959" lon="7.23132">
        <ele>2293.592</ele>
        <time>2020-06-29T08:08:23Z</time>
      </trkpt>
      <trkpt lat="44.12957" lon="7.23133">
        <ele>2293.652</ele>
        <time>2020-06-29T08:08:39Z</time>
      </trkpt>
      <trkpt lat="44.12957" lon="7.23133">
        <ele>2293.652</ele>
        <time>2020-06-29T08:08:55Z</time>
      </trkpt>
      <trkpt lat="44.12967" lon="7.23134">
        <ele>2289.603</ele>
        <time>2020-06-29T08:09:10Z</time>
      </trkpt>
      <trkpt lat="44.1297" lon="7.23136">
        <ele>2288.298</ele>
        <time>2020-06-29T08:09:26Z</time>
      </trkpt>
      <trkpt lat="44.12977" lon="7.23138">
        <ele>2286.73</ele>
        <time>2020-06-29T08:09:41Z</time>
      </trkpt>
      <trkpt lat="44.12993" lon="7.23141">
        <ele>2283.18</ele>
        <time>2020-06-29T08:09:57Z</time>
      </trkpt>
      <trkpt lat="44.13002" lon="7.23143">
        <ele>2282.762</ele>
        <time>2020-06-29T08:10:13Z</time>
      </trkpt>
      <trkpt lat="44.12999" lon="7.23163">
        <ele>2278.885</ele>
        <time>2020-06-29T08:10:29Z</time>
      </trkpt>
      <trkpt lat="44.13002" lon="7.23167">
        <ele>2277.372</ele>
        <time>2020-06-29T08:10:44Z</time>
      </trkpt>
      <trkpt lat="44.1302" lon="7.2318">
        <ele>2277.616</ele>
        <time>2020-06-29T08:11:00Z</time>
      </trkpt>
      <trkpt lat="44.13032" lon="7.23194">
        <ele>2275.772</ele>
        <time>2020-06-29T08:11:16Z</time>
      </trkpt>
      <trkpt lat="44.13048" lon="7.23198">
        <ele>2272.668</ele>
        <time>2020-06-29T08:11:32Z</time>
      </trkpt>
      <trkpt lat="44.13065" lon="7.23205">
        <ele>2270.379</ele>
        <time>2020-06-29T08:11:48Z</time>
      </trkpt>
      <trkpt lat="44.13074" lon="7.23208">
        <ele>2269.752</ele>
        <time>2020-06-29T08:12:03Z</time>
      </trkpt>
      <trkpt lat="44.13077" lon="7.2321">
        <ele>2268.74</ele>
        <time>2020-06-29T08:12:18Z</time>
      </trkpt>
      <trkpt lat="44.13077" lon="7.2321">
        <ele>2268.74</ele>
        <time>2020-06-29T08:12:33Z</time>
      </trkpt>
      <trkpt lat="44.13076" lon="7.23208">
        <ele>2269.472</ele>
        <time>2020-06-29T08:12:49Z</time>
      </trkpt>
      <trkpt lat="44.13081" lon="7.23201">
        <ele>2269.066</ele>
        <time>2020-06-29T08:13:05Z</time>
      </trkpt>
      <trkpt lat="44.13086" lon="7.23192">
        <ele>2267.704</ele>
        <time>2020-06-29T08:13:20Z</time>
      </trkpt>
      <trkpt lat="44.13087" lon="7.2318">
        <ele>2268.122</ele>
        <time>2020-06-29T08:13:35Z</time>
      </trkpt>
      <trkpt lat="44.13093" lon="7.23181">
        <ele>2265.226</ele>
        <time>2020-06-29T08:13:51Z</time>
      </trkpt>
      <trkpt lat="44.13101" lon="7.23181">
        <ele>2264.354</ele>
        <time>2020-06-29T08:14:07Z</time>
      </trkpt>
      <trkpt lat="44.13111" lon="7.23177">
        <ele>2264.262</ele>
        <time>2020-06-29T08:14:22Z</time>
      </trkpt>
      <trkpt lat="44.13121" lon="7.23183">
        <ele>2258.115</ele>
        <time>2020-06-29T08:14:38Z</time>
      </trkpt>
      <trkpt lat="44.13123" lon="7.23173">
        <ele>2258.024</ele>
        <time>2020-06-29T08:14:53Z</time>
      </trkpt>
      <trkpt lat="44.13124" lon="7.23171">
        <ele>2256.995</ele>
        <time>2020-06-29T08:15:09Z</time>
      </trkpt>
      <trkpt lat="44.13135" lon="7.2316">
        <ele>2255.685</ele>
        <time>2020-06-29T08:15:24Z</time>
      </trkpt>
      <trkpt lat="44.1314" lon="7.2315">
        <ele>2253.19</ele>
        <time>2020-06-29T08:15:39Z</time>
      </trkpt>
      <trkpt lat="44.13144" lon="7.2315">
        <ele>2249.957</ele>
        <time>2020-06-29T08:15:55Z</time>
      </trkpt>
      <trkpt lat="44.13159" lon="7.23132">
        <ele>2244.473</ele>
        <time>2020-06-29T08:16:11Z</time>
      </trkpt>
      <trkpt lat="44.13173" lon="7.23127">
        <ele>2241.653</ele>
        <time>2020-06-29T08:16:26Z</time>
      </trkpt>
      <trkpt lat="44.13187" lon="7.2313">
        <ele>2237.402</ele>
        <time>2020-06-29T08:16:42Z</time>
      </trkpt>
      <trkpt lat="44.13195" lon="7.23134">
        <ele>2237.108</ele>
        <time>2020-06-29T08:16:58Z</time>
      </trkpt>
      <trkpt lat="44.13197" lon="7.23136">
        <ele>2237.176</ele>
        <time>2020-06-29T08:17:14Z</time>
      </trkpt>
      <trkpt lat="44.13214" lon="7.23143">
        <ele>2234.831</ele>
        <time>2020-06-29T08:17:29Z</time>
      </trkpt>
      <trkpt lat="44.13231" lon="7.23148">
        <ele>2232.039</ele>
        <time>2020-06-29T08:17:45Z</time>
      </trkpt>
      <trkpt lat="44.13244" lon="7.2315">
        <ele>2234.372</ele>
        <time>2020-06-29T08:18:00Z</time>
      </trkpt>
      <trkpt lat="44.13253" lon="7.23145">
        <ele>2232.26</ele>
        <time>2020-06-29T08:18:16Z</time>
      </trkpt>
      <trkpt lat="44.13253" lon="7.23146">
        <ele>2232.895</ele>
        <time>2020-06-29T08:18:32Z</time>
      </trkpt>
      <trkpt lat="44.13253" lon="7.23146">
        <ele>2232.895</ele>
        <time>2020-06-29T08:18:47Z</time>
      </trkpt>
      <trkpt lat="44.13264" lon="7.23145">
        <ele>2233.477</ele>
        <time>2020-06-29T08:19:03Z</time>
      </trkpt>
      <trkpt lat="44.1328" lon="7.2314">
        <ele>2233.526</ele>
        <time>2020-06-29T08:19:18Z</time>
      </trkpt>
      <trkpt lat="44.13297" lon="7.2314">
        <ele>2232.737</ele>
        <time>2020-06-29T08:19:34Z</time>
      </trkpt>
      <trkpt lat="44.13315" lon="7.23142">
        <ele>2235.036</ele>
        <time>2020-06-29T08:19:49Z</time>
      </trkpt>
      <trkpt lat="44.13326" lon="7.23137">
        <ele>2235.107</ele>
        <time>2020-06-29T08:20:04Z</time>
      </trkpt>
      <trkpt lat="44.13336" lon="7.23135">
        <ele>2234.663</ele>
        <time>2020-06-29T08:20:19Z</time>
      </trkpt>
      <trkpt lat="44.13351" lon="7.23133">
        <ele>2232.805</ele>
        <time>2020-06-29T08:20:35Z</time>
      </trkpt>
      <trkpt lat="44.1336" lon="7.23117">
        <ele>2231.556</ele>
        <time>2020-06-29T08:20:51Z</time>
      </trkpt>
      <trkpt lat="44.13363" lon="7.23119">
        <ele>2230.841</ele>
        <time>2020-06-29T08:21:06Z</time>
      </trkpt>
      <trkpt lat="44.13363" lon="7.23119">
        <ele>2230.841</ele>
        <time>2020-06-29T08:21:22Z</time>
      </trkpt>
      <trkpt lat="44.13363" lon="7.23118">
        <ele>2229.111</ele>
        <time>2020-06-29T08:21:37Z</time>
      </trkpt>
      <trkpt lat="44.13365" lon="7.23115">
        <ele>2230.322</ele>
        <time>2020-06-29T08:21:53Z</time>
      </trkpt>
      <trkpt lat="44.13372" lon="7.23105">
        <ele>2229.976</ele>
        <time>2020-06-29T08:22:08Z</time>
      </trkpt>
      <trkpt lat="44.13388" lon="7.23093">
        <ele>2227.917</ele>
        <time>2020-06-29T08:22:24Z</time>
      </trkpt>
      <trkpt lat="44.13403" lon="7.23082">
        <ele>2224.469</ele>
        <time>2020-06-29T08:22:40Z</time>
      </trkpt>
      <trkpt lat="44.13418" lon="7.23071">
        <ele>2221.229</ele>
        <time>2020-06-29T08:22:56Z</time>
      </trkpt>
      <trkpt lat="44.1343" lon="7.23063">
        <ele>2218.627</ele>
        <time>2020-06-29T08:23:11Z</time>
      </trkpt>
      <trkpt lat="44.13445" lon="7.23056">
        <ele>2216.929</ele>
        <time>2020-06-29T08:23:27Z</time>
      </trkpt>
      <trkpt lat="44.13456" lon="7.23045">
        <ele>2214.683</ele>
        <time>2020-06-29T08:23:43Z</time>
      </trkpt>
      <trkpt lat="44.13467" lon="7.23043">
        <ele>2212.663</ele>
        <time>2020-06-29T08:23:58Z</time>
      </trkpt>
      <trkpt lat="44.13476" lon="7.23043">
        <ele>2208.491</ele>
        <time>2020-06-29T08:24:14Z</time>
      </trkpt>
      <trkpt lat="44.1349" lon="7.23033">
        <ele>2208.135</ele>
        <time>2020-06-29T08:24:30Z</time>
      </trkpt>
      <trkpt lat="44.13504" lon="7.23024">
        <ele>2205.724</ele>
        <time>2020-06-29T08:24:45Z</time>
      </trkpt>
      <trkpt lat="44.13517" lon="7.23013">
        <ele>2202.358</ele>
        <time>2020-06-29T08:25:01Z</time>
      </trkpt>
      <trkpt lat="44.13524" lon="7.23004">
        <ele>2200.688</ele>
        <time>2020-06-29T08:25:17Z</time>
      </trkpt>
      <trkpt lat="44.13529" lon="7.22996">
        <ele>2199.928</ele>
        <time>2020-06-29T08:25:32Z</time>
      </trkpt>
      <trkpt lat="44.13545" lon="7.22994">
        <ele>2198.999</ele>
        <time>2020-06-29T08:25:47Z</time>
      </trkpt>
      <trkpt lat="44.13553" lon="7.2299">
        <ele>2198.322</ele>
        <time>2020-06-29T08:26:03Z</time>
      </trkpt>
      <trkpt lat="44.13562" lon="7.22986">
        <ele>2198.505</ele>
        <time>2020-06-29T08:26:19Z</time>
      </trkpt>
      <trkpt lat="44.13574" lon="7.22992">
        <ele>2194.79</ele>
        <time>2020-06-29T08:26:35Z</time>
      </trkpt>
      <trkpt lat="44.13586" lon="7.22997">
        <ele>2189.15</ele>
        <time>2020-06-29T08:26:51Z</time>
      </trkpt>
      <trkpt lat="44.13591" lon="7.23002">
        <ele>2187.93</ele>
        <time>2020-06-29T08:27:06Z</time>
      </trkpt>
      <trkpt lat="44.13594" lon="7.23">
        <ele>2187.639</ele>
        <time>2020-06-29T08:27:22Z</time>
      </trkpt>
      <trkpt lat="44.13594" lon="7.22999">
        <ele>2187.326</ele>
        <time>2020-06-29T08:27:38Z</time>
      </trkpt>
      <trkpt lat="44.13596" lon="7.23001">
        <ele>2187.206</ele>
        <time>2020-06-29T08:27:53Z</time>
      </trkpt>
      <trkpt lat="44.13604" lon="7.23003">
        <ele>2186.615</ele>
        <time>2020-06-29T08:28:08Z</time>
      </trkpt>
      <trkpt lat="44.13604" lon="7.23001">
        <ele>2185.573</ele>
        <time>2020-06-29T08:28:24Z</time>
      </trkpt>
      <trkpt lat="44.136" lon="7.23">
        <ele>2185.098</ele>
        <time>2020-06-29T08:28:39Z</time>
      </trkpt>
      <trkpt lat="44.13605" lon="7.22998">
        <ele>2184.337</ele>
        <time>2020-06-29T08:28:55Z</time>
      </trkpt>
      <trkpt lat="44.13616" lon="7.23002">
        <ele>2183.933</ele>
        <time>2020-06-29T08:29:11Z</time>
      </trkpt>
      <trkpt lat="44.13635" lon="7.23012">
        <ele>2182.177</ele>
        <time>2020-06-29T08:29:27Z</time>
      </trkpt>
      <trkpt lat="44.1365" lon="7.23021">
        <ele>2178.056</ele>
        <time>2020-06-29T08:29:42Z</time>
      </trkpt>
      <trkpt lat="44.13661" lon="7.23031">
        <ele>2175.031</ele>
        <time>2020-06-29T08:29:57Z</time>
      </trkpt>
      <trkpt lat="44.13669" lon="7.23043">
        <ele>2173.622</ele>
        <time>2020-06-29T08:30:13Z</time>
      </trkpt>
      <trkpt lat="44.13677" lon="7.23052">
        <ele>2169.201</ele>
        <time>2020-06-29T08:30:29Z</time>
      </trkpt>
      <trkpt lat="44.13682" lon="7.23058">
        <ele>2164.102</ele>
        <time>2020-06-29T08:30:45Z</time>
      </trkpt>
      <trkpt lat="44.13682" lon="7.23058">
        <ele>2164.102</ele>
        <time>2020-06-29T08:31:01Z</time>
      </trkpt>
      <trkpt lat="44.13687" lon="7.23057">
        <ele>2163.413</ele>
        <time>2020-06-29T08:31:17Z</time>
      </trkpt>
      <trkpt lat="44.13697" lon="7.23055">
        <ele>2163.065</ele>
        <time>2020-06-29T08:31:33Z</time>
      </trkpt>
      <trkpt lat="44.13706" lon="7.23056">
        <ele>2161.173</ele>
        <time>2020-06-29T08:31:49Z</time>
      </trkpt>
      <trkpt lat="44.13703" lon="7.23071">
        <ele>2153.929</ele>
        <time>2020-06-29T08:32:04Z</time>
      </trkpt>
      <trkpt lat="44.13705" lon="7.23081">
        <ele>2155.654</ele>
        <time>2020-06-29T08:32:20Z</time>
      </trkpt>
      <trkpt lat="44.13718" lon="7.23073">
        <ele>2151.952</ele>
        <time>2020-06-29T08:32:36Z</time>
      </trkpt>
      <trkpt lat="44.13725" lon="7.23079">
        <ele>2147.82</ele>
        <time>2020-06-29T08:32:52Z</time>
      </trkpt>
      <trkpt lat="44.13718" lon="7.23089">
        <ele>2144.17</ele>
        <time>2020-06-29T08:33:07Z</time>
      </trkpt>
      <trkpt lat="44.13715" lon="7.23098">
        <ele>2143.394</ele>
        <time>2020-06-29T08:33:23Z</time>
      </trkpt>
      <trkpt lat="44.13708" lon="7.23107">
        <ele>2142.174</ele>
        <time>2020-06-29T08:33:38Z</time>
      </trkpt>
      <trkpt lat="44.13699" lon="7.23121">
        <ele>2137.844</ele>
        <time>2020-06-29T08:33:54Z</time>
      </trkpt>
      <trkpt lat="44.13686" lon="7.23134">
        <ele>2135.913</ele>
        <time>2020-06-29T08:34:10Z</time>
      </trkpt>
      <trkpt lat="44.13689" lon="7.23153">
        <ele>2134.027</ele>
        <time>2020-06-29T08:34:26Z</time>
      </trkpt>
      <trkpt lat="44.13698" lon="7.23167">
        <ele>2129.659</ele>
        <time>2020-06-29T08:34:42Z</time>
      </trkpt>
      <trkpt lat="44.13704" lon="7.23183">
        <ele>2126.715</ele>
        <time>2020-06-29T08:34:58Z</time>
      </trkpt>
      <trkpt lat="44.13712" lon="7.23207">
        <ele>2123.585</ele>
        <time>2020-06-29T08:35:13Z</time>
      </trkpt>
      <trkpt lat="44.13719" lon="7.23224">
        <ele>2120.327</ele>
        <time>2020-06-29T08:35:28Z</time>
      </trkpt>
      <trkpt lat="44.13729" lon="7.23243">
        <ele>2117.355</ele>
        <time>2020-06-29T08:35:44Z</time>
      </trkpt>
      <trkpt lat="44.13738" lon="7.23256">
        <ele>2117.505</ele>
        <time>2020-06-29T08:35:59Z</time>
      </trkpt>
      <trkpt lat="44.13735" lon="7.23264">
        <ele>2118.612</ele>
        <time>2020-06-29T08:36:15Z</time>
      </trkpt>
      <trkpt lat="44.1374" lon="7.23272">
        <ele>2116.144</ele>
        <time>2020-06-29T08:36:30Z</time>
      </trkpt>
      <trkpt lat="44.13741" lon="7.23273">
        <ele>2115.814</ele>
        <time>2020-06-29T08:36:46Z</time>
      </trkpt>
      <trkpt lat="44.13741" lon="7.23273">
        <ele>2115.814</ele>
        <time>2020-06-29T08:37:02Z</time>
      </trkpt>
      <trkpt lat="44.13741" lon="7.23273">
        <ele>2115.814</ele>
        <time>2020-06-29T08:37:17Z</time>
      </trkpt>
      <trkpt lat="44.13745" lon="7.23282">
        <ele>2116.59</ele>
        <time>2020-06-29T08:37:33Z</time>
      </trkpt>
      <trkpt lat="44.13747" lon="7.23289">
        <ele>2114.223</ele>
        <time>2020-06-29T08:37:48Z</time>
      </trkpt>
      <trkpt lat="44.13757" lon="7.23319">
        <ele>2103.249</ele>
        <time>2020-06-29T08:38:03Z</time>
      </trkpt>
      <trkpt lat="44.13762" lon="7.23347">
        <ele>2097.531</ele>
        <time>2020-06-29T08:38:19Z</time>
      </trkpt>
      <trkpt lat="44.13765" lon="7.23366">
        <ele>2092.269</ele>
        <time>2020-06-29T08:38:34Z</time>
      </trkpt>
      <trkpt lat="44.13768" lon="7.23386">
        <ele>2090.709</ele>
        <time>2020-06-29T08:38:50Z</time>
      </trkpt>
      <trkpt lat="44.13763" lon="7.23407">
        <ele>2092.503</ele>
        <time>2020-06-29T08:39:05Z</time>
      </trkpt>
      <trkpt lat="44.13766" lon="7.23423">
        <ele>2091.092</ele>
        <time>2020-06-29T08:39:20Z</time>
      </trkpt>
      <trkpt lat="44.1377" lon="7.23444">
        <ele>2093.418</ele>
        <time>2020-06-29T08:39:36Z</time>
      </trkpt>
      <trkpt lat="44.13773" lon="7.23466">
        <ele>2086.218</ele>
        <time>2020-06-29T08:39:52Z</time>
      </trkpt>
      <trkpt lat="44.13782" lon="7.23481">
        <ele>2083.167</ele>
        <time>2020-06-29T08:40:07Z</time>
      </trkpt>
      <trkpt lat="44.13785" lon="7.23497">
        <ele>2082.228</ele>
        <time>2020-06-29T08:40:23Z</time>
      </trkpt>
      <trkpt lat="44.13776" lon="7.23533">
        <ele>2081.332</ele>
        <time>2020-06-29T08:40:39Z</time>
      </trkpt>
      <trkpt lat="44.13768" lon="7.23555">
        <ele>2083.35</ele>
        <time>2020-06-29T08:40:54Z</time>
      </trkpt>
      <trkpt lat="44.13761" lon="7.23561">
        <ele>2085.248</ele>
        <time>2020-06-29T08:41:10Z</time>
      </trkpt>
      <trkpt lat="44.13772" lon="7.23564">
        <ele>2080.082</ele>
        <time>2020-06-29T08:41:25Z</time>
      </trkpt>
      <trkpt lat="44.13772" lon="7.23564">
        <ele>2080.082</ele>
        <time>2020-06-29T08:41:41Z</time>
      </trkpt>
      <trkpt lat="44.13772" lon="7.23564">
        <ele>2080.082</ele>
        <time>2020-06-29T08:41:56Z</time>
      </trkpt>
      <trkpt lat="44.13782" lon="7.23569">
        <ele>2082.828</ele>
        <time>2020-06-29T08:42:11Z</time>
      </trkpt>
      <trkpt lat="44.13783" lon="7.23571">
        <ele>2082.426</ele>
        <time>2020-06-29T08:42:27Z</time>
      </trkpt>
      <trkpt lat="44.13783" lon="7.23571">
        <ele>2082.426</ele>
        <time>2020-06-29T08:42:42Z</time>
      </trkpt>
      <trkpt lat="44.1378" lon="7.23571">
        <ele>2085.019</ele>
        <time>2020-06-29T08:42:57Z</time>
      </trkpt>
      <trkpt lat="44.1378" lon="7.23575">
        <ele>2084.463</ele>
        <time>2020-06-29T08:43:13Z</time>
      </trkpt>
      <trkpt lat="44.1378" lon="7.23575">
        <ele>2084.463</ele>
        <time>2020-06-29T08:43:29Z</time>
      </trkpt>
      <trkpt lat="44.1378" lon="7.23575">
        <ele>2084.463</ele>
        <time>2020-06-29T08:43:45Z</time>
      </trkpt>
      <trkpt lat="44.1378" lon="7.23575">
        <ele>2084.463</ele>
        <time>2020-06-29T08:44:01Z</time>
      </trkpt>
      <trkpt lat="44.1378" lon="7.23575">
        <ele>2084.463</ele>
        <time>2020-06-29T08:44:17Z</time>
      </trkpt>
      <trkpt lat="44.1378" lon="7.23566">
        <ele>2081.13</ele>
        <time>2020-06-29T08:44:33Z</time>
      </trkpt>
      <trkpt lat="44.13782" lon="7.23562">
        <ele>2084.203</ele>
        <time>2020-06-29T08:44:49Z</time>
      </trkpt>
      <trkpt lat="44.13795" lon="7.23547">
        <ele>2086.701</ele>
        <time>2020-06-29T08:45:05Z</time>
      </trkpt>
      <trkpt lat="44.13804" lon="7.23535">
        <ele>2085.857</ele>
        <time>2020-06-29T08:45:21Z</time>
      </trkpt>
      <trkpt lat="44.13822" lon="7.23516">
        <ele>2081.373</ele>
        <time>2020-06-29T08:45:37Z</time>
      </trkpt>
      <trkpt lat="44.13834" lon="7.235">
        <ele>2076.118</ele>
        <time>2020-06-29T08:45:53Z</time>
      </trkpt>
      <trkpt lat="44.13841" lon="7.23482">
        <ele>2073.471</ele>
        <time>2020-06-29T08:46:08Z</time>
      </trkpt>
      <trkpt lat="44.13842" lon="7.23461">
        <ele>2069.881</ele>
        <time>2020-06-29T08:46:24Z</time>
      </trkpt>
      <trkpt lat="44.13853" lon="7.23441">
        <ele>2066.719</ele>
        <time>2020-06-29T08:46:40Z</time>
      </trkpt>
      <trkpt lat="44.13861" lon="7.23419">
        <ele>2067.933</ele>
        <time>2020-06-29T08:46:55Z</time>
      </trkpt>
      <trkpt lat="44.13867" lon="7.23394">
        <ele>2064.327</ele>
        <time>2020-06-29T08:47:11Z</time>
      </trkpt>
      <trkpt lat="44.13867" lon="7.23376">
        <ele>2063.08</ele>
        <time>2020-06-29T08:47:26Z</time>
      </trkpt>
      <trkpt lat="44.13873" lon="7.23353">
        <ele>2058.236</ele>
        <time>2020-06-29T08:47:41Z</time>
      </trkpt>
      <trkpt lat="44.13879" lon="7.23327">
        <ele>2052.232</ele>
        <time>2020-06-29T08:47:57Z</time>
      </trkpt>
      <trkpt lat="44.13879" lon="7.23302">
        <ele>2052.442</ele>
        <time>2020-06-29T08:48:12Z</time>
      </trkpt>
      <trkpt lat="44.13883" lon="7.23292">
        <ele>2053.022</ele>
        <time>2020-06-29T08:48:28Z</time>
      </trkpt>
      <trkpt lat="44.139" lon="7.23292">
        <ele>2053.201</ele>
        <time>2020-06-29T08:48:43Z</time>
      </trkpt>
      <trkpt lat="44.13915" lon="7.23286">
        <ele>2053.743</ele>
        <time>2020-06-29T08:48:59Z</time>
      </trkpt>
      <trkpt lat="44.13923" lon="7.23282">
        <ele>2052.389</ele>
        <time>2020-06-29T08:49:15Z</time>
      </trkpt>
      <trkpt lat="44.13936" lon="7.23265">
        <ele>2052.184</ele>
        <time>2020-06-29T08:49:31Z</time>
      </trkpt>
      <trkpt lat="44.13945" lon="7.23251">
        <ele>2054.845</ele>
        <time>2020-06-29T08:49:46Z</time>
      </trkpt>
      <trkpt lat="44.13958" lon="7.23239">
        <ele>2051.125</ele>
        <time>2020-06-29T08:50:02Z</time>
      </trkpt>
      <trkpt lat="44.13973" lon="7.23217">
        <ele>2048.906</ele>
        <time>2020-06-29T08:50:18Z</time>
      </trkpt>
      <trkpt lat="44.13989" lon="7.23206">
        <ele>2043.607</ele>
        <time>2020-06-29T08:50:34Z</time>
      </trkpt>
      <trkpt lat="44.1399" lon="7.23205">
        <ele>2043.04</ele>
        <time>2020-06-29T08:50:50Z</time>
      </trkpt>
      <trkpt lat="44.1399" lon="7.23205">
        <ele>2043.04</ele>
        <time>2020-06-29T08:51:05Z</time>
      </trkpt>
      <trkpt lat="44.1399" lon="7.23205">
        <ele>2043.04</ele>
        <time>2020-06-29T08:51:20Z</time>
      </trkpt>
      <trkpt lat="44.13993" lon="7.23199">
        <ele>2044.084</ele>
        <time>2020-06-29T08:51:36Z</time>
      </trkpt>
      <trkpt lat="44.14005" lon="7.23186">
        <ele>2040.447</ele>
        <time>2020-06-29T08:51:52Z</time>
      </trkpt>
      <trkpt lat="44.14021" lon="7.2316">
        <ele>2044.103</ele>
        <time>2020-06-29T08:52:08Z</time>
      </trkpt>
      <trkpt lat="44.14034" lon="7.23153">
        <ele>2046.601</ele>
        <time>2020-06-29T08:52:24Z</time>
      </trkpt>
      <trkpt lat="44.14049" lon="7.23136">
        <ele>2038.263</ele>
        <time>2020-06-29T08:52:39Z</time>
      </trkpt>
      <trkpt lat="44.14069" lon="7.2312">
        <ele>2036.219</ele>
        <time>2020-06-29T08:52:55Z</time>
      </trkpt>
      <trkpt lat="44.14085" lon="7.23107">
        <ele>2036.143</ele>
        <time>2020-06-29T08:53:11Z</time>
      </trkpt>
      <trkpt lat="44.14094" lon="7.23092">
        <ele>2029.168</ele>
        <time>2020-06-29T08:53:26Z</time>
      </trkpt>
      <trkpt lat="44.14106" lon="7.23076">
        <ele>2027.763</ele>
        <time>2020-06-29T08:53:42Z</time>
      </trkpt>
      <trkpt lat="44.14117" lon="7.23058">
        <ele>2025.751</ele>
        <time>2020-06-29T08:53:57Z</time>
      </trkpt>
      <trkpt lat="44.14128" lon="7.23041">
        <ele>2016.167</ele>
        <time>2020-06-29T08:54:13Z</time>
      </trkpt>
      <trkpt lat="44.1413" lon="7.23019">
        <ele>2014.581</ele>
        <time>2020-06-29T08:54:29Z</time>
      </trkpt>
      <trkpt lat="44.1413" lon="7.2301">
        <ele>2011.257</ele>
        <time>2020-06-29T08:54:45Z</time>
      </trkpt>
      <trkpt lat="44.1413" lon="7.23009">
        <ele>2011.412</ele>
        <time>2020-06-29T08:55:01Z</time>
      </trkpt>
      <trkpt lat="44.14126" lon="7.22993">
        <ele>2010.248</ele>
        <time>2020-06-29T08:55:17Z</time>
      </trkpt>
      <trkpt lat="44.14118" lon="7.22972">
        <ele>2005.723</ele>
        <time>2020-06-29T08:55:32Z</time>
      </trkpt>
      <trkpt lat="44.14116" lon="7.22964">
        <ele>2006.706</ele>
        <time>2020-06-29T08:55:47Z</time>
      </trkpt>
      <trkpt lat="44.14116" lon="7.22964">
        <ele>2006.706</ele>
        <time>2020-06-29T08:56:03Z</time>
      </trkpt>
      <trkpt lat="44.14114" lon="7.2296">
        <ele>2005.746</ele>
        <time>2020-06-29T08:56:19Z</time>
      </trkpt>
      <trkpt lat="44.14115" lon="7.22958">
        <ele>2005.451</ele>
        <time>2020-06-29T08:56:35Z</time>
      </trkpt>
      <trkpt lat="44.14115" lon="7.22955">
        <ele>2005.735</ele>
        <time>2020-06-29T08:56:50Z</time>
      </trkpt>
      <trkpt lat="44.14115" lon="7.22949">
        <ele>2005.712</ele>
        <time>2020-06-29T08:57:06Z</time>
      </trkpt>
      <trkpt lat="44.14113" lon="7.22925">
        <ele>2002.717</ele>
        <time>2020-06-29T08:57:22Z</time>
      </trkpt>
      <trkpt lat="44.14101" lon="7.22922">
        <ele>2006.626</ele>
        <time>2020-06-29T08:57:38Z</time>
      </trkpt>
      <trkpt lat="44.14092" lon="7.22904">
        <ele>2015.502</ele>
        <time>2020-06-29T08:57:53Z</time>
      </trkpt>
      <trkpt lat="44.14085" lon="7.22877">
        <ele>2012.97</ele>
        <time>2020-06-29T08:58:09Z</time>
      </trkpt>
      <trkpt lat="44.14077" lon="7.2285">
        <ele>2009.337</ele>
        <time>2020-06-29T08:58:25Z</time>
      </trkpt>
      <trkpt lat="44.14066" lon="7.22827">
        <ele>2007.491</ele>
        <time>2020-06-29T08:58:41Z</time>
      </trkpt>
      <trkpt lat="44.14058" lon="7.22806">
        <ele>2012.956</ele>
        <time>2020-06-29T08:58:57Z</time>
      </trkpt>
      <trkpt lat="44.14053" lon="7.22779">
        <ele>2014.054</ele>
        <time>2020-06-29T08:59:13Z</time>
      </trkpt>
      <trkpt lat="44.1406" lon="7.22746">
        <ele>2008.884</ele>
        <time>2020-06-29T08:59:28Z</time>
      </trkpt>
      <trkpt lat="44.14064" lon="7.22716">
        <ele>2003.268</ele>
        <time>2020-06-29T08:59:44Z</time>
      </trkpt>
      <trkpt lat="44.14068" lon="7.22692">
        <ele>2000.189</ele>
        <time>2020-06-29T09:00:00Z</time>
      </trkpt>
      <trkpt lat="44.14064" lon="7.22663">
        <ele>1995.964</ele>
        <time>2020-06-29T09:00:16Z</time>
      </trkpt>
      <trkpt lat="44.14063" lon="7.22642">
        <ele>1996.57</ele>
        <time>2020-06-29T09:00:32Z</time>
      </trkpt>
      <trkpt lat="44.14063" lon="7.22615">
        <ele>1996.963</ele>
        <time>2020-06-29T09:00:48Z</time>
      </trkpt>
      <trkpt lat="44.14067" lon="7.22585">
        <ele>1992.148</ele>
        <time>2020-06-29T09:01:04Z</time>
      </trkpt>
      <trkpt lat="44.14068" lon="7.22557">
        <ele>1973.495</ele>
        <time>2020-06-29T09:01:20Z</time>
      </trkpt>
      <trkpt lat="44.14069" lon="7.22539">
        <ele>1971.488</ele>
        <time>2020-06-29T09:01:35Z</time>
      </trkpt>
      <trkpt lat="44.14078" lon="7.22525">
        <ele>1972.468</ele>
        <time>2020-06-29T09:01:51Z</time>
      </trkpt>
      <trkpt lat="44.14081" lon="7.22498">
        <ele>1970.385</ele>
        <time>2020-06-29T09:02:06Z</time>
      </trkpt>
      <trkpt lat="44.14092" lon="7.22473">
        <ele>1968.015</ele>
        <time>2020-06-29T09:02:22Z</time>
      </trkpt>
      <trkpt lat="44.14096" lon="7.22451">
        <ele>1969.394</ele>
        <time>2020-06-29T09:02:38Z</time>
      </trkpt>
      <trkpt lat="44.14092" lon="7.2243">
        <ele>1970.561</ele>
        <time>2020-06-29T09:02:53Z</time>
      </trkpt>
      <trkpt lat="44.14083" lon="7.22407">
        <ele>1973.694</ele>
        <time>2020-06-29T09:03:09Z</time>
      </trkpt>
      <trkpt lat="44.14073" lon="7.22382">
        <ele>1976.313</ele>
        <time>2020-06-29T09:03:25Z</time>
      </trkpt>
      <trkpt lat="44.14061" lon="7.2236">
        <ele>1979.551</ele>
        <time>2020-06-29T09:03:41Z</time>
      </trkpt>
      <trkpt lat="44.14049" lon="7.22343">
        <ele>1984.305</ele>
        <time>2020-06-29T09:03:56Z</time>
      </trkpt>
      <trkpt lat="44.14034" lon="7.22325">
        <ele>1990.382</ele>
        <time>2020-06-29T09:04:12Z</time>
      </trkpt>
      <trkpt lat="44.14025" lon="7.22305">
        <ele>1999.924</ele>
        <time>2020-06-29T09:04:27Z</time>
      </trkpt>
      <trkpt lat="44.14018" lon="7.22284">
        <ele>2004.719</ele>
        <time>2020-06-29T09:04:43Z</time>
      </trkpt>
      <trkpt lat="44.14007" lon="7.22258">
        <ele>1999.931</ele>
        <time>2020-06-29T09:04:58Z</time>
      </trkpt>
      <trkpt lat="44.14011" lon="7.22218">
        <ele>1978.671</ele>
        <time>2020-06-29T09:05:14Z</time>
      </trkpt>
      <trkpt lat="44.14014" lon="7.22191">
        <ele>1960.489</ele>
        <time>2020-06-29T09:05:30Z</time>
      </trkpt>
      <trkpt lat="44.14025" lon="7.22169">
        <ele>1957.482</ele>
        <time>2020-06-29T09:05:45Z</time>
      </trkpt>
      <trkpt lat="44.14035" lon="7.22148">
        <ele>1954.208</ele>
        <time>2020-06-29T09:06:00Z</time>
      </trkpt>
      <trkpt lat="44.14042" lon="7.22125">
        <ele>1945.877</ele>
        <time>2020-06-29T09:06:16Z</time>
      </trkpt>
      <trkpt lat="44.14048" lon="7.221">
        <ele>1939.898</ele>
        <time>2020-06-29T09:06:31Z</time>
      </trkpt>
      <trkpt lat="44.14049" lon="7.22078">
        <ele>1934.972</ele>
        <time>2020-06-29T09:06:47Z</time>
      </trkpt>
      <trkpt lat="44.14044" lon="7.22056">
        <ele>1935.005</ele>
        <time>2020-06-29T09:07:02Z</time>
      </trkpt>
      <trkpt lat="44.14043" lon="7.22027">
        <ele>1932.086</ele>
        <time>2020-06-29T09:07:18Z</time>
      </trkpt>
      <trkpt lat="44.14047" lon="7.21992">
        <ele>1934.604</ele>
        <time>2020-06-29T09:07:34Z</time>
      </trkpt>
      <trkpt lat="44.14051" lon="7.21965">
        <ele>1932.575</ele>
        <time>2020-06-29T09:07:50Z</time>
      </trkpt>
      <trkpt lat="44.1406" lon="7.21941">
        <ele>1934.022</ele>
        <time>2020-06-29T09:08:06Z</time>
      </trkpt>
      <trkpt lat="44.14069" lon="7.21912">
        <ele>1933.194</ele>
        <time>2020-06-29T09:08:21Z</time>
      </trkpt>
      <trkpt lat="44.1408" lon="7.2189">
        <ele>1934.094</ele>
        <time>2020-06-29T09:08:37Z</time>
      </trkpt>
      <trkpt lat="44.14092" lon="7.21866">
        <ele>1930.01</ele>
        <time>2020-06-29T09:08:53Z</time>
      </trkpt>
      <trkpt lat="44.14096" lon="7.21839">
        <ele>1927.549</ele>
        <time>2020-06-29T09:09:08Z</time>
      </trkpt>
      <trkpt lat="44.14101" lon="7.21814">
        <ele>1926.789</ele>
        <time>2020-06-29T09:09:23Z</time>
      </trkpt>
      <trkpt lat="44.14102" lon="7.21784">
        <ele>1928.167</ele>
        <time>2020-06-29T09:09:39Z</time>
      </trkpt>
      <trkpt lat="44.14107" lon="7.2176">
        <ele>1928.455</ele>
        <time>2020-06-29T09:09:54Z</time>
      </trkpt>
      <trkpt lat="44.14107" lon="7.21736">
        <ele>1927.055</ele>
        <time>2020-06-29T09:10:10Z</time>
      </trkpt>
      <trkpt lat="44.14103" lon="7.21714">
        <ele>1924.321</ele>
        <time>2020-06-29T09:10:25Z</time>
      </trkpt>
      <trkpt lat="44.14107" lon="7.21714">
        <ele>1923.7</ele>
        <time>2020-06-29T09:10:41Z</time>
      </trkpt>
      <trkpt lat="44.14107" lon="7.21714">
        <ele>1923.7</ele>
        <time>2020-06-29T09:10:57Z</time>
      </trkpt>
      <trkpt lat="44.14108" lon="7.21701">
        <ele>1924.819</ele>
        <time>2020-06-29T09:11:13Z</time>
      </trkpt>
      <trkpt lat="44.14114" lon="7.21686">
        <ele>1916.281</ele>
        <time>2020-06-29T09:11:28Z</time>
      </trkpt>
      <trkpt lat="44.14121" lon="7.21662">
        <ele>1915.5</ele>
        <time>2020-06-29T09:11:43Z</time>
      </trkpt>
      <trkpt lat="44.1413" lon="7.21643">
        <ele>1912.209</ele>
        <time>2020-06-29T09:11:59Z</time>
      </trkpt>
      <trkpt lat="44.14132" lon="7.2162">
        <ele>1910.428</ele>
        <time>2020-06-29T09:12:15Z</time>
      </trkpt>
      <trkpt lat="44.14128" lon="7.2161">
        <ele>1908.335</ele>
        <time>2020-06-29T09:12:30Z</time>
      </trkpt>
      <trkpt lat="44.14131" lon="7.21589">
        <ele>1901.561</ele>
        <time>2020-06-29T09:12:46Z</time>
      </trkpt>
      <trkpt lat="44.1414" lon="7.21568">
        <ele>1909.082</ele>
        <time>2020-06-29T09:13:01Z</time>
      </trkpt>
      <trkpt lat="44.14137" lon="7.21549">
        <ele>1910.492</ele>
        <time>2020-06-29T09:13:17Z</time>
      </trkpt>
      <trkpt lat="44.14134" lon="7.21532">
        <ele>1912.069</ele>
        <time>2020-06-29T09:13:33Z</time>
      </trkpt>
      <trkpt lat="44.14126" lon="7.21505">
        <ele>1917.163</ele>
        <time>2020-06-29T09:13:48Z</time>
      </trkpt>
      <trkpt lat="44.14138" lon="7.2148">
        <ele>1913.302</ele>
        <time>2020-06-29T09:14:04Z</time>
      </trkpt>
      <trkpt lat="44.14141" lon="7.21452">
        <ele>1908.754</ele>
        <time>2020-06-29T09:14:20Z</time>
      </trkpt>
      <trkpt lat="44.14155" lon="7.21432">
        <ele>1906.484</ele>
        <time>2020-06-29T09:14:36Z</time>
      </trkpt>
      <trkpt lat="44.14169" lon="7.21406">
        <ele>1904.954</ele>
        <time>2020-06-29T09:14:52Z</time>
      </trkpt>
      <trkpt lat="44.14176" lon="7.21381">
        <ele>1900.689</ele>
        <time>2020-06-29T09:15:08Z</time>
      </trkpt>
      <trkpt lat="44.1418" lon="7.21363">
        <ele>1896.454</ele>
        <time>2020-06-29T09:15:23Z</time>
      </trkpt>
      <trkpt lat="44.14178" lon="7.21332">
        <ele>1894.911</ele>
        <time>2020-06-29T09:15:39Z</time>
      </trkpt>
      <trkpt lat="44.1418" lon="7.21309">
        <ele>1895.926</ele>
        <time>2020-06-29T09:15:55Z</time>
      </trkpt>
      <trkpt lat="44.14182" lon="7.21284">
        <ele>1891.994</ele>
        <time>2020-06-29T09:16:11Z</time>
      </trkpt>
      <trkpt lat="44.14181" lon="7.21278">
        <ele>1891.563</ele>
        <time>2020-06-29T09:16:26Z</time>
      </trkpt>
      <trkpt lat="44.14181" lon="7.21278">
        <ele>1892.085</ele>
        <time>2020-06-29T09:16:42Z</time>
      </trkpt>
      <trkpt lat="44.14181" lon="7.21278">
        <ele>1892.085</ele>
        <time>2020-06-29T09:16:57Z</time>
      </trkpt>
      <trkpt lat="44.14177" lon="7.21273">
        <ele>1890.557</ele>
        <time>2020-06-29T09:17:12Z</time>
      </trkpt>
      <trkpt lat="44.14169" lon="7.21252">
        <ele>1892.295</ele>
        <time>2020-06-29T09:17:28Z</time>
      </trkpt>
      <trkpt lat="44.14163" lon="7.21229">
        <ele>1896.92</ele>
        <time>2020-06-29T09:17:44Z</time>
      </trkpt>
      <trkpt lat="44.1417" lon="7.21211">
        <ele>1895.216</ele>
        <time>2020-06-29T09:18:00Z</time>
      </trkpt>
      <trkpt lat="44.14182" lon="7.21193">
        <ele>1894.856</ele>
        <time>2020-06-29T09:18:15Z</time>
      </trkpt>
      <trkpt lat="44.14197" lon="7.21182">
        <ele>1897.136</ele>
        <time>2020-06-29T09:18:30Z</time>
      </trkpt>
      <trkpt lat="44.14215" lon="7.21174">
        <ele>1895.802</ele>
        <time>2020-06-29T09:18:46Z</time>
      </trkpt>
      <trkpt lat="44.14228" lon="7.21163">
        <ele>1897.338</ele>
        <time>2020-06-29T09:19:01Z</time>
      </trkpt>
      <trkpt lat="44.14236" lon="7.21147">
        <ele>1895.196</ele>
        <time>2020-06-29T09:19:16Z</time>
      </trkpt>
      <trkpt lat="44.14232" lon="7.21132">
        <ele>1894.765</ele>
        <time>2020-06-29T09:19:32Z</time>
      </trkpt>
      <trkpt lat="44.14226" lon="7.21134">
        <ele>1896.157</ele>
        <time>2020-06-29T09:19:48Z</time>
      </trkpt>
      <trkpt lat="44.14219" lon="7.21128">
        <ele>1897.997</ele>
        <time>2020-06-29T09:20:03Z</time>
      </trkpt>
      <trkpt lat="44.14219" lon="7.21127">
        <ele>1897.79</ele>
        <time>2020-06-29T09:20:18Z</time>
      </trkpt>
      <trkpt lat="44.14218" lon="7.21125">
        <ele>1898.618</ele>
        <time>2020-06-29T09:20:34Z</time>
      </trkpt>
      <trkpt lat="44.14218" lon="7.21125">
        <ele>1898.618</ele>
        <time>2020-06-29T09:20:50Z</time>
      </trkpt>
      <trkpt lat="44.14218" lon="7.21125">
        <ele>1898.618</ele>
        <time>2020-06-29T09:21:05Z</time>
      </trkpt>
      <trkpt lat="44.14218" lon="7.21125">
        <ele>1898.618</ele>
        <time>2020-06-29T09:21:21Z</time>
      </trkpt>
      <trkpt lat="44.14218" lon="7.21125">
        <ele>1898.618</ele>
        <time>2020-06-29T09:21:37Z</time>
      </trkpt>
      <trkpt lat="44.14218" lon="7.21125">
        <ele>1898.618</ele>
        <time>2020-06-29T09:21:52Z</time>
      </trkpt>
      <trkpt lat="44.14218" lon="7.21125">
        <ele>1898.618</ele>
        <time>2020-06-29T09:22:08Z</time>
      </trkpt>
      <trkpt lat="44.14218" lon="7.21125">
        <ele>1898.618</ele>
        <time>2020-06-29T09:22:24Z</time>
      </trkpt>
      <trkpt lat="44.14218" lon="7.21125">
        <ele>1898.618</ele>
        <time>2020-06-29T09:22:40Z</time>
      </trkpt>
      <trkpt lat="44.14218" lon="7.21125">
        <ele>1898.618</ele>
        <time>2020-06-29T09:22:55Z</time>
      </trkpt>
      <trkpt lat="44.14218" lon="7.21125">
        <ele>1898.618</ele>
        <time>2020-06-29T09:23:11Z</time>
      </trkpt>
      <trkpt lat="44.14218" lon="7.21125">
        <ele>1898.618</ele>
        <time>2020-06-29T09:23:27Z</time>
      </trkpt>
      <trkpt lat="44.14218" lon="7.21125">
        <ele>1898.618</ele>
        <time>2020-06-29T09:23:43Z</time>
      </trkpt>
      <trkpt lat="44.14218" lon="7.21125">
        <ele>1898.618</ele>
        <time>2020-06-29T09:23:59Z</time>
      </trkpt>
      <trkpt lat="44.14218" lon="7.21125">
        <ele>1898.618</ele>
        <time>2020-06-29T09:24:15Z</time>
      </trkpt>
      <trkpt lat="44.14218" lon="7.21125">
        <ele>1898.618</ele>
        <time>2020-06-29T09:24:31Z</time>
      </trkpt>
      <trkpt lat="44.14218" lon="7.21125">
        <ele>1898.618</ele>
        <time>2020-06-29T09:24:46Z</time>
      </trkpt>
      <trkpt lat="44.14217" lon="7.21125">
        <ele>1900.015</ele>
        <time>2020-06-29T09:25:02Z</time>
      </trkpt>
      <trkpt lat="44.14217" lon="7.21125">
        <ele>1900.015</ele>
        <time>2020-06-29T09:25:18Z</time>
      </trkpt>
      <trkpt lat="44.14217" lon="7.21125">
        <ele>1900.015</ele>
        <time>2020-06-29T09:25:33Z</time>
      </trkpt>
      <trkpt lat="44.14217" lon="7.21125">
        <ele>1900.015</ele>
        <time>2020-06-29T09:25:49Z</time>
      </trkpt>
      <trkpt lat="44.14217" lon="7.21125">
        <ele>1900.015</ele>
        <time>2020-06-29T09:26:04Z</time>
      </trkpt>
      <trkpt lat="44.14217" lon="7.21125">
        <ele>1900.015</ele>
        <time>2020-06-29T09:26:19Z</time>
      </trkpt>
      <trkpt lat="44.14217" lon="7.21125">
        <ele>1900.015</ele>
        <time>2020-06-29T09:26:35Z</time>
      </trkpt>
      <trkpt lat="44.14217" lon="7.21125">
        <ele>1899.847</ele>
        <time>2020-06-29T09:26:50Z</time>
      </trkpt>
      <trkpt lat="44.14219" lon="7.21125">
        <ele>1900.802</ele>
        <time>2020-06-29T09:27:06Z</time>
      </trkpt>
      <trkpt lat="44.14219" lon="7.21125">
        <ele>1900.802</ele>
        <time>2020-06-29T09:27:21Z</time>
      </trkpt>
      <trkpt lat="44.14219" lon="7.21125">
        <ele>1900.802</ele>
        <time>2020-06-29T09:27:37Z</time>
      </trkpt>
      <trkpt lat="44.14219" lon="7.21125">
        <ele>1900.802</ele>
        <time>2020-06-29T09:27:53Z</time>
      </trkpt>
      <trkpt lat="44.14219" lon="7.21125">
        <ele>1900.802</ele>
        <time>2020-06-29T09:28:08Z</time>
      </trkpt>
      <trkpt lat="44.14228" lon="7.21126">
        <ele>1900.676</ele>
        <time>2020-06-29T09:28:24Z</time>
      </trkpt>
      <trkpt lat="44.14228" lon="7.2115">
        <ele>1901.438</ele>
        <time>2020-06-29T09:28:40Z</time>
      </trkpt>
      <trkpt lat="44.1422" lon="7.21167">
        <ele>1905.497</ele>
        <time>2020-06-29T09:28:56Z</time>
      </trkpt>
      <trkpt lat="44.14219" lon="7.21168">
        <ele>1904.808</ele>
        <time>2020-06-29T09:29:12Z</time>
      </trkpt>
      <trkpt lat="44.14213" lon="7.21176">
        <ele>1904.319</ele>
        <time>2020-06-29T09:29:28Z</time>
      </trkpt>
      <trkpt lat="44.14196" lon="7.2119">
        <ele>1902.88</ele>
        <time>2020-06-29T09:29:44Z</time>
      </trkpt>
      <trkpt lat="44.14179" lon="7.21199">
        <ele>1901.764</ele>
        <time>2020-06-29T09:30:00Z</time>
      </trkpt>
      <trkpt lat="44.1417" lon="7.21212">
        <ele>1899.34</ele>
        <time>2020-06-29T09:30:15Z</time>
      </trkpt>
      <trkpt lat="44.1416" lon="7.21213">
        <ele>1896.941</ele>
        <time>2020-06-29T09:30:31Z</time>
      </trkpt>
      <trkpt lat="44.14147" lon="7.21199">
        <ele>1897.13</ele>
        <time>2020-06-29T09:30:46Z</time>
      </trkpt>
      <trkpt lat="44.14141" lon="7.21182">
        <ele>1901.015</ele>
        <time>2020-06-29T09:31:02Z</time>
      </trkpt>
      <trkpt lat="44.1414" lon="7.21173">
        <ele>1903.165</ele>
        <time>2020-06-29T09:31:17Z</time>
      </trkpt>
      <trkpt lat="44.14136" lon="7.21167">
        <ele>1901.705</ele>
        <time>2020-06-29T09:31:33Z</time>
      </trkpt>
      <trkpt lat="44.14131" lon="7.21162">
        <ele>1903.611</ele>
        <time>2020-06-29T09:31:49Z</time>
      </trkpt>
      <trkpt lat="44.1412" lon="7.21156">
        <ele>1905.973</ele>
        <time>2020-06-29T09:32:05Z</time>
      </trkpt>
      <trkpt lat="44.14115" lon="7.21139">
        <ele>1908.912</ele>
        <time>2020-06-29T09:32:21Z</time>
      </trkpt>
      <trkpt lat="44.14114" lon="7.21138">
        <ele>1909.421</ele>
        <time>2020-06-29T09:32:36Z</time>
      </trkpt>
      <trkpt lat="44.14108" lon="7.21113">
        <ele>1914.58</ele>
        <time>2020-06-29T09:32:52Z</time>
      </trkpt>
      <trkpt lat="44.14102" lon="7.21099">
        <ele>1919.636</ele>
        <time>2020-06-29T09:33:07Z</time>
      </trkpt>
      <trkpt lat="44.14097" lon="7.21083">
        <ele>1927.792</ele>
        <time>2020-06-29T09:33:23Z</time>
      </trkpt>
      <trkpt lat="44.14093" lon="7.2108">
        <ele>1928.928</ele>
        <time>2020-06-29T09:33:38Z</time>
      </trkpt>
      <trkpt lat="44.14092" lon="7.21076">
        <ele>1929.903</ele>
        <time>2020-06-29T09:33:53Z</time>
      </trkpt>
      <trkpt lat="44.14083" lon="7.21051">
        <ele>1937.355</ele>
        <time>2020-06-29T09:34:08Z</time>
      </trkpt>
      <trkpt lat="44.14076" lon="7.21042">
        <ele>1938.048</ele>
        <time>2020-06-29T09:34:24Z</time>
      </trkpt>
      <trkpt lat="44.1407" lon="7.21037">
        <ele>1940.788</ele>
        <time>2020-06-29T09:34:39Z</time>
      </trkpt>
      <trkpt lat="44.14058" lon="7.2102">
        <ele>1945.156</ele>
        <time>2020-06-29T09:34:55Z</time>
      </trkpt>
      <trkpt lat="44.14048" lon="7.2101">
        <ele>1945.576</ele>
        <time>2020-06-29T09:35:11Z</time>
      </trkpt>
      <trkpt lat="44.14039" lon="7.21003">
        <ele>1950.53</ele>
        <time>2020-06-29T09:35:26Z</time>
      </trkpt>
      <trkpt lat="44.14035" lon="7.20995">
        <ele>1956.634</ele>
        <time>2020-06-29T09:35:42Z</time>
      </trkpt>
      <trkpt lat="44.14038" lon="7.21001">
        <ele>1958.887</ele>
        <time>2020-06-29T09:35:57Z</time>
      </trkpt>
      <trkpt lat="44.14026" lon="7.21014">
        <ele>1958.133</ele>
        <time>2020-06-29T09:36:13Z</time>
      </trkpt>
      <trkpt lat="44.14018" lon="7.21006">
        <ele>1953.794</ele>
        <time>2020-06-29T09:36:29Z</time>
      </trkpt>
      <trkpt lat="44.1401" lon="7.21005">
        <ele>1955.191</ele>
        <time>2020-06-29T09:36:44Z</time>
      </trkpt>
      <trkpt lat="44.14" lon="7.20999">
        <ele>1963.014</ele>
        <time>2020-06-29T09:36:59Z</time>
      </trkpt>
      <trkpt lat="44.13999" lon="7.2098">
        <ele>1964.345</ele>
        <time>2020-06-29T09:37:15Z</time>
      </trkpt>
      <trkpt lat="44.13994" lon="7.20979">
        <ele>1965.852</ele>
        <time>2020-06-29T09:37:31Z</time>
      </trkpt>
      <trkpt lat="44.13978" lon="7.20981">
        <ele>1967.635</ele>
        <time>2020-06-29T09:37:47Z</time>
      </trkpt>
      <trkpt lat="44.13966" lon="7.20964">
        <ele>1971.52</ele>
        <time>2020-06-29T09:38:03Z</time>
      </trkpt>
      <trkpt lat="44.13957" lon="7.2096">
        <ele>1972.996</ele>
        <time>2020-06-29T09:38:18Z</time>
      </trkpt>
      <trkpt lat="44.13957" lon="7.20959">
        <ele>1972.651</ele>
        <time>2020-06-29T09:38:33Z</time>
      </trkpt>
      <trkpt lat="44.13968" lon="7.20954">
        <ele>1973.713</ele>
        <time>2020-06-29T09:38:49Z</time>
      </trkpt>
      <trkpt lat="44.13959" lon="7.20947">
        <ele>1966.605</ele>
        <time>2020-06-29T09:39:05Z</time>
      </trkpt>
      <trkpt lat="44.1395" lon="7.20938">
        <ele>1964.775</ele>
        <time>2020-06-29T09:39:20Z</time>
      </trkpt>
      <trkpt lat="44.13936" lon="7.20932">
        <ele>1966.675</ele>
        <time>2020-06-29T09:39:35Z</time>
      </trkpt>
      <trkpt lat="44.1393" lon="7.20924">
        <ele>1971.424</ele>
        <time>2020-06-29T09:39:51Z</time>
      </trkpt>
      <trkpt lat="44.13918" lon="7.2091">
        <ele>1978.534</ele>
        <time>2020-06-29T09:40:07Z</time>
      </trkpt>
      <trkpt lat="44.13914" lon="7.20895">
        <ele>1982.758</ele>
        <time>2020-06-29T09:40:23Z</time>
      </trkpt>
      <trkpt lat="44.13911" lon="7.20883">
        <ele>1981.042</ele>
        <time>2020-06-29T09:40:38Z</time>
      </trkpt>
      <trkpt lat="44.13908" lon="7.20874">
        <ele>1981.631</ele>
        <time>2020-06-29T09:40:54Z</time>
      </trkpt>
      <trkpt lat="44.13905" lon="7.20862">
        <ele>1981.86</ele>
        <time>2020-06-29T09:41:10Z</time>
      </trkpt>
      <trkpt lat="44.1389" lon="7.20841">
        <ele>1983.162</ele>
        <time>2020-06-29T09:41:25Z</time>
      </trkpt>
      <trkpt lat="44.13882" lon="7.20831">
        <ele>1982.958</ele>
        <time>2020-06-29T09:41:40Z</time>
      </trkpt>
      <trkpt lat="44.1387" lon="7.20818">
        <ele>1981.294</ele>
        <time>2020-06-29T09:41:56Z</time>
      </trkpt>
      <trkpt lat="44.13863" lon="7.20798">
        <ele>1983.169</ele>
        <time>2020-06-29T09:42:12Z</time>
      </trkpt>
      <trkpt lat="44.13867" lon="7.20807">
        <ele>1982.793</ele>
        <time>2020-06-29T09:42:28Z</time>
      </trkpt>
      <trkpt lat="44.13867" lon="7.20811">
        <ele>1982.68</ele>
        <time>2020-06-29T09:42:43Z</time>
      </trkpt>
      <trkpt lat="44.13864" lon="7.20809">
        <ele>1982.908</ele>
        <time>2020-06-29T09:42:58Z</time>
      </trkpt>
      <trkpt lat="44.13851" lon="7.20803">
        <ele>1985.672</ele>
        <time>2020-06-29T09:43:14Z</time>
      </trkpt>
      <trkpt lat="44.13837" lon="7.20802">
        <ele>1991.341</ele>
        <time>2020-06-29T09:43:29Z</time>
      </trkpt>
      <trkpt lat="44.13825" lon="7.20793">
        <ele>1997.474</ele>
        <time>2020-06-29T09:43:45Z</time>
      </trkpt>
      <trkpt lat="44.13813" lon="7.20782">
        <ele>1998.734</ele>
        <time>2020-06-29T09:44:01Z</time>
      </trkpt>
      <trkpt lat="44.13802" lon="7.20776">
        <ele>1997.403</ele>
        <time>2020-06-29T09:44:16Z</time>
      </trkpt>
      <trkpt lat="44.13795" lon="7.20774">
        <ele>1996.323</ele>
        <time>2020-06-29T09:44:32Z</time>
      </trkpt>
      <trkpt lat="44.13795" lon="7.20774">
        <ele>1996.323</ele>
        <time>2020-06-29T09:44:48Z</time>
      </trkpt>
      <trkpt lat="44.13795" lon="7.20774">
        <ele>1996.323</ele>
        <time>2020-06-29T09:45:03Z</time>
      </trkpt>
      <trkpt lat="44.13795" lon="7.20774">
        <ele>1996.323</ele>
        <time>2020-06-29T09:45:19Z</time>
      </trkpt>
      <trkpt lat="44.13777" lon="7.20766">
        <ele>1997.213</ele>
        <time>2020-06-29T09:45:35Z</time>
      </trkpt>
      <trkpt lat="44.13765" lon="7.20758">
        <ele>1995.677</ele>
        <time>2020-06-29T09:45:51Z</time>
      </trkpt>
      <trkpt lat="44.13762" lon="7.2075">
        <ele>1995.858</ele>
        <time>2020-06-29T09:46:06Z</time>
      </trkpt>
      <trkpt lat="44.13759" lon="7.20749">
        <ele>1995.461</ele>
        <time>2020-06-29T09:46:21Z</time>
      </trkpt>
      <trkpt lat="44.13759" lon="7.20748">
        <ele>1996.605</ele>
        <time>2020-06-29T09:46:37Z</time>
      </trkpt>
      <trkpt lat="44.13759" lon="7.20746">
        <ele>1996.286</ele>
        <time>2020-06-29T09:46:53Z</time>
      </trkpt>
      <trkpt lat="44.13765" lon="7.20737">
        <ele>1995.49</ele>
        <time>2020-06-29T09:47:08Z</time>
      </trkpt>
      <trkpt lat="44.13765" lon="7.20734">
        <ele>1996.068</ele>
        <time>2020-06-29T09:47:23Z</time>
      </trkpt>
      <trkpt lat="44.13765" lon="7.20734">
        <ele>1996.068</ele>
        <time>2020-06-29T09:47:39Z</time>
      </trkpt>
      <trkpt lat="44.13765" lon="7.20716">
        <ele>1997.998</ele>
        <time>2020-06-29T09:47:54Z</time>
      </trkpt>
      <trkpt lat="44.13765" lon="7.20716">
        <ele>1997.998</ele>
        <time>2020-06-29T09:48:10Z</time>
      </trkpt>
      <trkpt lat="44.13752" lon="7.20712">
        <ele>2002.5</ele>
        <time>2020-06-29T09:48:26Z</time>
      </trkpt>
      <trkpt lat="44.13743" lon="7.20702">
        <ele>2004.565</ele>
        <time>2020-06-29T09:48:42Z</time>
      </trkpt>
      <trkpt lat="44.13734" lon="7.20695">
        <ele>2006.302</ele>
        <time>2020-06-29T09:48:57Z</time>
      </trkpt>
      <trkpt lat="44.13722" lon="7.20703">
        <ele>2006.388</ele>
        <time>2020-06-29T09:49:13Z</time>
      </trkpt>
      <trkpt lat="44.13711" lon="7.20704">
        <ele>2006.445</ele>
        <time>2020-06-29T09:49:28Z</time>
      </trkpt>
      <trkpt lat="44.13705" lon="7.20697">
        <ele>2008.089</ele>
        <time>2020-06-29T09:49:44Z</time>
      </trkpt>
      <trkpt lat="44.13691" lon="7.20688">
        <ele>2012.641</ele>
        <time>2020-06-29T09:50:00Z</time>
      </trkpt>
      <trkpt lat="44.13681" lon="7.20686">
        <ele>2013.615</ele>
        <time>2020-06-29T09:50:16Z</time>
      </trkpt>
      <trkpt lat="44.13672" lon="7.20687">
        <ele>2015.263</ele>
        <time>2020-06-29T09:50:32Z</time>
      </trkpt>
      <trkpt lat="44.13664" lon="7.20682">
        <ele>2016.345</ele>
        <time>2020-06-29T09:50:47Z</time>
      </trkpt>
      <trkpt lat="44.13654" lon="7.20675">
        <ele>2018.82</ele>
        <time>2020-06-29T09:51:03Z</time>
      </trkpt>
      <trkpt lat="44.13642" lon="7.20661">
        <ele>2019.918</ele>
        <time>2020-06-29T09:51:19Z</time>
      </trkpt>
      <trkpt lat="44.13636" lon="7.20657">
        <ele>2021.719</ele>
        <time>2020-06-29T09:51:34Z</time>
      </trkpt>
      <trkpt lat="44.13624" lon="7.20644">
        <ele>2026.536</ele>
        <time>2020-06-29T09:51:49Z</time>
      </trkpt>
      <trkpt lat="44.13618" lon="7.20638">
        <ele>2027.39</ele>
        <time>2020-06-29T09:52:05Z</time>
      </trkpt>
      <trkpt lat="44.13609" lon="7.20633">
        <ele>2027.703</ele>
        <time>2020-06-29T09:52:20Z</time>
      </trkpt>
      <trkpt lat="44.13591" lon="7.20627">
        <ele>2028.971</ele>
        <time>2020-06-29T09:52:35Z</time>
      </trkpt>
      <trkpt lat="44.1358" lon="7.20616">
        <ele>2032.905</ele>
        <time>2020-06-29T09:52:51Z</time>
      </trkpt>
      <trkpt lat="44.1358" lon="7.20615">
        <ele>2033.013</ele>
        <time>2020-06-29T09:53:06Z</time>
      </trkpt>
      <trkpt lat="44.13558" lon="7.20595">
        <ele>2038.851</ele>
        <time>2020-06-29T09:53:21Z</time>
      </trkpt>
      <trkpt lat="44.13547" lon="7.20576">
        <ele>2037.868</ele>
        <time>2020-06-29T09:53:37Z</time>
      </trkpt>
      <trkpt lat="44.13532" lon="7.20565">
        <ele>2042.16</ele>
        <time>2020-06-29T09:53:53Z</time>
      </trkpt>
      <trkpt lat="44.13518" lon="7.20558">
        <ele>2042.439</ele>
        <time>2020-06-29T09:54:08Z</time>
      </trkpt>
      <trkpt lat="44.13502" lon="7.20563">
        <ele>2040.833</ele>
        <time>2020-06-29T09:54:24Z</time>
      </trkpt>
      <trkpt lat="44.13485" lon="7.20564">
        <ele>2036.465</ele>
        <time>2020-06-29T09:54:40Z</time>
      </trkpt>
      <trkpt lat="44.13469" lon="7.20562">
        <ele>2039.368</ele>
        <time>2020-06-29T09:54:55Z</time>
      </trkpt>
      <trkpt lat="44.13461" lon="7.20555">
        <ele>2037.892</ele>
        <time>2020-06-29T09:55:10Z</time>
      </trkpt>
      <trkpt lat="44.13452" lon="7.20552">
        <ele>2035.549</ele>
        <time>2020-06-29T09:55:25Z</time>
      </trkpt>
      <trkpt lat="44.13437" lon="7.20538">
        <ele>2034.311</ele>
        <time>2020-06-29T09:55:41Z</time>
      </trkpt>
      <trkpt lat="44.13425" lon="7.20531">
        <ele>2035.574</ele>
        <time>2020-06-29T09:55:56Z</time>
      </trkpt>
      <trkpt lat="44.13413" lon="7.20524">
        <ele>2032.587</ele>
        <time>2020-06-29T09:56:11Z</time>
      </trkpt>
      <trkpt lat="44.13407" lon="7.20519">
        <ele>2031.923</ele>
        <time>2020-06-29T09:56:26Z</time>
      </trkpt>
      <trkpt lat="44.13388" lon="7.20519">
        <ele>2030.891</ele>
        <time>2020-06-29T09:56:42Z</time>
      </trkpt>
      <trkpt lat="44.13379" lon="7.20514">
        <ele>2031.317</ele>
        <time>2020-06-29T09:56:58Z</time>
      </trkpt>
      <trkpt lat="44.13362" lon="7.20501">
        <ele>2035.214</ele>
        <time>2020-06-29T09:57:14Z</time>
      </trkpt>
      <trkpt lat="44.13354" lon="7.20496">
        <ele>2037.489</ele>
        <time>2020-06-29T09:57:30Z</time>
      </trkpt>
      <trkpt lat="44.13349" lon="7.20492">
        <ele>2039.265</ele>
        <time>2020-06-29T09:57:45Z</time>
      </trkpt>
      <trkpt lat="44.13342" lon="7.20491">
        <ele>2043.59</ele>
        <time>2020-06-29T09:58:01Z</time>
      </trkpt>
      <trkpt lat="44.13333" lon="7.20492">
        <ele>2043.906</ele>
        <time>2020-06-29T09:58:17Z</time>
      </trkpt>
      <trkpt lat="44.1332" lon="7.2049">
        <ele>2048.209</ele>
        <time>2020-06-29T09:58:32Z</time>
      </trkpt>
      <trkpt lat="44.13313" lon="7.20489">
        <ele>2047.576</ele>
        <time>2020-06-29T09:58:48Z</time>
      </trkpt>
      <trkpt lat="44.13297" lon="7.205">
        <ele>2050.29</ele>
        <time>2020-06-29T09:59:03Z</time>
      </trkpt>
      <trkpt lat="44.1329" lon="7.20503">
        <ele>2049.922</ele>
        <time>2020-06-29T09:59:19Z</time>
      </trkpt>
      <trkpt lat="44.13278" lon="7.20503">
        <ele>2052.138</ele>
        <time>2020-06-29T09:59:34Z</time>
      </trkpt>
      <trkpt lat="44.1327" lon="7.20505">
        <ele>2054.079</ele>
        <time>2020-06-29T09:59:50Z</time>
      </trkpt>
      <trkpt lat="44.13255" lon="7.20504">
        <ele>2055.532</ele>
        <time>2020-06-29T10:00:05Z</time>
      </trkpt>
      <trkpt lat="44.13241" lon="7.20517">
        <ele>2057.081</ele>
        <time>2020-06-29T10:00:21Z</time>
      </trkpt>
      <trkpt lat="44.13233" lon="7.20512">
        <ele>2058.986</ele>
        <time>2020-06-29T10:00:36Z</time>
      </trkpt>
      <trkpt lat="44.13221" lon="7.20512">
        <ele>2056.984</ele>
        <time>2020-06-29T10:00:52Z</time>
      </trkpt>
      <trkpt lat="44.1321" lon="7.20517">
        <ele>2058.572</ele>
        <time>2020-06-29T10:01:08Z</time>
      </trkpt>
      <trkpt lat="44.13198" lon="7.20504">
        <ele>2060.041</ele>
        <time>2020-06-29T10:01:23Z</time>
      </trkpt>
      <trkpt lat="44.13182" lon="7.20497">
        <ele>2066.981</ele>
        <time>2020-06-29T10:01:38Z</time>
      </trkpt>
      <trkpt lat="44.13175" lon="7.20497">
        <ele>2070.068</ele>
        <time>2020-06-29T10:01:54Z</time>
      </trkpt>
      <trkpt lat="44.13175" lon="7.20497">
        <ele>2070.068</ele>
        <time>2020-06-29T10:02:09Z</time>
      </trkpt>
      <trkpt lat="44.13173" lon="7.20496">
        <ele>2070.613</ele>
        <time>2020-06-29T10:02:25Z</time>
      </trkpt>
      <trkpt lat="44.13168" lon="7.20498">
        <ele>2072.694</ele>
        <time>2020-06-29T10:02:41Z</time>
      </trkpt>
      <trkpt lat="44.13168" lon="7.20498">
        <ele>2072.694</ele>
        <time>2020-06-29T10:02:56Z</time>
      </trkpt>
      <trkpt lat="44.13168" lon="7.20498">
        <ele>2072.694</ele>
        <time>2020-06-29T10:03:12Z</time>
      </trkpt>
      <trkpt lat="44.13165" lon="7.20502">
        <ele>2073.594</ele>
        <time>2020-06-29T10:03:27Z</time>
      </trkpt>
      <trkpt lat="44.13154" lon="7.205">
        <ele>2071.578</ele>
        <time>2020-06-29T10:03:43Z</time>
      </trkpt>
      <trkpt lat="44.13144" lon="7.20499">
        <ele>2073.988</ele>
        <time>2020-06-29T10:03:59Z</time>
      </trkpt>
      <trkpt lat="44.13144" lon="7.205">
        <ele>2074.072</ele>
        <time>2020-06-29T10:04:15Z</time>
      </trkpt>
      <trkpt lat="44.1314" lon="7.20507">
        <ele>2075.167</ele>
        <time>2020-06-29T10:04:30Z</time>
      </trkpt>
      <trkpt lat="44.13115" lon="7.20503">
        <ele>2076.216</ele>
        <time>2020-06-29T10:04:45Z</time>
      </trkpt>
      <trkpt lat="44.13105" lon="7.20501">
        <ele>2078.195</ele>
        <time>2020-06-29T10:05:01Z</time>
      </trkpt>
      <trkpt lat="44.13096" lon="7.20498">
        <ele>2084.716</ele>
        <time>2020-06-29T10:05:16Z</time>
      </trkpt>
      <trkpt lat="44.13088" lon="7.205">
        <ele>2085.248</ele>
        <time>2020-06-29T10:05:32Z</time>
      </trkpt>
      <trkpt lat="44.13083" lon="7.20505">
        <ele>2085.813</ele>
        <time>2020-06-29T10:05:48Z</time>
      </trkpt>
      <trkpt lat="44.13078" lon="7.20511">
        <ele>2086.822</ele>
        <time>2020-06-29T10:06:04Z</time>
      </trkpt>
      <trkpt lat="44.13054" lon="7.20522">
        <ele>2088.163</ele>
        <time>2020-06-29T10:06:19Z</time>
      </trkpt>
      <trkpt lat="44.13049" lon="7.20522">
        <ele>2091.57</ele>
        <time>2020-06-29T10:06:35Z</time>
      </trkpt>
      <trkpt lat="44.13038" lon="7.20509">
        <ele>2095.104</ele>
        <time>2020-06-29T10:06:51Z</time>
      </trkpt>
      <trkpt lat="44.13028" lon="7.2051">
        <ele>2096.57</ele>
        <time>2020-06-29T10:07:06Z</time>
      </trkpt>
      <trkpt lat="44.13018" lon="7.20509">
        <ele>2097.552</ele>
        <time>2020-06-29T10:07:22Z</time>
      </trkpt>
      <trkpt lat="44.1301" lon="7.20511">
        <ele>2098.602</ele>
        <time>2020-06-29T10:07:38Z</time>
      </trkpt>
      <trkpt lat="44.13004" lon="7.20511">
        <ele>2099.87</ele>
        <time>2020-06-29T10:07:54Z</time>
      </trkpt>
      <trkpt lat="44.12989" lon="7.20509">
        <ele>2100.395</ele>
        <time>2020-06-29T10:08:10Z</time>
      </trkpt>
      <trkpt lat="44.12975" lon="7.20496">
        <ele>2101.851</ele>
        <time>2020-06-29T10:08:26Z</time>
      </trkpt>
      <trkpt lat="44.12964" lon="7.20495">
        <ele>2106.599</ele>
        <time>2020-06-29T10:08:41Z</time>
      </trkpt>
      <trkpt lat="44.12961" lon="7.20492">
        <ele>2107.549</ele>
        <time>2020-06-29T10:08:57Z</time>
      </trkpt>
      <trkpt lat="44.1295" lon="7.20486">
        <ele>2111.114</ele>
        <time>2020-06-29T10:09:13Z</time>
      </trkpt>
      <trkpt lat="44.1294" lon="7.20478">
        <ele>2113.384</ele>
        <time>2020-06-29T10:09:29Z</time>
      </trkpt>
      <trkpt lat="44.12936" lon="7.20481">
        <ele>2114.437</ele>
        <time>2020-06-29T10:09:44Z</time>
      </trkpt>
      <trkpt lat="44.12929" lon="7.20483">
        <ele>2114.621</ele>
        <time>2020-06-29T10:10:00Z</time>
      </trkpt>
      <trkpt lat="44.12913" lon="7.20488">
        <ele>2119.331</ele>
        <time>2020-06-29T10:10:15Z</time>
      </trkpt>
      <trkpt lat="44.12901" lon="7.20487">
        <ele>2124.137</ele>
        <time>2020-06-29T10:10:31Z</time>
      </trkpt>
      <trkpt lat="44.12891" lon="7.20486">
        <ele>2121.694</ele>
        <time>2020-06-29T10:10:47Z</time>
      </trkpt>
      <trkpt lat="44.12885" lon="7.2049">
        <ele>2123.093</ele>
        <time>2020-06-29T10:11:03Z</time>
      </trkpt>
      <trkpt lat="44.12875" lon="7.20492">
        <ele>2124.547</ele>
        <time>2020-06-29T10:11:19Z</time>
      </trkpt>
      <trkpt lat="44.12853" lon="7.20504">
        <ele>2127.089</ele>
        <time>2020-06-29T10:11:35Z</time>
      </trkpt>
      <trkpt lat="44.12846" lon="7.20507">
        <ele>2123.499</ele>
        <time>2020-06-29T10:11:51Z</time>
      </trkpt>
      <trkpt lat="44.12835" lon="7.20507">
        <ele>2122.597</ele>
        <time>2020-06-29T10:12:07Z</time>
      </trkpt>
      <trkpt lat="44.12816" lon="7.20503">
        <ele>2122.115</ele>
        <time>2020-06-29T10:12:23Z</time>
      </trkpt>
      <trkpt lat="44.12804" lon="7.20511">
        <ele>2123.779</ele>
        <time>2020-06-29T10:12:38Z</time>
      </trkpt>
      <trkpt lat="44.12791" lon="7.20513">
        <ele>2124.024</ele>
        <time>2020-06-29T10:12:54Z</time>
      </trkpt>
      <trkpt lat="44.12775" lon="7.20509">
        <ele>2124.809</ele>
        <time>2020-06-29T10:13:10Z</time>
      </trkpt>
      <trkpt lat="44.12764" lon="7.20509">
        <ele>2125.882</ele>
        <time>2020-06-29T10:13:25Z</time>
      </trkpt>
      <trkpt lat="44.12758" lon="7.20512">
        <ele>2127.673</ele>
        <time>2020-06-29T10:13:41Z</time>
      </trkpt>
      <trkpt lat="44.12747" lon="7.20512">
        <ele>2127.582</ele>
        <time>2020-06-29T10:13:57Z</time>
      </trkpt>
      <trkpt lat="44.12747" lon="7.20512">
        <ele>2127.582</ele>
        <time>2020-06-29T10:14:12Z</time>
      </trkpt>
      <trkpt lat="44.12747" lon="7.20512">
        <ele>2127.582</ele>
        <time>2020-06-29T10:14:28Z</time>
      </trkpt>
      <trkpt lat="44.12742" lon="7.2051">
        <ele>2126.942</ele>
        <time>2020-06-29T10:14:43Z</time>
      </trkpt>
      <trkpt lat="44.12737" lon="7.20511">
        <ele>2125.84</ele>
        <time>2020-06-29T10:14:59Z</time>
      </trkpt>
      <trkpt lat="44.1273" lon="7.20509">
        <ele>2124.654</ele>
        <time>2020-06-29T10:15:14Z</time>
      </trkpt>
      <trkpt lat="44.1273" lon="7.20504">
        <ele>2125.712</ele>
        <time>2020-06-29T10:15:30Z</time>
      </trkpt>
      <trkpt lat="44.1273" lon="7.20504">
        <ele>2125.712</ele>
        <time>2020-06-29T10:15:46Z</time>
      </trkpt>
      <trkpt lat="44.12731" lon="7.20502">
        <ele>2124.452</ele>
        <time>2020-06-29T10:16:01Z</time>
      </trkpt>
      <trkpt lat="44.12731" lon="7.20502">
        <ele>2124.452</ele>
        <time>2020-06-29T10:16:17Z</time>
      </trkpt>
      <trkpt lat="44.12731" lon="7.20502">
        <ele>2124.452</ele>
        <time>2020-06-29T10:16:32Z</time>
      </trkpt>
      <trkpt lat="44.12731" lon="7.20502">
        <ele>2124.452</ele>
        <time>2020-06-29T10:16:48Z</time>
      </trkpt>
      <trkpt lat="44.12731" lon="7.20502">
        <ele>2124.452</ele>
        <time>2020-06-29T10:17:03Z</time>
      </trkpt>
      <trkpt lat="44.12731" lon="7.20502">
        <ele>2124.452</ele>
        <time>2020-06-29T10:17:19Z</time>
      </trkpt>
      <trkpt lat="44.12731" lon="7.20502">
        <ele>2124.452</ele>
        <time>2020-06-29T10:17:35Z</time>
      </trkpt>
      <trkpt lat="44.12731" lon="7.20502">
        <ele>2124.452</ele>
        <time>2020-06-29T10:17:51Z</time>
      </trkpt>
      <trkpt lat="44.12731" lon="7.20502">
        <ele>2124.452</ele>
        <time>2020-06-29T10:18:07Z</time>
      </trkpt>
      <trkpt lat="44.12731" lon="7.20502">
        <ele>2124.452</ele>
        <time>2020-06-29T10:18:22Z</time>
      </trkpt>
      <trkpt lat="44.12731" lon="7.20502">
        <ele>2124.452</ele>
        <time>2020-06-29T10:18:38Z</time>
      </trkpt>
      <trkpt lat="44.12731" lon="7.20502">
        <ele>2124.452</ele>
        <time>2020-06-29T10:18:54Z</time>
      </trkpt>
      <trkpt lat="44.12731" lon="7.20502">
        <ele>2124.452</ele>
        <time>2020-06-29T10:19:10Z</time>
      </trkpt>
      <trkpt lat="44.12731" lon="7.20502">
        <ele>2124.452</ele>
        <time>2020-06-29T10:19:26Z</time>
      </trkpt>
      <trkpt lat="44.12731" lon="7.20502">
        <ele>2124.452</ele>
        <time>2020-06-29T10:19:42Z</time>
      </trkpt>
      <trkpt lat="44.12731" lon="7.20502">
        <ele>2124.452</ele>
        <time>2020-06-29T10:19:57Z</time>
      </trkpt>
      <trkpt lat="44.12731" lon="7.20502">
        <ele>2124.452</ele>
        <time>2020-06-29T10:20:13Z</time>
      </trkpt>
      <trkpt lat="44.12731" lon="7.20502">
        <ele>2124.452</ele>
        <time>2020-06-29T10:20:28Z</time>
      </trkpt>
      <trkpt lat="44.12731" lon="7.20502">
        <ele>2124.452</ele>
        <time>2020-06-29T10:20:44Z</time>
      </trkpt>
      <trkpt lat="44.12731" lon="7.20502">
        <ele>2124.452</ele>
        <time>2020-06-29T10:21:00Z</time>
      </trkpt>
      <trkpt lat="44.12731" lon="7.20502">
        <ele>2124.452</ele>
        <time>2020-06-29T10:21:15Z</time>
      </trkpt>
      <trkpt lat="44.12731" lon="7.20502">
        <ele>2124.452</ele>
        <time>2020-06-29T10:21:31Z</time>
      </trkpt>
      <trkpt lat="44.12731" lon="7.20502">
        <ele>2124.452</ele>
        <time>2020-06-29T10:21:47Z</time>
      </trkpt>
      <trkpt lat="44.12731" lon="7.20502">
        <ele>2124.452</ele>
        <time>2020-06-29T10:22:03Z</time>
      </trkpt>
      <trkpt lat="44.12731" lon="7.20502">
        <ele>2124.452</ele>
        <time>2020-06-29T10:22:19Z</time>
      </trkpt>
      <trkpt lat="44.12731" lon="7.20502">
        <ele>2124.452</ele>
        <time>2020-06-29T10:22:35Z</time>
      </trkpt>
      <trkpt lat="44.12731" lon="7.20502">
        <ele>2124.452</ele>
        <time>2020-06-29T10:22:51Z</time>
      </trkpt>
      <trkpt lat="44.12731" lon="7.20502">
        <ele>2124.452</ele>
        <time>2020-06-29T10:23:06Z</time>
      </trkpt>
      <trkpt lat="44.12731" lon="7.20502">
        <ele>2124.452</ele>
        <time>2020-06-29T10:23:22Z</time>
      </trkpt>
      <trkpt lat="44.12731" lon="7.20502">
        <ele>2124.452</ele>
        <time>2020-06-29T10:23:38Z</time>
      </trkpt>
      <trkpt lat="44.12731" lon="7.20502">
        <ele>2124.452</ele>
        <time>2020-06-29T10:23:54Z</time>
      </trkpt>
      <trkpt lat="44.12731" lon="7.20502">
        <ele>2124.452</ele>
        <time>2020-06-29T10:24:09Z</time>
      </trkpt>
      <trkpt lat="44.12731" lon="7.20502">
        <ele>2124.452</ele>
        <time>2020-06-29T10:24:25Z</time>
      </trkpt>
      <trkpt lat="44.12731" lon="7.20502">
        <ele>2124.452</ele>
        <time>2020-06-29T10:24:41Z</time>
      </trkpt>
      <trkpt lat="44.12731" lon="7.20502">
        <ele>2124.452</ele>
        <time>2020-06-29T10:24:57Z</time>
      </trkpt>
      <trkpt lat="44.12731" lon="7.20502">
        <ele>2124.452</ele>
        <time>2020-06-29T10:25:12Z</time>
      </trkpt>
      <trkpt lat="44.1273" lon="7.20505">
        <ele>2127.257</ele>
        <time>2020-06-29T10:25:28Z</time>
      </trkpt>
      <trkpt lat="44.1273" lon="7.20505">
        <ele>2127.257</ele>
        <time>2020-06-29T10:25:43Z</time>
      </trkpt>
      <trkpt lat="44.1273" lon="7.20505">
        <ele>2127.257</ele>
        <time>2020-06-29T10:25:58Z</time>
      </trkpt>
      <trkpt lat="44.12731" lon="7.20506">
        <ele>2129.157</ele>
        <time>2020-06-29T10:26:13Z</time>
      </trkpt>
      <trkpt lat="44.12731" lon="7.20506">
        <ele>2129.157</ele>
        <time>2020-06-29T10:26:28Z</time>
      </trkpt>
      <trkpt lat="44.12731" lon="7.20506">
        <ele>2129.157</ele>
        <time>2020-06-29T10:26:44Z</time>
      </trkpt>
      <trkpt lat="44.12731" lon="7.20506">
        <ele>2129.157</ele>
        <time>2020-06-29T10:27:00Z</time>
      </trkpt>
      <trkpt lat="44.12731" lon="7.20506">
        <ele>2129.157</ele>
        <time>2020-06-29T10:27:15Z</time>
      </trkpt>
      <trkpt lat="44.12731" lon="7.20506">
        <ele>2129.157</ele>
        <time>2020-06-29T10:27:30Z</time>
      </trkpt>
      <trkpt lat="44.12731" lon="7.20506">
        <ele>2129.157</ele>
        <time>2020-06-29T10:27:46Z</time>
      </trkpt>
      <trkpt lat="44.12731" lon="7.20506">
        <ele>2129.157</ele>
        <time>2020-06-29T10:28:01Z</time>
      </trkpt>
      <trkpt lat="44.12731" lon="7.20506">
        <ele>2129.157</ele>
        <time>2020-06-29T10:28:17Z</time>
      </trkpt>
      <trkpt lat="44.12731" lon="7.20506">
        <ele>2129.157</ele>
        <time>2020-06-29T10:28:33Z</time>
      </trkpt>
      <trkpt lat="44.12731" lon="7.20506">
        <ele>2129.157</ele>
        <time>2020-06-29T10:28:49Z</time>
      </trkpt>
      <trkpt lat="44.12731" lon="7.20506">
        <ele>2129.157</ele>
        <time>2020-06-29T10:29:05Z</time>
      </trkpt>
      <trkpt lat="44.12731" lon="7.20506">
        <ele>2129.157</ele>
        <time>2020-06-29T10:29:20Z</time>
      </trkpt>
      <trkpt lat="44.12731" lon="7.20506">
        <ele>2129.157</ele>
        <time>2020-06-29T10:29:36Z</time>
      </trkpt>
      <trkpt lat="44.12731" lon="7.20506">
        <ele>2129.157</ele>
        <time>2020-06-29T10:29:51Z</time>
      </trkpt>
      <trkpt lat="44.12731" lon="7.20506">
        <ele>2129.157</ele>
        <time>2020-06-29T10:30:07Z</time>
      </trkpt>
      <trkpt lat="44.12731" lon="7.20506">
        <ele>2129.157</ele>
        <time>2020-06-29T10:30:22Z</time>
      </trkpt>
      <trkpt lat="44.12731" lon="7.20506">
        <ele>2129.157</ele>
        <time>2020-06-29T10:30:38Z</time>
      </trkpt>
      <trkpt lat="44.12731" lon="7.20506">
        <ele>2129.157</ele>
        <time>2020-06-29T10:30:54Z</time>
      </trkpt>
      <trkpt lat="44.12731" lon="7.20506">
        <ele>2129.157</ele>
        <time>2020-06-29T10:31:10Z</time>
      </trkpt>
      <trkpt lat="44.12731" lon="7.20506">
        <ele>2129.157</ele>
        <time>2020-06-29T10:31:26Z</time>
      </trkpt>
      <trkpt lat="44.12731" lon="7.20506">
        <ele>2129.157</ele>
        <time>2020-06-29T10:31:41Z</time>
      </trkpt>
      <trkpt lat="44.12731" lon="7.20506">
        <ele>2129.157</ele>
        <time>2020-06-29T10:31:57Z</time>
      </trkpt>
      <trkpt lat="44.12731" lon="7.20506">
        <ele>2129.157</ele>
        <time>2020-06-29T10:32:12Z</time>
      </trkpt>
      <trkpt lat="44.12731" lon="7.20506">
        <ele>2129.157</ele>
        <time>2020-06-29T10:32:28Z</time>
      </trkpt>
      <trkpt lat="44.12731" lon="7.20506">
        <ele>2129.157</ele>
        <time>2020-06-29T10:32:43Z</time>
      </trkpt>
      <trkpt lat="44.12732" lon="7.20506">
        <ele>2128.522</ele>
        <time>2020-06-29T10:32:59Z</time>
      </trkpt>
      <trkpt lat="44.12732" lon="7.20506">
        <ele>2128.522</ele>
        <time>2020-06-29T10:33:15Z</time>
      </trkpt>
      <trkpt lat="44.12733" lon="7.20502">
        <ele>2129.405</ele>
        <time>2020-06-29T10:33:31Z</time>
      </trkpt>
      <trkpt lat="44.12732" lon="7.20502">
        <ele>2135.562</ele>
        <time>2020-06-29T10:33:47Z</time>
      </trkpt>
      <trkpt lat="44.12731" lon="7.20503">
        <ele>2136.308</ele>
        <time>2020-06-29T10:34:02Z</time>
      </trkpt>
      <trkpt lat="44.12731" lon="7.20503">
        <ele>2136.699</ele>
        <time>2020-06-29T10:34:18Z</time>
      </trkpt>
      <trkpt lat="44.12731" lon="7.20503">
        <ele>2136.699</ele>
        <time>2020-06-29T10:34:33Z</time>
      </trkpt>
      <trkpt lat="44.12731" lon="7.20503">
        <ele>2136.699</ele>
        <time>2020-06-29T10:34:48Z</time>
      </trkpt>
      <trkpt lat="44.12731" lon="7.20503">
        <ele>2136.699</ele>
        <time>2020-06-29T10:35:03Z</time>
      </trkpt>
      <trkpt lat="44.12731" lon="7.20503">
        <ele>2136.699</ele>
        <time>2020-06-29T10:35:19Z</time>
      </trkpt>
      <trkpt lat="44.12731" lon="7.20503">
        <ele>2136.699</ele>
        <time>2020-06-29T10:35:34Z</time>
      </trkpt>
      <trkpt lat="44.12731" lon="7.20503">
        <ele>2136.699</ele>
        <time>2020-06-29T10:35:50Z</time>
      </trkpt>
      <trkpt lat="44.12731" lon="7.20503">
        <ele>2136.699</ele>
        <time>2020-06-29T10:36:05Z</time>
      </trkpt>
      <trkpt lat="44.12731" lon="7.20503">
        <ele>2136.699</ele>
        <time>2020-06-29T10:36:21Z</time>
      </trkpt>
      <trkpt lat="44.12728" lon="7.20501">
        <ele>2137.142</ele>
        <time>2020-06-29T10:36:36Z</time>
      </trkpt>
      <trkpt lat="44.12724" lon="7.20501">
        <ele>2139.925</ele>
        <time>2020-06-29T10:36:51Z</time>
      </trkpt>
      <trkpt lat="44.12725" lon="7.20504">
        <ele>2143.658</ele>
        <time>2020-06-29T10:37:07Z</time>
      </trkpt>
      <trkpt lat="44.12724" lon="7.20505">
        <ele>2144.64</ele>
        <time>2020-06-29T10:37:22Z</time>
      </trkpt>
      <trkpt lat="44.12724" lon="7.20505">
        <ele>2144.64</ele>
        <time>2020-06-29T10:37:38Z</time>
      </trkpt>
      <trkpt lat="44.12724" lon="7.20505">
        <ele>2144.64</ele>
        <time>2020-06-29T10:37:53Z</time>
      </trkpt>
      <trkpt lat="44.12724" lon="7.20505">
        <ele>2144.64</ele>
        <time>2020-06-29T10:38:08Z</time>
      </trkpt>
      <trkpt lat="44.12724" lon="7.20505">
        <ele>2144.64</ele>
        <time>2020-06-29T10:38:24Z</time>
      </trkpt>
      <trkpt lat="44.12724" lon="7.20505">
        <ele>2144.64</ele>
        <time>2020-06-29T10:38:40Z</time>
      </trkpt>
      <trkpt lat="44.12728" lon="7.20502">
        <ele>2151.556</ele>
        <time>2020-06-29T10:38:55Z</time>
      </trkpt>
      <trkpt lat="44.12739" lon="7.20507">
        <ele>2154.467</ele>
        <time>2020-06-29T10:39:11Z</time>
      </trkpt>
      <trkpt lat="44.12743" lon="7.20497">
        <ele>2157.319</ele>
        <time>2020-06-29T10:39:26Z</time>
      </trkpt>
      <trkpt lat="44.1274" lon="7.20501">
        <ele>2157.131</ele>
        <time>2020-06-29T10:39:42Z</time>
      </trkpt>
      <trkpt lat="44.12741" lon="7.20504">
        <ele>2158.376</ele>
        <time>2020-06-29T10:39:57Z</time>
      </trkpt>
      <trkpt lat="44.12741" lon="7.20504">
        <ele>2158.376</ele>
        <time>2020-06-29T10:40:13Z</time>
      </trkpt>
      <trkpt lat="44.12741" lon="7.20504">
        <ele>2158.376</ele>
        <time>2020-06-29T10:40:29Z</time>
      </trkpt>
      <trkpt lat="44.12741" lon="7.20504">
        <ele>2158.376</ele>
        <time>2020-06-29T10:40:44Z</time>
      </trkpt>
      <trkpt lat="44.12741" lon="7.20504">
        <ele>2158.376</ele>
        <time>2020-06-29T10:41:00Z</time>
      </trkpt>
      <trkpt lat="44.12741" lon="7.20504">
        <ele>2158.376</ele>
        <time>2020-06-29T10:41:15Z</time>
      </trkpt>
      <trkpt lat="44.12741" lon="7.20504">
        <ele>2158.376</ele>
        <time>2020-06-29T10:41:31Z</time>
      </trkpt>
      <trkpt lat="44.12741" lon="7.20504">
        <ele>2158.376</ele>
        <time>2020-06-29T10:41:46Z</time>
      </trkpt>
      <trkpt lat="44.12741" lon="7.20504">
        <ele>2158.376</ele>
        <time>2020-06-29T10:42:01Z</time>
      </trkpt>
      <trkpt lat="44.12741" lon="7.20504">
        <ele>2158.376</ele>
        <time>2020-06-29T10:42:17Z</time>
      </trkpt>
      <trkpt lat="44.12741" lon="7.20504">
        <ele>2158.376</ele>
        <time>2020-06-29T10:42:32Z</time>
      </trkpt>
      <trkpt lat="44.12741" lon="7.20504">
        <ele>2158.376</ele>
        <time>2020-06-29T10:42:48Z</time>
      </trkpt>
      <trkpt lat="44.12741" lon="7.20504">
        <ele>2158.376</ele>
        <time>2020-06-29T10:43:03Z</time>
      </trkpt>
      <trkpt lat="44.12738" lon="7.20505">
        <ele>2157.507</ele>
        <time>2020-06-29T10:43:18Z</time>
      </trkpt>
      <trkpt lat="44.12738" lon="7.20505">
        <ele>2157.507</ele>
        <time>2020-06-29T10:43:34Z</time>
      </trkpt>
      <trkpt lat="44.12738" lon="7.20505">
        <ele>2157.507</ele>
        <time>2020-06-29T10:43:50Z</time>
      </trkpt>
      <trkpt lat="44.12738" lon="7.20505">
        <ele>2157.507</ele>
        <time>2020-06-29T10:44:06Z</time>
      </trkpt>
      <trkpt lat="44.12738" lon="7.20505">
        <ele>2157.507</ele>
        <time>2020-06-29T10:44:21Z</time>
      </trkpt>
      <trkpt lat="44.12738" lon="7.20505">
        <ele>2157.507</ele>
        <time>2020-06-29T10:44:37Z</time>
      </trkpt>
      <trkpt lat="44.12738" lon="7.20505">
        <ele>2157.507</ele>
        <time>2020-06-29T10:44:53Z</time>
      </trkpt>
      <trkpt lat="44.12738" lon="7.20505">
        <ele>2157.507</ele>
        <time>2020-06-29T10:45:09Z</time>
      </trkpt>
      <trkpt lat="44.12738" lon="7.20505">
        <ele>2157.507</ele>
        <time>2020-06-29T10:45:24Z</time>
      </trkpt>
      <trkpt lat="44.12738" lon="7.20505">
        <ele>2157.507</ele>
        <time>2020-06-29T10:45:40Z</time>
      </trkpt>
      <trkpt lat="44.12738" lon="7.20505">
        <ele>2157.507</ele>
        <time>2020-06-29T10:45:56Z</time>
      </trkpt>
      <trkpt lat="44.12738" lon="7.20505">
        <ele>2157.507</ele>
        <time>2020-06-29T10:46:11Z</time>
      </trkpt>
      <trkpt lat="44.12738" lon="7.20505">
        <ele>2157.507</ele>
        <time>2020-06-29T10:46:27Z</time>
      </trkpt>
      <trkpt lat="44.12738" lon="7.20505">
        <ele>2157.507</ele>
        <time>2020-06-29T10:46:42Z</time>
      </trkpt>
      <trkpt lat="44.12738" lon="7.20505">
        <ele>2157.507</ele>
        <time>2020-06-29T10:46:57Z</time>
      </trkpt>
      <trkpt lat="44.12738" lon="7.20505">
        <ele>2157.507</ele>
        <time>2020-06-29T10:47:13Z</time>
      </trkpt>
      <trkpt lat="44.12738" lon="7.20505">
        <ele>2157.507</ele>
        <time>2020-06-29T10:47:28Z</time>
      </trkpt>
      <trkpt lat="44.12738" lon="7.20505">
        <ele>2157.507</ele>
        <time>2020-06-29T10:47:44Z</time>
      </trkpt>
      <trkpt lat="44.12738" lon="7.20505">
        <ele>2157.507</ele>
        <time>2020-06-29T10:48:00Z</time>
      </trkpt>
      <trkpt lat="44.12738" lon="7.20505">
        <ele>2157.507</ele>
        <time>2020-06-29T10:48:16Z</time>
      </trkpt>
      <trkpt lat="44.12738" lon="7.20505">
        <ele>2157.507</ele>
        <time>2020-06-29T10:48:32Z</time>
      </trkpt>
      <trkpt lat="44.12738" lon="7.20505">
        <ele>2157.507</ele>
        <time>2020-06-29T10:48:48Z</time>
      </trkpt>
      <trkpt lat="44.1274" lon="7.20503">
        <ele>2155.808</ele>
        <time>2020-06-29T10:49:03Z</time>
      </trkpt>
      <trkpt lat="44.1274" lon="7.20503">
        <ele>2155.808</ele>
        <time>2020-06-29T10:49:19Z</time>
      </trkpt>
      <trkpt lat="44.1274" lon="7.20503">
        <ele>2155.808</ele>
        <time>2020-06-29T10:49:35Z</time>
      </trkpt>
      <trkpt lat="44.1274" lon="7.20503">
        <ele>2155.808</ele>
        <time>2020-06-29T10:49:51Z</time>
      </trkpt>
      <trkpt lat="44.1274" lon="7.20503">
        <ele>2155.808</ele>
        <time>2020-06-29T10:50:07Z</time>
      </trkpt>
      <trkpt lat="44.1274" lon="7.20503">
        <ele>2155.808</ele>
        <time>2020-06-29T10:50:23Z</time>
      </trkpt>
      <trkpt lat="44.1274" lon="7.20503">
        <ele>2155.808</ele>
        <time>2020-06-29T10:50:38Z</time>
      </trkpt>
      <trkpt lat="44.1274" lon="7.20503">
        <ele>2155.808</ele>
        <time>2020-06-29T10:50:54Z</time>
      </trkpt>
      <trkpt lat="44.1274" lon="7.20503">
        <ele>2155.808</ele>
        <time>2020-06-29T10:51:09Z</time>
      </trkpt>
      <trkpt lat="44.1274" lon="7.20503">
        <ele>2155.808</ele>
        <time>2020-06-29T10:51:25Z</time>
      </trkpt>
      <trkpt lat="44.1274" lon="7.20503">
        <ele>2155.808</ele>
        <time>2020-06-29T10:51:41Z</time>
      </trkpt>
      <trkpt lat="44.1274" lon="7.20503">
        <ele>2155.808</ele>
        <time>2020-06-29T10:51:56Z</time>
      </trkpt>
      <trkpt lat="44.1274" lon="7.20503">
        <ele>2155.808</ele>
        <time>2020-06-29T10:52:12Z</time>
      </trkpt>
      <trkpt lat="44.1274" lon="7.20503">
        <ele>2155.808</ele>
        <time>2020-06-29T10:52:28Z</time>
      </trkpt>
      <trkpt lat="44.1274" lon="7.20503">
        <ele>2155.808</ele>
        <time>2020-06-29T10:52:43Z</time>
      </trkpt>
      <trkpt lat="44.1274" lon="7.20503">
        <ele>2155.808</ele>
        <time>2020-06-29T10:52:58Z</time>
      </trkpt>
      <trkpt lat="44.1274" lon="7.20503">
        <ele>2155.808</ele>
        <time>2020-06-29T10:53:14Z</time>
      </trkpt>
      <trkpt lat="44.1274" lon="7.20503">
        <ele>2155.808</ele>
        <time>2020-06-29T10:53:29Z</time>
      </trkpt>
      <trkpt lat="44.12742" lon="7.20502">
        <ele>2154.282</ele>
        <time>2020-06-29T10:53:45Z</time>
      </trkpt>
      <trkpt lat="44.12742" lon="7.20502">
        <ele>2154.282</ele>
        <time>2020-06-29T10:54:00Z</time>
      </trkpt>
      <trkpt lat="44.12742" lon="7.20502">
        <ele>2154.282</ele>
        <time>2020-06-29T10:54:16Z</time>
      </trkpt>
      <trkpt lat="44.12742" lon="7.20502">
        <ele>2154.282</ele>
        <time>2020-06-29T10:54:31Z</time>
      </trkpt>
      <trkpt lat="44.12742" lon="7.20502">
        <ele>2154.282</ele>
        <time>2020-06-29T10:54:46Z</time>
      </trkpt>
      <trkpt lat="44.12742" lon="7.20502">
        <ele>2154.282</ele>
        <time>2020-06-29T10:55:02Z</time>
      </trkpt>
      <trkpt lat="44.12741" lon="7.20503">
        <ele>2154.042</ele>
        <time>2020-06-29T10:55:17Z</time>
      </trkpt>
      <trkpt lat="44.12741" lon="7.20503">
        <ele>2154.042</ele>
        <time>2020-06-29T10:55:32Z</time>
      </trkpt>
      <trkpt lat="44.12741" lon="7.20503">
        <ele>2154.042</ele>
        <time>2020-06-29T10:55:48Z</time>
      </trkpt>
      <trkpt lat="44.12741" lon="7.20503">
        <ele>2154.042</ele>
        <time>2020-06-29T10:56:03Z</time>
      </trkpt>
      <trkpt lat="44.12741" lon="7.20503">
        <ele>2154.042</ele>
        <time>2020-06-29T10:56:19Z</time>
      </trkpt>
      <trkpt lat="44.12741" lon="7.20503">
        <ele>2154.042</ele>
        <time>2020-06-29T10:56:35Z</time>
      </trkpt>
      <trkpt lat="44.12741" lon="7.20503">
        <ele>2154.042</ele>
        <time>2020-06-29T10:56:51Z</time>
      </trkpt>
      <trkpt lat="44.12741" lon="7.20503">
        <ele>2154.042</ele>
        <time>2020-06-29T10:57:06Z</time>
      </trkpt>
      <trkpt lat="44.12741" lon="7.20503">
        <ele>2154.042</ele>
        <time>2020-06-29T10:57:22Z</time>
      </trkpt>
      <trkpt lat="44.12741" lon="7.20503">
        <ele>2154.042</ele>
        <time>2020-06-29T10:57:37Z</time>
      </trkpt>
      <trkpt lat="44.12744" lon="7.20506">
        <ele>2154.407</ele>
        <time>2020-06-29T10:57:53Z</time>
      </trkpt>
      <trkpt lat="44.12747" lon="7.20505">
        <ele>2153.188</ele>
        <time>2020-06-29T10:58:09Z</time>
      </trkpt>
      <trkpt lat="44.12747" lon="7.20505">
        <ele>2153.188</ele>
        <time>2020-06-29T10:58:24Z</time>
      </trkpt>
      <trkpt lat="44.12745" lon="7.20502">
        <ele>2149.793</ele>
        <time>2020-06-29T10:58:39Z</time>
      </trkpt>
      <trkpt lat="44.12745" lon="7.20502">
        <ele>2149.793</ele>
        <time>2020-06-29T10:58:55Z</time>
      </trkpt>
      <trkpt lat="44.12745" lon="7.20502">
        <ele>2149.793</ele>
        <time>2020-06-29T10:59:11Z</time>
      </trkpt>
      <trkpt lat="44.12745" lon="7.20502">
        <ele>2149.793</ele>
        <time>2020-06-29T10:59:27Z</time>
      </trkpt>
      <trkpt lat="44.12745" lon="7.20502">
        <ele>2149.793</ele>
        <time>2020-06-29T10:59:43Z</time>
      </trkpt>
      <trkpt lat="44.12745" lon="7.20502">
        <ele>2149.793</ele>
        <time>2020-06-29T10:59:59Z</time>
      </trkpt>
      <trkpt lat="44.12745" lon="7.20502">
        <ele>2149.793</ele>
        <time>2020-06-29T11:00:14Z</time>
      </trkpt>
      <trkpt lat="44.12745" lon="7.20502">
        <ele>2149.793</ele>
        <time>2020-06-29T11:00:30Z</time>
      </trkpt>
      <trkpt lat="44.12745" lon="7.20503">
        <ele>2148.424</ele>
        <time>2020-06-29T11:00:45Z</time>
      </trkpt>
      <trkpt lat="44.12745" lon="7.20503">
        <ele>2148.424</ele>
        <time>2020-06-29T11:01:01Z</time>
      </trkpt>
      <trkpt lat="44.12745" lon="7.20503">
        <ele>2148.424</ele>
        <time>2020-06-29T11:01:16Z</time>
      </trkpt>
      <trkpt lat="44.12745" lon="7.20503">
        <ele>2148.424</ele>
        <time>2020-06-29T11:01:31Z</time>
      </trkpt>
      <trkpt lat="44.12745" lon="7.20505">
        <ele>2147.493</ele>
        <time>2020-06-29T11:01:47Z</time>
      </trkpt>
      <trkpt lat="44.12742" lon="7.20503">
        <ele>2141.059</ele>
        <time>2020-06-29T11:02:03Z</time>
      </trkpt>
      <trkpt lat="44.12741" lon="7.20506">
        <ele>2140.235</ele>
        <time>2020-06-29T11:02:19Z</time>
      </trkpt>
      <trkpt lat="44.1274" lon="7.20506">
        <ele>2138.535</ele>
        <time>2020-06-29T11:02:35Z</time>
      </trkpt>
      <trkpt lat="44.1274" lon="7.20506">
        <ele>2138.535</ele>
        <time>2020-06-29T11:02:51Z</time>
      </trkpt>
      <trkpt lat="44.1274" lon="7.20506">
        <ele>2138.535</ele>
        <time>2020-06-29T11:03:07Z</time>
      </trkpt>
      <trkpt lat="44.1274" lon="7.20506">
        <ele>2138.535</ele>
        <time>2020-06-29T11:03:23Z</time>
      </trkpt>
      <trkpt lat="44.1274" lon="7.20506">
        <ele>2138.535</ele>
        <time>2020-06-29T11:03:38Z</time>
      </trkpt>
      <trkpt lat="44.1274" lon="7.20506">
        <ele>2138.535</ele>
        <time>2020-06-29T11:03:54Z</time>
      </trkpt>
      <trkpt lat="44.1274" lon="7.20506">
        <ele>2138.535</ele>
        <time>2020-06-29T11:04:10Z</time>
      </trkpt>
      <trkpt lat="44.1274" lon="7.20506">
        <ele>2138.535</ele>
        <time>2020-06-29T11:04:25Z</time>
      </trkpt>
      <trkpt lat="44.1274" lon="7.20506">
        <ele>2138.535</ele>
        <time>2020-06-29T11:04:41Z</time>
      </trkpt>
      <trkpt lat="44.1274" lon="7.20506">
        <ele>2138.535</ele>
        <time>2020-06-29T11:04:57Z</time>
      </trkpt>
      <trkpt lat="44.1274" lon="7.20506">
        <ele>2138.535</ele>
        <time>2020-06-29T11:05:13Z</time>
      </trkpt>
      <trkpt lat="44.1274" lon="7.20506">
        <ele>2138.535</ele>
        <time>2020-06-29T11:05:28Z</time>
      </trkpt>
      <trkpt lat="44.1274" lon="7.20506">
        <ele>2138.535</ele>
        <time>2020-06-29T11:05:44Z</time>
      </trkpt>
      <trkpt lat="44.1274" lon="7.20506">
        <ele>2138.535</ele>
        <time>2020-06-29T11:06:00Z</time>
      </trkpt>
      <trkpt lat="44.1274" lon="7.20506">
        <ele>2138.535</ele>
        <time>2020-06-29T11:06:16Z</time>
      </trkpt>
      <trkpt lat="44.1274" lon="7.20506">
        <ele>2138.535</ele>
        <time>2020-06-29T11:06:32Z</time>
      </trkpt>
      <trkpt lat="44.1274" lon="7.20506">
        <ele>2138.535</ele>
        <time>2020-06-29T11:06:48Z</time>
      </trkpt>
      <trkpt lat="44.1274" lon="7.20506">
        <ele>2138.535</ele>
        <time>2020-06-29T11:07:03Z</time>
      </trkpt>
      <trkpt lat="44.1274" lon="7.20506">
        <ele>2138.535</ele>
        <time>2020-06-29T11:07:19Z</time>
      </trkpt>
      <trkpt lat="44.1274" lon="7.20506">
        <ele>2138.535</ele>
        <time>2020-06-29T11:07:34Z</time>
      </trkpt>
      <trkpt lat="44.1274" lon="7.20506">
        <ele>2138.535</ele>
        <time>2020-06-29T11:07:49Z</time>
      </trkpt>
      <trkpt lat="44.1274" lon="7.20506">
        <ele>2138.535</ele>
        <time>2020-06-29T11:08:05Z</time>
      </trkpt>
      <trkpt lat="44.1274" lon="7.20506">
        <ele>2138.535</ele>
        <time>2020-06-29T11:08:21Z</time>
      </trkpt>
      <trkpt lat="44.1274" lon="7.20506">
        <ele>2138.535</ele>
        <time>2020-06-29T11:08:37Z</time>
      </trkpt>
      <trkpt lat="44.1274" lon="7.20506">
        <ele>2138.535</ele>
        <time>2020-06-29T11:08:53Z</time>
      </trkpt>
      <trkpt lat="44.1274" lon="7.20506">
        <ele>2138.535</ele>
        <time>2020-06-29T11:09:09Z</time>
      </trkpt>
      <trkpt lat="44.1274" lon="7.20509">
        <ele>2137.989</ele>
        <time>2020-06-29T11:09:25Z</time>
      </trkpt>
      <trkpt lat="44.12741" lon="7.2051">
        <ele>2138.015</ele>
        <time>2020-06-29T11:09:41Z</time>
      </trkpt>
      <trkpt lat="44.12741" lon="7.2051">
        <ele>2138.015</ele>
        <time>2020-06-29T11:09:57Z</time>
      </trkpt>
      <trkpt lat="44.12741" lon="7.2051">
        <ele>2138.015</ele>
        <time>2020-06-29T11:10:12Z</time>
      </trkpt>
      <trkpt lat="44.12739" lon="7.20508">
        <ele>2138.847</ele>
        <time>2020-06-29T11:10:27Z</time>
      </trkpt>
      <trkpt lat="44.1274" lon="7.20506">
        <ele>2137.564</ele>
        <time>2020-06-29T11:10:43Z</time>
      </trkpt>
      <trkpt lat="44.1274" lon="7.20506">
        <ele>2137.564</ele>
        <time>2020-06-29T11:10:59Z</time>
      </trkpt>
      <trkpt lat="44.12735" lon="7.20505">
        <ele>2137.108</ele>
        <time>2020-06-29T11:11:14Z</time>
      </trkpt>
      <trkpt lat="44.12735" lon="7.20503">
        <ele>2136.412</ele>
        <time>2020-06-29T11:11:30Z</time>
      </trkpt>
      <trkpt lat="44.12735" lon="7.20503">
        <ele>2136.412</ele>
        <time>2020-06-29T11:11:45Z</time>
      </trkpt>
      <trkpt lat="44.12737" lon="7.20503">
        <ele>2136.743</ele>
        <time>2020-06-29T11:12:01Z</time>
      </trkpt>
      <trkpt lat="44.12737" lon="7.20503">
        <ele>2139.413</ele>
        <time>2020-06-29T11:12:17Z</time>
      </trkpt>
      <trkpt lat="44.12746" lon="7.20506">
        <ele>2139.062</ele>
        <time>2020-06-29T11:12:33Z</time>
      </trkpt>
      <trkpt lat="44.12752" lon="7.20505">
        <ele>2137.472</ele>
        <time>2020-06-29T11:12:49Z</time>
      </trkpt>
      <trkpt lat="44.12729" lon="7.20513">
        <ele>2136.825</ele>
        <time>2020-06-29T11:13:04Z</time>
      </trkpt>
      <trkpt lat="44.12718" lon="7.20513">
        <ele>2139.143</ele>
        <time>2020-06-29T11:13:20Z</time>
      </trkpt>
      <trkpt lat="44.12706" lon="7.20514">
        <ele>2137.476</ele>
        <time>2020-06-29T11:13:35Z</time>
      </trkpt>
      <trkpt lat="44.12698" lon="7.20525">
        <ele>2134.741</ele>
        <time>2020-06-29T11:13:51Z</time>
      </trkpt>
      <trkpt lat="44.12688" lon="7.20532">
        <ele>2140.441</ele>
        <time>2020-06-29T11:14:06Z</time>
      </trkpt>
      <trkpt lat="44.12684" lon="7.20537">
        <ele>2139.131</ele>
        <time>2020-06-29T11:14:22Z</time>
      </trkpt>
      <trkpt lat="44.12682" lon="7.20539">
        <ele>2139.468</ele>
        <time>2020-06-29T11:14:38Z</time>
      </trkpt>
      <trkpt lat="44.12672" lon="7.20544">
        <ele>2143.305</ele>
        <time>2020-06-29T11:14:53Z</time>
      </trkpt>
      <trkpt lat="44.12661" lon="7.20554">
        <ele>2144.448</ele>
        <time>2020-06-29T11:15:09Z</time>
      </trkpt>
      <trkpt lat="44.12655" lon="7.20566">
        <ele>2144.162</ele>
        <time>2020-06-29T11:15:25Z</time>
      </trkpt>
      <trkpt lat="44.12649" lon="7.20579">
        <ele>2145.007</ele>
        <time>2020-06-29T11:15:40Z</time>
      </trkpt>
      <trkpt lat="44.12643" lon="7.20592">
        <ele>2146.1</ele>
        <time>2020-06-29T11:15:56Z</time>
      </trkpt>
      <trkpt lat="44.12639" lon="7.20605">
        <ele>2145.356</ele>
        <time>2020-06-29T11:16:11Z</time>
      </trkpt>
      <trkpt lat="44.1262" lon="7.20603">
        <ele>2141.383</ele>
        <time>2020-06-29T11:16:27Z</time>
      </trkpt>
      <trkpt lat="44.12612" lon="7.20615">
        <ele>2145.283</ele>
        <time>2020-06-29T11:16:42Z</time>
      </trkpt>
      <trkpt lat="44.12615" lon="7.20627">
        <ele>2147.616</ele>
        <time>2020-06-29T11:16:58Z</time>
      </trkpt>
      <trkpt lat="44.12614" lon="7.2063">
        <ele>2148.121</ele>
        <time>2020-06-29T11:17:13Z</time>
      </trkpt>
      <trkpt lat="44.12619" lon="7.20634">
        <ele>2151.68</ele>
        <time>2020-06-29T11:17:29Z</time>
      </trkpt>
      <trkpt lat="44.12623" lon="7.20642">
        <ele>2156.284</ele>
        <time>2020-06-29T11:17:45Z</time>
      </trkpt>
      <trkpt lat="44.12622" lon="7.20651">
        <ele>2166.067</ele>
        <time>2020-06-29T11:18:00Z</time>
      </trkpt>
      <trkpt lat="44.12608" lon="7.20652">
        <ele>2168.309</ele>
        <time>2020-06-29T11:18:16Z</time>
      </trkpt>
      <trkpt lat="44.12604" lon="7.20652">
        <ele>2169.207</ele>
        <time>2020-06-29T11:18:32Z</time>
      </trkpt>
      <trkpt lat="44.12593" lon="7.2065">
        <ele>2171.754</ele>
        <time>2020-06-29T11:18:48Z</time>
      </trkpt>
      <trkpt lat="44.12588" lon="7.20652">
        <ele>2172.636</ele>
        <time>2020-06-29T11:19:03Z</time>
      </trkpt>
      <trkpt lat="44.12594" lon="7.20661">
        <ele>2170.567</ele>
        <time>2020-06-29T11:19:19Z</time>
      </trkpt>
      <trkpt lat="44.12612" lon="7.20669">
        <ele>2172.383</ele>
        <time>2020-06-29T11:19:34Z</time>
      </trkpt>
      <trkpt lat="44.12604" lon="7.20674">
        <ele>2173.178</ele>
        <time>2020-06-29T11:19:50Z</time>
      </trkpt>
      <trkpt lat="44.12597" lon="7.20672">
        <ele>2174.783</ele>
        <time>2020-06-29T11:20:05Z</time>
      </trkpt>
      <trkpt lat="44.12585" lon="7.20671">
        <ele>2176.442</ele>
        <time>2020-06-29T11:20:20Z</time>
      </trkpt>
      <trkpt lat="44.12577" lon="7.20667">
        <ele>2181.512</ele>
        <time>2020-06-29T11:20:35Z</time>
      </trkpt>
      <trkpt lat="44.12575" lon="7.20667">
        <ele>2180.689</ele>
        <time>2020-06-29T11:20:51Z</time>
      </trkpt>
      <trkpt lat="44.12573" lon="7.20667">
        <ele>2182.206</ele>
        <time>2020-06-29T11:21:07Z</time>
      </trkpt>
      <trkpt lat="44.12567" lon="7.20664">
        <ele>2183.167</ele>
        <time>2020-06-29T11:21:22Z</time>
      </trkpt>
      <trkpt lat="44.12554" lon="7.20664">
        <ele>2184.302</ele>
        <time>2020-06-29T11:21:38Z</time>
      </trkpt>
      <trkpt lat="44.12544" lon="7.20669">
        <ele>2184.412</ele>
        <time>2020-06-29T11:21:54Z</time>
      </trkpt>
      <trkpt lat="44.12528" lon="7.20669">
        <ele>2189.476</ele>
        <time>2020-06-29T11:22:10Z</time>
      </trkpt>
      <trkpt lat="44.12529" lon="7.20674">
        <ele>2189.885</ele>
        <time>2020-06-29T11:22:25Z</time>
      </trkpt>
      <trkpt lat="44.1252" lon="7.20674">
        <ele>2188.141</ele>
        <time>2020-06-29T11:22:41Z</time>
      </trkpt>
      <trkpt lat="44.12496" lon="7.20675">
        <ele>2185.152</ele>
        <time>2020-06-29T11:22:56Z</time>
      </trkpt>
      <trkpt lat="44.1248" lon="7.20687">
        <ele>2186.225</ele>
        <time>2020-06-29T11:23:12Z</time>
      </trkpt>
      <trkpt lat="44.1247" lon="7.20691">
        <ele>2189.334</ele>
        <time>2020-06-29T11:23:28Z</time>
      </trkpt>
      <trkpt lat="44.12461" lon="7.20705">
        <ele>2196.619</ele>
        <time>2020-06-29T11:23:43Z</time>
      </trkpt>
      <trkpt lat="44.12454" lon="7.20715">
        <ele>2195.25</ele>
        <time>2020-06-29T11:23:59Z</time>
      </trkpt>
      <trkpt lat="44.1244" lon="7.20718">
        <ele>2195.81</ele>
        <time>2020-06-29T11:24:15Z</time>
      </trkpt>
      <trkpt lat="44.12427" lon="7.20724">
        <ele>2198.833</ele>
        <time>2020-06-29T11:24:31Z</time>
      </trkpt>
      <trkpt lat="44.12418" lon="7.20738">
        <ele>2197.551</ele>
        <time>2020-06-29T11:24:47Z</time>
      </trkpt>
      <trkpt lat="44.12406" lon="7.20747">
        <ele>2196.225</ele>
        <time>2020-06-29T11:25:02Z</time>
      </trkpt>
      <trkpt lat="44.12399" lon="7.2076">
        <ele>2200.618</ele>
        <time>2020-06-29T11:25:18Z</time>
      </trkpt>
      <trkpt lat="44.12391" lon="7.20766">
        <ele>2204.37</ele>
        <time>2020-06-29T11:25:34Z</time>
      </trkpt>
      <trkpt lat="44.12386" lon="7.20768">
        <ele>2206.074</ele>
        <time>2020-06-29T11:25:49Z</time>
      </trkpt>
      <trkpt lat="44.12384" lon="7.20783">
        <ele>2211.608</ele>
        <time>2020-06-29T11:26:04Z</time>
      </trkpt>
      <trkpt lat="44.12381" lon="7.20787">
        <ele>2211.373</ele>
        <time>2020-06-29T11:26:19Z</time>
      </trkpt>
      <trkpt lat="44.12378" lon="7.20788">
        <ele>2212.919</ele>
        <time>2020-06-29T11:26:35Z</time>
      </trkpt>
      <trkpt lat="44.12376" lon="7.20784">
        <ele>2214.218</ele>
        <time>2020-06-29T11:26:51Z</time>
      </trkpt>
      <trkpt lat="44.12372" lon="7.20787">
        <ele>2214.619</ele>
        <time>2020-06-29T11:27:07Z</time>
      </trkpt>
      <trkpt lat="44.1234" lon="7.20781">
        <ele>2220.308</ele>
        <time>2020-06-29T11:27:22Z</time>
      </trkpt>
      <trkpt lat="44.1233" lon="7.20771">
        <ele>2219.57</ele>
        <time>2020-06-29T11:27:38Z</time>
      </trkpt>
      <trkpt lat="44.12333" lon="7.20755">
        <ele>2216.429</ele>
        <time>2020-06-29T11:27:53Z</time>
      </trkpt>
      <trkpt lat="44.12337" lon="7.20739">
        <ele>2218.576</ele>
        <time>2020-06-29T11:28:09Z</time>
      </trkpt>
      <trkpt lat="44.12341" lon="7.20729">
        <ele>2222.099</ele>
        <time>2020-06-29T11:28:25Z</time>
      </trkpt>
      <trkpt lat="44.12349" lon="7.2072">
        <ele>2225.915</ele>
        <time>2020-06-29T11:28:40Z</time>
      </trkpt>
      <trkpt lat="44.12356" lon="7.20705">
        <ele>2226.541</ele>
        <time>2020-06-29T11:28:56Z</time>
      </trkpt>
      <trkpt lat="44.12367" lon="7.20691">
        <ele>2227.463</ele>
        <time>2020-06-29T11:29:11Z</time>
      </trkpt>
      <trkpt lat="44.12359" lon="7.20678">
        <ele>2229.324</ele>
        <time>2020-06-29T11:29:27Z</time>
      </trkpt>
      <trkpt lat="44.12355" lon="7.20673">
        <ele>2230.047</ele>
        <time>2020-06-29T11:29:43Z</time>
      </trkpt>
      <trkpt lat="44.12352" lon="7.20669">
        <ele>2230.875</ele>
        <time>2020-06-29T11:29:58Z</time>
      </trkpt>
      <trkpt lat="44.12341" lon="7.20666">
        <ele>2232.608</ele>
        <time>2020-06-29T11:30:14Z</time>
      </trkpt>
      <trkpt lat="44.12332" lon="7.2067">
        <ele>2233.972</ele>
        <time>2020-06-29T11:30:30Z</time>
      </trkpt>
      <trkpt lat="44.12325" lon="7.20677">
        <ele>2234.591</ele>
        <time>2020-06-29T11:30:46Z</time>
      </trkpt>
      <trkpt lat="44.12321" lon="7.20678">
        <ele>2236.586</ele>
        <time>2020-06-29T11:31:02Z</time>
      </trkpt>
      <trkpt lat="44.12317" lon="7.20679">
        <ele>2237.561</ele>
        <time>2020-06-29T11:31:18Z</time>
      </trkpt>
      <trkpt lat="44.12316" lon="7.20684">
        <ele>2240.014</ele>
        <time>2020-06-29T11:31:33Z</time>
      </trkpt>
      <trkpt lat="44.12316" lon="7.20684">
        <ele>2240.014</ele>
        <time>2020-06-29T11:31:49Z</time>
      </trkpt>
      <trkpt lat="44.12316" lon="7.20684">
        <ele>2240.014</ele>
        <time>2020-06-29T11:32:04Z</time>
      </trkpt>
      <trkpt lat="44.12316" lon="7.20684">
        <ele>2240.014</ele>
        <time>2020-06-29T11:32:20Z</time>
      </trkpt>
      <trkpt lat="44.12317" lon="7.20686">
        <ele>2240.336</ele>
        <time>2020-06-29T11:32:36Z</time>
      </trkpt>
      <trkpt lat="44.12317" lon="7.20686">
        <ele>2240.336</ele>
        <time>2020-06-29T11:32:51Z</time>
      </trkpt>
      <trkpt lat="44.12317" lon="7.20686">
        <ele>2240.336</ele>
        <time>2020-06-29T11:33:06Z</time>
      </trkpt>
      <trkpt lat="44.1231" lon="7.2067">
        <ele>2241.531</ele>
        <time>2020-06-29T11:33:22Z</time>
      </trkpt>
      <trkpt lat="44.12307" lon="7.20651">
        <ele>2245.17</ele>
        <time>2020-06-29T11:33:37Z</time>
      </trkpt>
      <trkpt lat="44.12301" lon="7.2065">
        <ele>2247.826</ele>
        <time>2020-06-29T11:33:53Z</time>
      </trkpt>
      <trkpt lat="44.12298" lon="7.20643">
        <ele>2250.505</ele>
        <time>2020-06-29T11:34:09Z</time>
      </trkpt>
      <trkpt lat="44.12297" lon="7.20643">
        <ele>2250.659</ele>
        <time>2020-06-29T11:34:25Z</time>
      </trkpt>
      <trkpt lat="44.12294" lon="7.20646">
        <ele>2254.64</ele>
        <time>2020-06-29T11:34:41Z</time>
      </trkpt>
      <trkpt lat="44.12288" lon="7.2066">
        <ele>2261.517</ele>
        <time>2020-06-29T11:34:57Z</time>
      </trkpt>
      <trkpt lat="44.12278" lon="7.20668">
        <ele>2262.114</ele>
        <time>2020-06-29T11:35:13Z</time>
      </trkpt>
      <trkpt lat="44.12265" lon="7.20679">
        <ele>2264.606</ele>
        <time>2020-06-29T11:35:29Z</time>
      </trkpt>
      <trkpt lat="44.12252" lon="7.20688">
        <ele>2266.658</ele>
        <time>2020-06-29T11:35:45Z</time>
      </trkpt>
      <trkpt lat="44.12239" lon="7.20695">
        <ele>2265.891</ele>
        <time>2020-06-29T11:36:00Z</time>
      </trkpt>
      <trkpt lat="44.12231" lon="7.20697">
        <ele>2266.745</ele>
        <time>2020-06-29T11:36:16Z</time>
      </trkpt>
      <trkpt lat="44.12224" lon="7.20689">
        <ele>2268.835</ele>
        <time>2020-06-29T11:36:31Z</time>
      </trkpt>
      <trkpt lat="44.12219" lon="7.20673">
        <ele>2272.508</ele>
        <time>2020-06-29T11:36:47Z</time>
      </trkpt>
      <trkpt lat="44.12217" lon="7.2067">
        <ele>2273.193</ele>
        <time>2020-06-29T11:37:03Z</time>
      </trkpt>
      <trkpt lat="44.12217" lon="7.2067">
        <ele>2273.193</ele>
        <time>2020-06-29T11:37:19Z</time>
      </trkpt>
      <trkpt lat="44.12217" lon="7.2067">
        <ele>2273.667</ele>
        <time>2020-06-29T11:37:34Z</time>
      </trkpt>
      <trkpt lat="44.12218" lon="7.2067">
        <ele>2274.266</ele>
        <time>2020-06-29T11:37:49Z</time>
      </trkpt>
      <trkpt lat="44.1222" lon="7.20671">
        <ele>2273.061</ele>
        <time>2020-06-29T11:38:05Z</time>
      </trkpt>
      <trkpt lat="44.12209" lon="7.2066">
        <ele>2277.284</ele>
        <time>2020-06-29T11:38:21Z</time>
      </trkpt>
      <trkpt lat="44.12215" lon="7.2065">
        <ele>2278.999</ele>
        <time>2020-06-29T11:38:37Z</time>
      </trkpt>
      <trkpt lat="44.12214" lon="7.20652">
        <ele>2278.031</ele>
        <time>2020-06-29T11:38:53Z</time>
      </trkpt>
      <trkpt lat="44.12214" lon="7.20652">
        <ele>2278.031</ele>
        <time>2020-06-29T11:39:08Z</time>
      </trkpt>
      <trkpt lat="44.12214" lon="7.20652">
        <ele>2278.031</ele>
        <time>2020-06-29T11:39:24Z</time>
      </trkpt>
      <trkpt lat="44.12214" lon="7.20652">
        <ele>2278.031</ele>
        <time>2020-06-29T11:39:39Z</time>
      </trkpt>
      <trkpt lat="44.12214" lon="7.20652">
        <ele>2278.031</ele>
        <time>2020-06-29T11:39:55Z</time>
      </trkpt>
      <trkpt lat="44.12214" lon="7.20652">
        <ele>2278.031</ele>
        <time>2020-06-29T11:40:11Z</time>
      </trkpt>
      <trkpt lat="44.12214" lon="7.20652">
        <ele>2278.031</ele>
        <time>2020-06-29T11:40:26Z</time>
      </trkpt>
      <trkpt lat="44.12214" lon="7.20652">
        <ele>2278.031</ele>
        <time>2020-06-29T11:40:42Z</time>
      </trkpt>
      <trkpt lat="44.12214" lon="7.20652">
        <ele>2278.031</ele>
        <time>2020-06-29T11:40:58Z</time>
      </trkpt>
      <trkpt lat="44.12214" lon="7.20652">
        <ele>2278.031</ele>
        <time>2020-06-29T11:41:13Z</time>
      </trkpt>
      <trkpt lat="44.12214" lon="7.20652">
        <ele>2278.031</ele>
        <time>2020-06-29T11:41:29Z</time>
      </trkpt>
      <trkpt lat="44.12214" lon="7.20652">
        <ele>2278.031</ele>
        <time>2020-06-29T11:41:45Z</time>
      </trkpt>
      <trkpt lat="44.12214" lon="7.20652">
        <ele>2278.031</ele>
        <time>2020-06-29T11:42:01Z</time>
      </trkpt>
      <trkpt lat="44.12214" lon="7.20652">
        <ele>2278.031</ele>
        <time>2020-06-29T11:42:16Z</time>
      </trkpt>
      <trkpt lat="44.12214" lon="7.20652">
        <ele>2278.031</ele>
        <time>2020-06-29T11:42:32Z</time>
      </trkpt>
      <trkpt lat="44.12214" lon="7.20652">
        <ele>2278.031</ele>
        <time>2020-06-29T11:42:48Z</time>
      </trkpt>
      <trkpt lat="44.12214" lon="7.20652">
        <ele>2278.031</ele>
        <time>2020-06-29T11:43:04Z</time>
      </trkpt>
      <trkpt lat="44.12215" lon="7.20651">
        <ele>2278.342</ele>
        <time>2020-06-29T11:43:20Z</time>
      </trkpt>
      <trkpt lat="44.12215" lon="7.20651">
        <ele>2278.342</ele>
        <time>2020-06-29T11:43:36Z</time>
      </trkpt>
      <trkpt lat="44.12216" lon="7.20653">
        <ele>2278.149</ele>
        <time>2020-06-29T11:43:52Z</time>
      </trkpt>
      <trkpt lat="44.12217" lon="7.20652">
        <ele>2278.58</ele>
        <time>2020-06-29T11:44:08Z</time>
      </trkpt>
      <trkpt lat="44.12217" lon="7.20652">
        <ele>2278.58</ele>
        <time>2020-06-29T11:44:24Z</time>
      </trkpt>
      <trkpt lat="44.12217" lon="7.20652">
        <ele>2278.58</ele>
        <time>2020-06-29T11:44:39Z</time>
      </trkpt>
      <trkpt lat="44.12217" lon="7.20652">
        <ele>2278.58</ele>
        <time>2020-06-29T11:44:55Z</time>
      </trkpt>
      <trkpt lat="44.12217" lon="7.20652">
        <ele>2278.58</ele>
        <time>2020-06-29T11:45:11Z</time>
      </trkpt>
      <trkpt lat="44.12216" lon="7.20651">
        <ele>2278.375</ele>
        <time>2020-06-29T11:45:26Z</time>
      </trkpt>
      <trkpt lat="44.12211" lon="7.20659">
        <ele>2279.718</ele>
        <time>2020-06-29T11:45:42Z</time>
      </trkpt>
      <trkpt lat="44.12211" lon="7.20659">
        <ele>2279.718</ele>
        <time>2020-06-29T11:45:57Z</time>
      </trkpt>
      <trkpt lat="44.12205" lon="7.2066">
        <ele>2278.598</ele>
        <time>2020-06-29T11:46:12Z</time>
      </trkpt>
      <trkpt lat="44.12193" lon="7.20663">
        <ele>2275.142</ele>
        <time>2020-06-29T11:46:28Z</time>
      </trkpt>
      <trkpt lat="44.12186" lon="7.20664">
        <ele>2273.213</ele>
        <time>2020-06-29T11:46:43Z</time>
      </trkpt>
      <trkpt lat="44.12174" lon="7.20652">
        <ele>2268.746</ele>
        <time>2020-06-29T11:46:59Z</time>
      </trkpt>
      <trkpt lat="44.12168" lon="7.20636">
        <ele>2268.459</ele>
        <time>2020-06-29T11:47:14Z</time>
      </trkpt>
      <trkpt lat="44.12168" lon="7.20636">
        <ele>2268.459</ele>
        <time>2020-06-29T11:47:30Z</time>
      </trkpt>
      <trkpt lat="44.12156" lon="7.2062">
        <ele>2273.173</ele>
        <time>2020-06-29T11:47:46Z</time>
      </trkpt>
      <trkpt lat="44.12147" lon="7.20609">
        <ele>2277.46</ele>
        <time>2020-06-29T11:48:02Z</time>
      </trkpt>
      <trkpt lat="44.12135" lon="7.20614">
        <ele>2285.42</ele>
        <time>2020-06-29T11:48:18Z</time>
      </trkpt>
      <trkpt lat="44.12123" lon="7.20621">
        <ele>2289.291</ele>
        <time>2020-06-29T11:48:34Z</time>
      </trkpt>
      <trkpt lat="44.12115" lon="7.20627">
        <ele>2291.922</ele>
        <time>2020-06-29T11:48:50Z</time>
      </trkpt>
      <trkpt lat="44.12109" lon="7.2063">
        <ele>2292.759</ele>
        <time>2020-06-29T11:49:05Z</time>
      </trkpt>
      <trkpt lat="44.12095" lon="7.2063">
        <ele>2291.213</ele>
        <time>2020-06-29T11:49:21Z</time>
      </trkpt>
      <trkpt lat="44.12081" lon="7.20628">
        <ele>2288.634</ele>
        <time>2020-06-29T11:49:37Z</time>
      </trkpt>
      <trkpt lat="44.1209" lon="7.20619">
        <ele>2293.799</ele>
        <time>2020-06-29T11:49:53Z</time>
      </trkpt>
      <trkpt lat="44.12092" lon="7.20614">
        <ele>2296.45</ele>
        <time>2020-06-29T11:50:09Z</time>
      </trkpt>
      <trkpt lat="44.12089" lon="7.20612">
        <ele>2296.252</ele>
        <time>2020-06-29T11:50:25Z</time>
      </trkpt>
      <trkpt lat="44.1209" lon="7.20609">
        <ele>2296.513</ele>
        <time>2020-06-29T11:50:40Z</time>
      </trkpt>
      <trkpt lat="44.12079" lon="7.20603">
        <ele>2300.751</ele>
        <time>2020-06-29T11:50:55Z</time>
      </trkpt>
      <trkpt lat="44.12064" lon="7.206">
        <ele>2298.832</ele>
        <time>2020-06-29T11:51:11Z</time>
      </trkpt>
      <trkpt lat="44.12064" lon="7.20591">
        <ele>2299.409</ele>
        <time>2020-06-29T11:51:27Z</time>
      </trkpt>
      <trkpt lat="44.12074" lon="7.20577">
        <ele>2304.662</ele>
        <time>2020-06-29T11:51:42Z</time>
      </trkpt>
      <trkpt lat="44.12076" lon="7.20565">
        <ele>2306.968</ele>
        <time>2020-06-29T11:51:58Z</time>
      </trkpt>
      <trkpt lat="44.12065" lon="7.20557">
        <ele>2307.69</ele>
        <time>2020-06-29T11:52:13Z</time>
      </trkpt>
      <trkpt lat="44.12057" lon="7.20557">
        <ele>2310.611</ele>
        <time>2020-06-29T11:52:29Z</time>
      </trkpt>
      <trkpt lat="44.12048" lon="7.20557">
        <ele>2309.989</ele>
        <time>2020-06-29T11:52:44Z</time>
      </trkpt>
      <trkpt lat="44.12048" lon="7.20557">
        <ele>2309.989</ele>
        <time>2020-06-29T11:52:59Z</time>
      </trkpt>
      <trkpt lat="44.12039" lon="7.2055">
        <ele>2312.078</ele>
        <time>2020-06-29T11:53:15Z</time>
      </trkpt>
      <trkpt lat="44.12032" lon="7.20547">
        <ele>2310.841</ele>
        <time>2020-06-29T11:53:30Z</time>
      </trkpt>
      <trkpt lat="44.12022" lon="7.20543">
        <ele>2311.667</ele>
        <time>2020-06-29T11:53:46Z</time>
      </trkpt>
      <trkpt lat="44.12013" lon="7.20538">
        <ele>2313.127</ele>
        <time>2020-06-29T11:54:02Z</time>
      </trkpt>
      <trkpt lat="44.11999" lon="7.20538">
        <ele>2314.803</ele>
        <time>2020-06-29T11:54:18Z</time>
      </trkpt>
      <trkpt lat="44.11993" lon="7.20543">
        <ele>2316.207</ele>
        <time>2020-06-29T11:54:33Z</time>
      </trkpt>
      <trkpt lat="44.11985" lon="7.20543">
        <ele>2323.946</ele>
        <time>2020-06-29T11:54:49Z</time>
      </trkpt>
      <trkpt lat="44.11973" lon="7.20543">
        <ele>2326.841</ele>
        <time>2020-06-29T11:55:04Z</time>
      </trkpt>
      <trkpt lat="44.11964" lon="7.2054">
        <ele>2326.908</ele>
        <time>2020-06-29T11:55:20Z</time>
      </trkpt>
      <trkpt lat="44.1196" lon="7.20533">
        <ele>2328.479</ele>
        <time>2020-06-29T11:55:35Z</time>
      </trkpt>
      <trkpt lat="44.11952" lon="7.20518">
        <ele>2333.077</ele>
        <time>2020-06-29T11:55:51Z</time>
      </trkpt>
      <trkpt lat="44.11958" lon="7.20507">
        <ele>2331.598</ele>
        <time>2020-06-29T11:56:06Z</time>
      </trkpt>
      <trkpt lat="44.11958" lon="7.20494">
        <ele>2333.465</ele>
        <time>2020-06-29T11:56:22Z</time>
      </trkpt>
      <trkpt lat="44.11954" lon="7.2049">
        <ele>2331.349</ele>
        <time>2020-06-29T11:56:38Z</time>
      </trkpt>
      <trkpt lat="44.11946" lon="7.20479">
        <ele>2330.076</ele>
        <time>2020-06-29T11:56:54Z</time>
      </trkpt>
      <trkpt lat="44.11936" lon="7.20463">
        <ele>2326.591</ele>
        <time>2020-06-29T11:57:10Z</time>
      </trkpt>
      <trkpt lat="44.1194" lon="7.20448">
        <ele>2318.091</ele>
        <time>2020-06-29T11:57:26Z</time>
      </trkpt>
      <trkpt lat="44.11938" lon="7.20441">
        <ele>2319.369</ele>
        <time>2020-06-29T11:57:42Z</time>
      </trkpt>
      <trkpt lat="44.11935" lon="7.20434">
        <ele>2319.718</ele>
        <time>2020-06-29T11:57:58Z</time>
      </trkpt>
      <trkpt lat="44.11929" lon="7.20435">
        <ele>2318.328</ele>
        <time>2020-06-29T11:58:13Z</time>
      </trkpt>
      <trkpt lat="44.11919" lon="7.20432">
        <ele>2317.522</ele>
        <time>2020-06-29T11:58:29Z</time>
      </trkpt>
      <trkpt lat="44.11917" lon="7.20429">
        <ele>2318.174</ele>
        <time>2020-06-29T11:58:44Z</time>
      </trkpt>
      <trkpt lat="44.11918" lon="7.2042">
        <ele>2320.779</ele>
        <time>2020-06-29T11:59:00Z</time>
      </trkpt>
      <trkpt lat="44.11921" lon="7.20408">
        <ele>2322.204</ele>
        <time>2020-06-29T11:59:15Z</time>
      </trkpt>
      <trkpt lat="44.11931" lon="7.20395">
        <ele>2318.996</ele>
        <time>2020-06-29T11:59:31Z</time>
      </trkpt>
      <trkpt lat="44.11924" lon="7.20392">
        <ele>2323.831</ele>
        <time>2020-06-29T11:59:47Z</time>
      </trkpt>
      <trkpt lat="44.11926" lon="7.20388">
        <ele>2325.385</ele>
        <time>2020-06-29T12:00:02Z</time>
      </trkpt>
      <trkpt lat="44.11926" lon="7.20388">
        <ele>2325.385</ele>
        <time>2020-06-29T12:00:18Z</time>
      </trkpt>
      <trkpt lat="44.1192" lon="7.20386">
        <ele>2326.618</ele>
        <time>2020-06-29T12:00:33Z</time>
      </trkpt>
      <trkpt lat="44.11914" lon="7.20383">
        <ele>2329.579</ele>
        <time>2020-06-29T12:00:49Z</time>
      </trkpt>
      <trkpt lat="44.11914" lon="7.20383">
        <ele>2329.579</ele>
        <time>2020-06-29T12:01:05Z</time>
      </trkpt>
      <trkpt lat="44.11895" lon="7.20381">
        <ele>2331.099</ele>
        <time>2020-06-29T12:01:21Z</time>
      </trkpt>
      <trkpt lat="44.11882" lon="7.20375">
        <ele>2338.673</ele>
        <time>2020-06-29T12:01:36Z</time>
      </trkpt>
      <trkpt lat="44.11877" lon="7.20361">
        <ele>2341.153</ele>
        <time>2020-06-29T12:01:52Z</time>
      </trkpt>
      <trkpt lat="44.11873" lon="7.20354">
        <ele>2344.271</ele>
        <time>2020-06-29T12:02:08Z</time>
      </trkpt>
      <trkpt lat="44.11863" lon="7.20346">
        <ele>2344.276</ele>
        <time>2020-06-29T12:02:23Z</time>
      </trkpt>
      <trkpt lat="44.11857" lon="7.20335">
        <ele>2341.253</ele>
        <time>2020-06-29T12:02:38Z</time>
      </trkpt>
      <trkpt lat="44.11854" lon="7.20331">
        <ele>2343.204</ele>
        <time>2020-06-29T12:02:54Z</time>
      </trkpt>
      <trkpt lat="44.11851" lon="7.20327">
        <ele>2343.055</ele>
        <time>2020-06-29T12:03:10Z</time>
      </trkpt>
      <trkpt lat="44.11851" lon="7.20327">
        <ele>2343.055</ele>
        <time>2020-06-29T12:03:25Z</time>
      </trkpt>
      <trkpt lat="44.11851" lon="7.20327">
        <ele>2343.055</ele>
        <time>2020-06-29T12:03:41Z</time>
      </trkpt>
      <trkpt lat="44.11842" lon="7.20317">
        <ele>2344.686</ele>
        <time>2020-06-29T12:03:57Z</time>
      </trkpt>
      <trkpt lat="44.11829" lon="7.20306">
        <ele>2349.568</ele>
        <time>2020-06-29T12:04:13Z</time>
      </trkpt>
      <trkpt lat="44.11819" lon="7.203">
        <ele>2354.823</ele>
        <time>2020-06-29T12:04:29Z</time>
      </trkpt>
      <trkpt lat="44.11812" lon="7.20296">
        <ele>2352.929</ele>
        <time>2020-06-29T12:04:44Z</time>
      </trkpt>
      <trkpt lat="44.11805" lon="7.20289">
        <ele>2353.778</ele>
        <time>2020-06-29T12:04:59Z</time>
      </trkpt>
      <trkpt lat="44.11808" lon="7.20282">
        <ele>2351.038</ele>
        <time>2020-06-29T12:05:15Z</time>
      </trkpt>
      <trkpt lat="44.11814" lon="7.20272">
        <ele>2355.502</ele>
        <time>2020-06-29T12:05:30Z</time>
      </trkpt>
      <trkpt lat="44.1182" lon="7.20261">
        <ele>2364.935</ele>
        <time>2020-06-29T12:05:46Z</time>
      </trkpt>
      <trkpt lat="44.11825" lon="7.20264">
        <ele>2371.317</ele>
        <time>2020-06-29T12:06:01Z</time>
      </trkpt>
      <trkpt lat="44.11833" lon="7.20258">
        <ele>2376.023</ele>
        <time>2020-06-29T12:06:17Z</time>
      </trkpt>
      <trkpt lat="44.11825" lon="7.20255">
        <ele>2390.746</ele>
        <time>2020-06-29T12:06:32Z</time>
      </trkpt>
      <trkpt lat="44.1182" lon="7.20256">
        <ele>2394.704</ele>
        <time>2020-06-29T12:06:48Z</time>
      </trkpt>
      <trkpt lat="44.11816" lon="7.20253">
        <ele>2402.305</ele>
        <time>2020-06-29T12:07:03Z</time>
      </trkpt>
      <trkpt lat="44.11808" lon="7.20248">
        <ele>2406.774</ele>
        <time>2020-06-29T12:07:19Z</time>
      </trkpt>
      <trkpt lat="44.11804" lon="7.20247">
        <ele>2410.296</ele>
        <time>2020-06-29T12:07:34Z</time>
      </trkpt>
      <trkpt lat="44.11795" lon="7.20249">
        <ele>2413.341</ele>
        <time>2020-06-29T12:07:49Z</time>
      </trkpt>
      <trkpt lat="44.11783" lon="7.20243">
        <ele>2418.755</ele>
        <time>2020-06-29T12:08:04Z</time>
      </trkpt>
      <trkpt lat="44.11775" lon="7.20237">
        <ele>2422.736</ele>
        <time>2020-06-29T12:08:20Z</time>
      </trkpt>
      <trkpt lat="44.11768" lon="7.2023">
        <ele>2427.989</ele>
        <time>2020-06-29T12:08:36Z</time>
      </trkpt>
      <trkpt lat="44.11762" lon="7.20229">
        <ele>2430.483</ele>
        <time>2020-06-29T12:08:52Z</time>
      </trkpt>
      <trkpt lat="44.11762" lon="7.20229">
        <ele>2430.483</ele>
        <time>2020-06-29T12:09:08Z</time>
      </trkpt>
      <trkpt lat="44.11762" lon="7.20224">
        <ele>2430.463</ele>
        <time>2020-06-29T12:09:24Z</time>
      </trkpt>
      <trkpt lat="44.11762" lon="7.20219">
        <ele>2429.965</ele>
        <time>2020-06-29T12:09:40Z</time>
      </trkpt>
      <trkpt lat="44.11765" lon="7.20212">
        <ele>2429.653</ele>
        <time>2020-06-29T12:09:56Z</time>
      </trkpt>
      <trkpt lat="44.11764" lon="7.20209">
        <ele>2431.951</ele>
        <time>2020-06-29T12:10:12Z</time>
      </trkpt>
      <trkpt lat="44.11759" lon="7.20202">
        <ele>2435.359</ele>
        <time>2020-06-29T12:10:28Z</time>
      </trkpt>
      <trkpt lat="44.1176" lon="7.20199">
        <ele>2434.393</ele>
        <time>2020-06-29T12:10:43Z</time>
      </trkpt>
      <trkpt lat="44.11772" lon="7.20187">
        <ele>2433.482</ele>
        <time>2020-06-29T12:10:59Z</time>
      </trkpt>
      <trkpt lat="44.11773" lon="7.20182">
        <ele>2436.474</ele>
        <time>2020-06-29T12:11:15Z</time>
      </trkpt>
      <trkpt lat="44.11773" lon="7.20181">
        <ele>2437.639</ele>
        <time>2020-06-29T12:11:31Z</time>
      </trkpt>
      <trkpt lat="44.1178" lon="7.20177">
        <ele>2437.987</ele>
        <time>2020-06-29T12:11:47Z</time>
      </trkpt>
      <trkpt lat="44.1178" lon="7.20174">
        <ele>2439.807</ele>
        <time>2020-06-29T12:12:02Z</time>
      </trkpt>
      <trkpt lat="44.11773" lon="7.20173">
        <ele>2445.505</ele>
        <time>2020-06-29T12:12:17Z</time>
      </trkpt>
      <trkpt lat="44.11768" lon="7.20173">
        <ele>2448.464</ele>
        <time>2020-06-29T12:12:32Z</time>
      </trkpt>
      <trkpt lat="44.1176" lon="7.20175">
        <ele>2452.369</ele>
        <time>2020-06-29T12:12:48Z</time>
      </trkpt>
      <trkpt lat="44.11758" lon="7.20171">
        <ele>2452.862</ele>
        <time>2020-06-29T12:13:04Z</time>
      </trkpt>
      <trkpt lat="44.11755" lon="7.20168">
        <ele>2454.299</ele>
        <time>2020-06-29T12:13:20Z</time>
      </trkpt>
      <trkpt lat="44.11752" lon="7.20167">
        <ele>2458.934</ele>
        <time>2020-06-29T12:13:35Z</time>
      </trkpt>
      <trkpt lat="44.11755" lon="7.20161">
        <ele>2459.039</ele>
        <time>2020-06-29T12:13:51Z</time>
      </trkpt>
      <trkpt lat="44.11759" lon="7.20154">
        <ele>2458.873</ele>
        <time>2020-06-29T12:14:06Z</time>
      </trkpt>
      <trkpt lat="44.11753" lon="7.20149">
        <ele>2464.928</ele>
        <time>2020-06-29T12:14:21Z</time>
      </trkpt>
      <trkpt lat="44.11744" lon="7.20156">
        <ele>2469.852</ele>
        <time>2020-06-29T12:14:37Z</time>
      </trkpt>
      <trkpt lat="44.11736" lon="7.20159">
        <ele>2472.188</ele>
        <time>2020-06-29T12:14:53Z</time>
      </trkpt>
      <trkpt lat="44.1173" lon="7.20164">
        <ele>2472.757</ele>
        <time>2020-06-29T12:15:09Z</time>
      </trkpt>
      <trkpt lat="44.11723" lon="7.20172">
        <ele>2475.092</ele>
        <time>2020-06-29T12:15:24Z</time>
      </trkpt>
      <trkpt lat="44.11718" lon="7.20175">
        <ele>2475.493</ele>
        <time>2020-06-29T12:15:40Z</time>
      </trkpt>
      <trkpt lat="44.11716" lon="7.20175">
        <ele>2475.447</ele>
        <time>2020-06-29T12:15:56Z</time>
      </trkpt>
      <trkpt lat="44.11714" lon="7.20177">
        <ele>2475.87</ele>
        <time>2020-06-29T12:16:11Z</time>
      </trkpt>
      <trkpt lat="44.11714" lon="7.20176">
        <ele>2475.913</ele>
        <time>2020-06-29T12:16:27Z</time>
      </trkpt>
      <trkpt lat="44.11706" lon="7.20172">
        <ele>2481.563</ele>
        <time>2020-06-29T12:16:42Z</time>
      </trkpt>
      <trkpt lat="44.11705" lon="7.20175">
        <ele>2482.679</ele>
        <time>2020-06-29T12:16:58Z</time>
      </trkpt>
      <trkpt lat="44.11701" lon="7.20181">
        <ele>2485.015</ele>
        <time>2020-06-29T12:17:13Z</time>
      </trkpt>
      <trkpt lat="44.11697" lon="7.20175">
        <ele>2485.822</ele>
        <time>2020-06-29T12:17:29Z</time>
      </trkpt>
      <trkpt lat="44.11695" lon="7.20165">
        <ele>2486.312</ele>
        <time>2020-06-29T12:17:45Z</time>
      </trkpt>
      <trkpt lat="44.117" lon="7.20152">
        <ele>2487.535</ele>
        <time>2020-06-29T12:18:01Z</time>
      </trkpt>
      <trkpt lat="44.11702" lon="7.20141">
        <ele>2490.591</ele>
        <time>2020-06-29T12:18:17Z</time>
      </trkpt>
      <trkpt lat="44.11706" lon="7.20125">
        <ele>2494.397</ele>
        <time>2020-06-29T12:18:32Z</time>
      </trkpt>
      <trkpt lat="44.11708" lon="7.20121">
        <ele>2494.477</ele>
        <time>2020-06-29T12:18:47Z</time>
      </trkpt>
      <trkpt lat="44.11708" lon="7.20121">
        <ele>2494.477</ele>
        <time>2020-06-29T12:19:03Z</time>
      </trkpt>
      <trkpt lat="44.11708" lon="7.20121">
        <ele>2494.477</ele>
        <time>2020-06-29T12:19:18Z</time>
      </trkpt>
      <trkpt lat="44.11708" lon="7.20121">
        <ele>2494.477</ele>
        <time>2020-06-29T12:19:34Z</time>
      </trkpt>
      <trkpt lat="44.11708" lon="7.20121">
        <ele>2494.477</ele>
        <time>2020-06-29T12:19:50Z</time>
      </trkpt>
      <trkpt lat="44.11708" lon="7.20121">
        <ele>2494.477</ele>
        <time>2020-06-29T12:20:06Z</time>
      </trkpt>
      <trkpt lat="44.11709" lon="7.2012">
        <ele>2494.36</ele>
        <time>2020-06-29T12:20:22Z</time>
      </trkpt>
      <trkpt lat="44.11709" lon="7.2012">
        <ele>2494.36</ele>
        <time>2020-06-29T12:20:38Z</time>
      </trkpt>
      <trkpt lat="44.1171" lon="7.20119">
        <ele>2494.208</ele>
        <time>2020-06-29T12:20:54Z</time>
      </trkpt>
      <trkpt lat="44.1171" lon="7.20118">
        <ele>2494.319</ele>
        <time>2020-06-29T12:21:09Z</time>
      </trkpt>
      <trkpt lat="44.11709" lon="7.20118">
        <ele>2494.709</ele>
        <time>2020-06-29T12:21:25Z</time>
      </trkpt>
      <trkpt lat="44.11709" lon="7.20118">
        <ele>2494.709</ele>
        <time>2020-06-29T12:21:42Z</time>
      </trkpt>
      <trkpt lat="44.11709" lon="7.20118">
        <ele>2494.857</ele>
        <time>2020-06-29T12:21:58Z</time>
      </trkpt>
      <trkpt lat="44.11709" lon="7.20118">
        <ele>2494.857</ele>
        <time>2020-06-29T12:22:13Z</time>
      </trkpt>
      <trkpt lat="44.11713" lon="7.20115">
        <ele>2495.392</ele>
        <time>2020-06-29T12:22:28Z</time>
      </trkpt>
      <trkpt lat="44.11714" lon="7.20112">
        <ele>2496.042</ele>
        <time>2020-06-29T12:22:44Z</time>
      </trkpt>
      <trkpt lat="44.11714" lon="7.20112">
        <ele>2496.042</ele>
        <time>2020-06-29T12:22:59Z</time>
      </trkpt>
      <trkpt lat="44.11714" lon="7.20112">
        <ele>2496.042</ele>
        <time>2020-06-29T12:23:14Z</time>
      </trkpt>
      <trkpt lat="44.11714" lon="7.20112">
        <ele>2496.042</ele>
        <time>2020-06-29T12:23:30Z</time>
      </trkpt>
      <trkpt lat="44.11714" lon="7.20112">
        <ele>2496.042</ele>
        <time>2020-06-29T12:23:46Z</time>
      </trkpt>
      <trkpt lat="44.11714" lon="7.2011">
        <ele>2496.205</ele>
        <time>2020-06-29T12:24:01Z</time>
      </trkpt>
      <trkpt lat="44.11714" lon="7.2011">
        <ele>2496.205</ele>
        <time>2020-06-29T12:24:16Z</time>
      </trkpt>
      <trkpt lat="44.11715" lon="7.2011">
        <ele>2496.453</ele>
        <time>2020-06-29T12:24:32Z</time>
      </trkpt>
      <trkpt lat="44.11715" lon="7.2011">
        <ele>2496.453</ele>
        <time>2020-06-29T12:24:48Z</time>
      </trkpt>
      <trkpt lat="44.1172" lon="7.201">
        <ele>2496.102</ele>
        <time>2020-06-29T12:25:03Z</time>
      </trkpt>
      <trkpt lat="44.11726" lon="7.20081">
        <ele>2496.967</ele>
        <time>2020-06-29T12:25:18Z</time>
      </trkpt>
      <trkpt lat="44.11733" lon="7.20059">
        <ele>2499.158</ele>
        <time>2020-06-29T12:25:34Z</time>
      </trkpt>
      <trkpt lat="44.11734" lon="7.20037">
        <ele>2502.266</ele>
        <time>2020-06-29T12:25:49Z</time>
      </trkpt>
      <trkpt lat="44.11744" lon="7.20018">
        <ele>2500.376</ele>
        <time>2020-06-29T12:26:05Z</time>
      </trkpt>
      <trkpt lat="44.11751" lon="7.19998">
        <ele>2500.165</ele>
        <time>2020-06-29T12:26:21Z</time>
      </trkpt>
      <trkpt lat="44.11752" lon="7.19993">
        <ele>2501.081</ele>
        <time>2020-06-29T12:26:36Z</time>
      </trkpt>
      <trkpt lat="44.11752" lon="7.19994">
        <ele>2501.361</ele>
        <time>2020-06-29T12:26:52Z</time>
      </trkpt>
      <trkpt lat="44.11753" lon="7.19993">
        <ele>2501.765</ele>
        <time>2020-06-29T12:27:08Z</time>
      </trkpt>
      <trkpt lat="44.1176" lon="7.19979">
        <ele>2500.992</ele>
        <time>2020-06-29T12:27:23Z</time>
      </trkpt>
      <trkpt lat="44.11767" lon="7.19965">
        <ele>2500.353</ele>
        <time>2020-06-29T12:27:39Z</time>
      </trkpt>
      <trkpt lat="44.1177" lon="7.19959">
        <ele>2501.038</ele>
        <time>2020-06-29T12:27:55Z</time>
      </trkpt>
      <trkpt lat="44.11766" lon="7.1996">
        <ele>2501.168</ele>
        <time>2020-06-29T12:28:11Z</time>
      </trkpt>
      <trkpt lat="44.11764" lon="7.19952">
        <ele>2498.565</ele>
        <time>2020-06-29T12:28:26Z</time>
      </trkpt>
      <trkpt lat="44.11764" lon="7.19939">
        <ele>2497.176</ele>
        <time>2020-06-29T12:28:42Z</time>
      </trkpt>
      <trkpt lat="44.11769" lon="7.19923">
        <ele>2493.367</ele>
        <time>2020-06-29T12:28:58Z</time>
      </trkpt>
      <trkpt lat="44.11776" lon="7.19909">
        <ele>2486.97</ele>
        <time>2020-06-29T12:29:14Z</time>
      </trkpt>
      <trkpt lat="44.11774" lon="7.19884">
        <ele>2485.774</ele>
        <time>2020-06-29T12:29:30Z</time>
      </trkpt>
      <trkpt lat="44.11784" lon="7.19863">
        <ele>2487.14</ele>
        <time>2020-06-29T12:29:46Z</time>
      </trkpt>
      <trkpt lat="44.1179" lon="7.19849">
        <ele>2484.34</ele>
        <time>2020-06-29T12:30:02Z</time>
      </trkpt>
      <trkpt lat="44.11792" lon="7.19835">
        <ele>2480.706</ele>
        <time>2020-06-29T12:30:17Z</time>
      </trkpt>
      <trkpt lat="44.11792" lon="7.19831">
        <ele>2480.88</ele>
        <time>2020-06-29T12:30:33Z</time>
      </trkpt>
      <trkpt lat="44.1179" lon="7.19833">
        <ele>2480.486</ele>
        <time>2020-06-29T12:30:48Z</time>
      </trkpt>
      <trkpt lat="44.11792" lon="7.19824">
        <ele>2476.169</ele>
        <time>2020-06-29T12:31:03Z</time>
      </trkpt>
      <trkpt lat="44.11794" lon="7.19807">
        <ele>2478.467</ele>
        <time>2020-06-29T12:31:18Z</time>
      </trkpt>
      <trkpt lat="44.11793" lon="7.19788">
        <ele>2477.619</ele>
        <time>2020-06-29T12:31:33Z</time>
      </trkpt>
      <trkpt lat="44.118" lon="7.19767">
        <ele>2478.854</ele>
        <time>2020-06-29T12:31:49Z</time>
      </trkpt>
      <trkpt lat="44.118" lon="7.19758">
        <ele>2476.423</ele>
        <time>2020-06-29T12:32:04Z</time>
      </trkpt>
      <trkpt lat="44.11796" lon="7.19759">
        <ele>2475.828</ele>
        <time>2020-06-29T12:32:20Z</time>
      </trkpt>
      <trkpt lat="44.11794" lon="7.19765">
        <ele>2473.275</ele>
        <time>2020-06-29T12:32:35Z</time>
      </trkpt>
      <trkpt lat="44.11793" lon="7.19766">
        <ele>2473.09</ele>
        <time>2020-06-29T12:32:50Z</time>
      </trkpt>
      <trkpt lat="44.11791" lon="7.19753">
        <ele>2469.035</ele>
        <time>2020-06-29T12:33:05Z</time>
      </trkpt>
      <trkpt lat="44.11791" lon="7.19731">
        <ele>2463.541</ele>
        <time>2020-06-29T12:33:20Z</time>
      </trkpt>
      <trkpt lat="44.11788" lon="7.19713">
        <ele>2461.154</ele>
        <time>2020-06-29T12:33:36Z</time>
      </trkpt>
      <trkpt lat="44.11788" lon="7.19694">
        <ele>2457.126</ele>
        <time>2020-06-29T12:33:51Z</time>
      </trkpt>
      <trkpt lat="44.11783" lon="7.19678">
        <ele>2455.462</ele>
        <time>2020-06-29T12:34:06Z</time>
      </trkpt>
      <trkpt lat="44.11779" lon="7.19661">
        <ele>2452.819</ele>
        <time>2020-06-29T12:34:21Z</time>
      </trkpt>
      <trkpt lat="44.11769" lon="7.19645">
        <ele>2449.841</ele>
        <time>2020-06-29T12:34:37Z</time>
      </trkpt>
      <trkpt lat="44.11766" lon="7.1964">
        <ele>2447.766</ele>
        <time>2020-06-29T12:34:53Z</time>
      </trkpt>
      <trkpt lat="44.11766" lon="7.1964">
        <ele>2447.766</ele>
        <time>2020-06-29T12:35:09Z</time>
      </trkpt>
      <trkpt lat="44.11763" lon="7.19635">
        <ele>2448.32</ele>
        <time>2020-06-29T12:35:24Z</time>
      </trkpt>
      <trkpt lat="44.11753" lon="7.19625">
        <ele>2450.205</ele>
        <time>2020-06-29T12:35:40Z</time>
      </trkpt>
      <trkpt lat="44.11739" lon="7.19617">
        <ele>2445.113</ele>
        <time>2020-06-29T12:35:55Z</time>
      </trkpt>
      <trkpt lat="44.11726" lon="7.1962">
        <ele>2429.881</ele>
        <time>2020-06-29T12:36:11Z</time>
      </trkpt>
      <trkpt lat="44.11716" lon="7.19615">
        <ele>2422.356</ele>
        <time>2020-06-29T12:36:27Z</time>
      </trkpt>
      <trkpt lat="44.11715" lon="7.196">
        <ele>2418.795</ele>
        <time>2020-06-29T12:36:43Z</time>
      </trkpt>
      <trkpt lat="44.11717" lon="7.19584">
        <ele>2421.621</ele>
        <time>2020-06-29T12:36:59Z</time>
      </trkpt>
      <trkpt lat="44.1172" lon="7.1956">
        <ele>2425.689</ele>
        <time>2020-06-29T12:37:14Z</time>
      </trkpt>
      <trkpt lat="44.11719" lon="7.19541">
        <ele>2427.748</ele>
        <time>2020-06-29T12:37:30Z</time>
      </trkpt>
      <trkpt lat="44.11718" lon="7.19521">
        <ele>2430.345</ele>
        <time>2020-06-29T12:37:46Z</time>
      </trkpt>
      <trkpt lat="44.11718" lon="7.19515">
        <ele>2430.294</ele>
        <time>2020-06-29T12:38:01Z</time>
      </trkpt>
      <trkpt lat="44.11717" lon="7.19515">
        <ele>2430.627</ele>
        <time>2020-06-29T12:38:17Z</time>
      </trkpt>
      <trkpt lat="44.11717" lon="7.19515">
        <ele>2430.627</ele>
        <time>2020-06-29T12:38:32Z</time>
      </trkpt>
      <trkpt lat="44.11717" lon="7.19504">
        <ele>2429.281</ele>
        <time>2020-06-29T12:38:48Z</time>
      </trkpt>
      <trkpt lat="44.11711" lon="7.19499">
        <ele>2428.595</ele>
        <time>2020-06-29T12:39:03Z</time>
      </trkpt>
      <trkpt lat="44.11708" lon="7.19498">
        <ele>2426.878</ele>
        <time>2020-06-29T12:39:18Z</time>
      </trkpt>
      <trkpt lat="44.11706" lon="7.19497">
        <ele>2426.959</ele>
        <time>2020-06-29T12:39:34Z</time>
      </trkpt>
      <trkpt lat="44.11697" lon="7.19496">
        <ele>2427.942</ele>
        <time>2020-06-29T12:39:49Z</time>
      </trkpt>
      <trkpt lat="44.11683" lon="7.19492">
        <ele>2428.224</ele>
        <time>2020-06-29T12:40:05Z</time>
      </trkpt>
      <trkpt lat="44.11674" lon="7.19492">
        <ele>2423.575</ele>
        <time>2020-06-29T12:40:20Z</time>
      </trkpt>
      <trkpt lat="44.11666" lon="7.19488">
        <ele>2421.106</ele>
        <time>2020-06-29T12:40:36Z</time>
      </trkpt>
      <trkpt lat="44.11658" lon="7.19485">
        <ele>2416.339</ele>
        <time>2020-06-29T12:40:52Z</time>
      </trkpt>
      <trkpt lat="44.11644" lon="7.19485">
        <ele>2415.678</ele>
        <time>2020-06-29T12:41:08Z</time>
      </trkpt>
      <trkpt lat="44.11636" lon="7.19484">
        <ele>2414.373</ele>
        <time>2020-06-29T12:41:23Z</time>
      </trkpt>
      <trkpt lat="44.11627" lon="7.19481">
        <ele>2413.126</ele>
        <time>2020-06-29T12:41:39Z</time>
      </trkpt>
      <trkpt lat="44.11612" lon="7.19478">
        <ele>2409.781</ele>
        <time>2020-06-29T12:41:54Z</time>
      </trkpt>
      <trkpt lat="44.11597" lon="7.19471">
        <ele>2406.152</ele>
        <time>2020-06-29T12:42:09Z</time>
      </trkpt>
      <trkpt lat="44.11579" lon="7.19463">
        <ele>2401.68</ele>
        <time>2020-06-29T12:42:25Z</time>
      </trkpt>
      <trkpt lat="44.11567" lon="7.19452">
        <ele>2398.339</ele>
        <time>2020-06-29T12:42:41Z</time>
      </trkpt>
      <trkpt lat="44.11555" lon="7.19436">
        <ele>2399.704</ele>
        <time>2020-06-29T12:42:57Z</time>
      </trkpt>
      <trkpt lat="44.11542" lon="7.19423">
        <ele>2398.491</ele>
        <time>2020-06-29T12:43:13Z</time>
      </trkpt>
      <trkpt lat="44.11525" lon="7.19423">
        <ele>2393.724</ele>
        <time>2020-06-29T12:43:29Z</time>
      </trkpt>
      <trkpt lat="44.11508" lon="7.19426">
        <ele>2387.28</ele>
        <time>2020-06-29T12:43:44Z</time>
      </trkpt>
      <trkpt lat="44.11497" lon="7.19425">
        <ele>2390.65</ele>
        <time>2020-06-29T12:43:59Z</time>
      </trkpt>
      <trkpt lat="44.11487" lon="7.19427">
        <ele>2393.698</ele>
        <time>2020-06-29T12:44:15Z</time>
      </trkpt>
      <trkpt lat="44.11481" lon="7.19435">
        <ele>2389.372</ele>
        <time>2020-06-29T12:44:31Z</time>
      </trkpt>
      <trkpt lat="44.11476" lon="7.19432">
        <ele>2378.489</ele>
        <time>2020-06-29T12:44:47Z</time>
      </trkpt>
      <trkpt lat="44.11465" lon="7.19444">
        <ele>2371.337</ele>
        <time>2020-06-29T12:45:02Z</time>
      </trkpt>
      <trkpt lat="44.11464" lon="7.19444">
        <ele>2370.992</ele>
        <time>2020-06-29T12:45:17Z</time>
      </trkpt>
      <trkpt lat="44.11464" lon="7.19444">
        <ele>2370.992</ele>
        <time>2020-06-29T12:45:33Z</time>
      </trkpt>
      <trkpt lat="44.11464" lon="7.19444">
        <ele>2370.992</ele>
        <time>2020-06-29T12:45:49Z</time>
      </trkpt>
      <trkpt lat="44.11464" lon="7.19444">
        <ele>2370.992</ele>
        <time>2020-06-29T12:46:04Z</time>
      </trkpt>
      <trkpt lat="44.11463" lon="7.19442">
        <ele>2372.143</ele>
        <time>2020-06-29T12:46:19Z</time>
      </trkpt>
      <trkpt lat="44.11463" lon="7.19442">
        <ele>2372.143</ele>
        <time>2020-06-29T12:46:35Z</time>
      </trkpt>
      <trkpt lat="44.11463" lon="7.19442">
        <ele>2372.143</ele>
        <time>2020-06-29T12:46:51Z</time>
      </trkpt>
      <trkpt lat="44.11448" lon="7.1944">
        <ele>2377.745</ele>
        <time>2020-06-29T12:47:07Z</time>
      </trkpt>
      <trkpt lat="44.11436" lon="7.19447">
        <ele>2379.155</ele>
        <time>2020-06-29T12:47:22Z</time>
      </trkpt>
      <trkpt lat="44.11427" lon="7.19453">
        <ele>2376.981</ele>
        <time>2020-06-29T12:47:38Z</time>
      </trkpt>
      <trkpt lat="44.11413" lon="7.19451">
        <ele>2378.106</ele>
        <time>2020-06-29T12:47:54Z</time>
      </trkpt>
      <trkpt lat="44.11402" lon="7.19451">
        <ele>2380.988</ele>
        <time>2020-06-29T12:48:09Z</time>
      </trkpt>
      <trkpt lat="44.11391" lon="7.19456">
        <ele>2379.222</ele>
        <time>2020-06-29T12:48:25Z</time>
      </trkpt>
      <trkpt lat="44.11378" lon="7.19454">
        <ele>2374.901</ele>
        <time>2020-06-29T12:48:40Z</time>
      </trkpt>
      <trkpt lat="44.11369" lon="7.19448">
        <ele>2372.769</ele>
        <time>2020-06-29T12:48:55Z</time>
      </trkpt>
      <trkpt lat="44.11369" lon="7.19447">
        <ele>2370.574</ele>
        <time>2020-06-29T12:49:11Z</time>
      </trkpt>
      <trkpt lat="44.11364" lon="7.19439">
        <ele>2371.276</ele>
        <time>2020-06-29T12:49:27Z</time>
      </trkpt>
      <trkpt lat="44.11364" lon="7.19439">
        <ele>2371.276</ele>
        <time>2020-06-29T12:49:42Z</time>
      </trkpt>
      <trkpt lat="44.11361" lon="7.19433">
        <ele>2371.47</ele>
        <time>2020-06-29T12:49:58Z</time>
      </trkpt>
      <trkpt lat="44.11361" lon="7.19417">
        <ele>2368.965</ele>
        <time>2020-06-29T12:50:13Z</time>
      </trkpt>
      <trkpt lat="44.11361" lon="7.19409">
        <ele>2366.569</ele>
        <time>2020-06-29T12:50:28Z</time>
      </trkpt>
      <trkpt lat="44.11356" lon="7.19392">
        <ele>2370.581</ele>
        <time>2020-06-29T12:50:43Z</time>
      </trkpt>
      <trkpt lat="44.11366" lon="7.19374">
        <ele>2371.89</ele>
        <time>2020-06-29T12:50:59Z</time>
      </trkpt>
      <trkpt lat="44.1138" lon="7.19372">
        <ele>2367.482</ele>
        <time>2020-06-29T12:51:14Z</time>
      </trkpt>
      <trkpt lat="44.11386" lon="7.19368">
        <ele>2365.235</ele>
        <time>2020-06-29T12:51:30Z</time>
      </trkpt>
      <trkpt lat="44.114" lon="7.19366">
        <ele>2366.202</ele>
        <time>2020-06-29T12:51:45Z</time>
      </trkpt>
      <trkpt lat="44.11404" lon="7.19351">
        <ele>2367.031</ele>
        <time>2020-06-29T12:52:01Z</time>
      </trkpt>
      <trkpt lat="44.11406" lon="7.19342">
        <ele>2367.988</ele>
        <time>2020-06-29T12:52:17Z</time>
      </trkpt>
      <trkpt lat="44.11404" lon="7.19329">
        <ele>2366.575</ele>
        <time>2020-06-29T12:52:33Z</time>
      </trkpt>
      <trkpt lat="44.11404" lon="7.19321">
        <ele>2364.755</ele>
        <time>2020-06-29T12:52:49Z</time>
      </trkpt>
      <trkpt lat="44.11402" lon="7.19306">
        <ele>2363.678</ele>
        <time>2020-06-29T12:53:05Z</time>
      </trkpt>
      <trkpt lat="44.11395" lon="7.19303">
        <ele>2356.524</ele>
        <time>2020-06-29T12:53:21Z</time>
      </trkpt>
      <trkpt lat="44.11394" lon="7.19302">
        <ele>2355.542</ele>
        <time>2020-06-29T12:53:37Z</time>
      </trkpt>
      <trkpt lat="44.11393" lon="7.19302">
        <ele>2355.396</ele>
        <time>2020-06-29T12:53:52Z</time>
      </trkpt>
      <trkpt lat="44.11393" lon="7.19302">
        <ele>2355.396</ele>
        <time>2020-06-29T12:54:07Z</time>
      </trkpt>
      <trkpt lat="44.11393" lon="7.19302">
        <ele>2355.396</ele>
        <time>2020-06-29T12:54:23Z</time>
      </trkpt>
      <trkpt lat="44.11393" lon="7.19302">
        <ele>2355.396</ele>
        <time>2020-06-29T12:54:38Z</time>
      </trkpt>
      <trkpt lat="44.11393" lon="7.19302">
        <ele>2355.396</ele>
        <time>2020-06-29T12:54:53Z</time>
      </trkpt>
      <trkpt lat="44.11393" lon="7.19302">
        <ele>2355.396</ele>
        <time>2020-06-29T12:55:09Z</time>
      </trkpt>
      <trkpt lat="44.11393" lon="7.19302">
        <ele>2355.396</ele>
        <time>2020-06-29T12:55:24Z</time>
      </trkpt>
      <trkpt lat="44.11393" lon="7.19302">
        <ele>2355.396</ele>
        <time>2020-06-29T12:55:39Z</time>
      </trkpt>
      <trkpt lat="44.11393" lon="7.19302">
        <ele>2355.396</ele>
        <time>2020-06-29T12:55:55Z</time>
      </trkpt>
      <trkpt lat="44.11393" lon="7.19302">
        <ele>2355.396</ele>
        <time>2020-06-29T12:56:11Z</time>
      </trkpt>
      <trkpt lat="44.11393" lon="7.19302">
        <ele>2355.396</ele>
        <time>2020-06-29T12:56:26Z</time>
      </trkpt>
      <trkpt lat="44.11393" lon="7.19302">
        <ele>2355.396</ele>
        <time>2020-06-29T12:56:42Z</time>
      </trkpt>
      <trkpt lat="44.11393" lon="7.19302">
        <ele>2355.396</ele>
        <time>2020-06-29T12:56:57Z</time>
      </trkpt>
      <trkpt lat="44.11393" lon="7.19302">
        <ele>2355.396</ele>
        <time>2020-06-29T12:57:13Z</time>
      </trkpt>
      <trkpt lat="44.11393" lon="7.19302">
        <ele>2355.396</ele>
        <time>2020-06-29T12:57:29Z</time>
      </trkpt>
      <trkpt lat="44.11393" lon="7.19302">
        <ele>2355.396</ele>
        <time>2020-06-29T12:57:44Z</time>
      </trkpt>
      <trkpt lat="44.11393" lon="7.19302">
        <ele>2355.396</ele>
        <time>2020-06-29T12:58:00Z</time>
      </trkpt>
      <trkpt lat="44.11393" lon="7.19302">
        <ele>2355.396</ele>
        <time>2020-06-29T12:58:15Z</time>
      </trkpt>
      <trkpt lat="44.11393" lon="7.19302">
        <ele>2355.396</ele>
        <time>2020-06-29T12:58:31Z</time>
      </trkpt>
      <trkpt lat="44.11393" lon="7.19302">
        <ele>2355.396</ele>
        <time>2020-06-29T12:58:47Z</time>
      </trkpt>
      <trkpt lat="44.11393" lon="7.19302">
        <ele>2355.396</ele>
        <time>2020-06-29T12:59:03Z</time>
      </trkpt>
      <trkpt lat="44.11393" lon="7.19302">
        <ele>2355.396</ele>
        <time>2020-06-29T12:59:19Z</time>
      </trkpt>
      <trkpt lat="44.11393" lon="7.19302">
        <ele>2355.396</ele>
        <time>2020-06-29T12:59:35Z</time>
      </trkpt>
      <trkpt lat="44.11393" lon="7.19302">
        <ele>2355.396</ele>
        <time>2020-06-29T12:59:50Z</time>
      </trkpt>
      <trkpt lat="44.11393" lon="7.19302">
        <ele>2355.396</ele>
        <time>2020-06-29T13:00:06Z</time>
      </trkpt>
      <trkpt lat="44.11393" lon="7.19302">
        <ele>2355.396</ele>
        <time>2020-06-29T13:00:21Z</time>
      </trkpt>
      <trkpt lat="44.11393" lon="7.19302">
        <ele>2355.396</ele>
        <time>2020-06-29T13:00:37Z</time>
      </trkpt>
      <trkpt lat="44.11393" lon="7.19302">
        <ele>2355.396</ele>
        <time>2020-06-29T13:00:52Z</time>
      </trkpt>
      <trkpt lat="44.11393" lon="7.19302">
        <ele>2355.396</ele>
        <time>2020-06-29T13:01:08Z</time>
      </trkpt>
      <trkpt lat="44.11393" lon="7.193">
        <ele>2355.46</ele>
        <time>2020-06-29T13:01:24Z</time>
      </trkpt>
      <trkpt lat="44.11393" lon="7.193">
        <ele>2355.46</ele>
        <time>2020-06-29T13:01:40Z</time>
      </trkpt>
      <trkpt lat="44.11393" lon="7.193">
        <ele>2355.46</ele>
        <time>2020-06-29T13:01:56Z</time>
      </trkpt>
      <trkpt lat="44.11392" lon="7.19299">
        <ele>2357.471</ele>
        <time>2020-06-29T13:02:12Z</time>
      </trkpt>
      <trkpt lat="44.11391" lon="7.193">
        <ele>2358.82</ele>
        <time>2020-06-29T13:02:28Z</time>
      </trkpt>
      <trkpt lat="44.11391" lon="7.193">
        <ele>2358.82</ele>
        <time>2020-06-29T13:02:44Z</time>
      </trkpt>
      <trkpt lat="44.11391" lon="7.19299">
        <ele>2358.966</ele>
        <time>2020-06-29T13:03:00Z</time>
      </trkpt>
      <trkpt lat="44.11391" lon="7.19299">
        <ele>2358.966</ele>
        <time>2020-06-29T13:03:15Z</time>
      </trkpt>
      <trkpt lat="44.11391" lon="7.19299">
        <ele>2358.966</ele>
        <time>2020-06-29T13:03:31Z</time>
      </trkpt>
      <trkpt lat="44.11391" lon="7.19299">
        <ele>2358.966</ele>
        <time>2020-06-29T13:03:47Z</time>
      </trkpt>
      <trkpt lat="44.11391" lon="7.19299">
        <ele>2358.966</ele>
        <time>2020-06-29T13:04:02Z</time>
      </trkpt>
      <trkpt lat="44.11391" lon="7.19299">
        <ele>2358.966</ele>
        <time>2020-06-29T13:04:18Z</time>
      </trkpt>
      <trkpt lat="44.11391" lon="7.19299">
        <ele>2358.966</ele>
        <time>2020-06-29T13:04:34Z</time>
      </trkpt>
      <trkpt lat="44.11391" lon="7.19299">
        <ele>2358.966</ele>
        <time>2020-06-29T13:04:49Z</time>
      </trkpt>
      <trkpt lat="44.11391" lon="7.19299">
        <ele>2358.966</ele>
        <time>2020-06-29T13:05:05Z</time>
      </trkpt>
      <trkpt lat="44.11391" lon="7.19299">
        <ele>2358.966</ele>
        <time>2020-06-29T13:05:20Z</time>
      </trkpt>
      <trkpt lat="44.11391" lon="7.19299">
        <ele>2358.966</ele>
        <time>2020-06-29T13:05:36Z</time>
      </trkpt>
      <trkpt lat="44.11391" lon="7.19299">
        <ele>2358.966</ele>
        <time>2020-06-29T13:05:51Z</time>
      </trkpt>
      <trkpt lat="44.11391" lon="7.19299">
        <ele>2358.966</ele>
        <time>2020-06-29T13:06:07Z</time>
      </trkpt>
      <trkpt lat="44.11391" lon="7.19299">
        <ele>2358.966</ele>
        <time>2020-06-29T13:06:22Z</time>
      </trkpt>
      <trkpt lat="44.11391" lon="7.19299">
        <ele>2358.966</ele>
        <time>2020-06-29T13:06:38Z</time>
      </trkpt>
      <trkpt lat="44.11391" lon="7.19299">
        <ele>2358.966</ele>
        <time>2020-06-29T13:06:54Z</time>
      </trkpt>
      <trkpt lat="44.11392" lon="7.19299">
        <ele>2358.718</ele>
        <time>2020-06-29T13:07:10Z</time>
      </trkpt>
      <trkpt lat="44.11394" lon="7.19298">
        <ele>2358.362</ele>
        <time>2020-06-29T13:07:25Z</time>
      </trkpt>
      <trkpt lat="44.11394" lon="7.19298">
        <ele>2358.362</ele>
        <time>2020-06-29T13:07:41Z</time>
      </trkpt>
      <trkpt lat="44.11394" lon="7.19299">
        <ele>2358.823</ele>
        <time>2020-06-29T13:07:57Z</time>
      </trkpt>
      <trkpt lat="44.11394" lon="7.19299">
        <ele>2358.823</ele>
        <time>2020-06-29T13:08:12Z</time>
      </trkpt>
      <trkpt lat="44.11394" lon="7.19299">
        <ele>2358.823</ele>
        <time>2020-06-29T13:08:28Z</time>
      </trkpt>
      <trkpt lat="44.11394" lon="7.19299">
        <ele>2358.823</ele>
        <time>2020-06-29T13:08:43Z</time>
      </trkpt>
      <trkpt lat="44.11394" lon="7.19299">
        <ele>2358.823</ele>
        <time>2020-06-29T13:08:58Z</time>
      </trkpt>
      <trkpt lat="44.11394" lon="7.19299">
        <ele>2358.823</ele>
        <time>2020-06-29T13:09:14Z</time>
      </trkpt>
      <trkpt lat="44.11394" lon="7.19299">
        <ele>2358.823</ele>
        <time>2020-06-29T13:09:29Z</time>
      </trkpt>
      <trkpt lat="44.11394" lon="7.19299">
        <ele>2358.823</ele>
        <time>2020-06-29T13:09:45Z</time>
      </trkpt>
      <trkpt lat="44.11394" lon="7.19299">
        <ele>2358.823</ele>
        <time>2020-06-29T13:10:01Z</time>
      </trkpt>
      <trkpt lat="44.11394" lon="7.19297">
        <ele>2358.993</ele>
        <time>2020-06-29T13:10:17Z</time>
      </trkpt>
      <trkpt lat="44.11394" lon="7.19297">
        <ele>2358.993</ele>
        <time>2020-06-29T13:10:33Z</time>
      </trkpt>
      <trkpt lat="44.11395" lon="7.19297">
        <ele>2358.62</ele>
        <time>2020-06-29T13:10:49Z</time>
      </trkpt>
      <trkpt lat="44.11395" lon="7.19297">
        <ele>2358.62</ele>
        <time>2020-06-29T13:11:04Z</time>
      </trkpt>
      <trkpt lat="44.11395" lon="7.19295">
        <ele>2358.253</ele>
        <time>2020-06-29T13:11:19Z</time>
      </trkpt>
      <trkpt lat="44.11395" lon="7.19298">
        <ele>2356.906</ele>
        <time>2020-06-29T13:11:34Z</time>
      </trkpt>
      <trkpt lat="44.11395" lon="7.19298">
        <ele>2356.906</ele>
        <time>2020-06-29T13:11:50Z</time>
      </trkpt>
      <trkpt lat="44.11395" lon="7.19298">
        <ele>2356.906</ele>
        <time>2020-06-29T13:12:06Z</time>
      </trkpt>
      <trkpt lat="44.11395" lon="7.19298">
        <ele>2356.906</ele>
        <time>2020-06-29T13:12:21Z</time>
      </trkpt>
      <trkpt lat="44.11395" lon="7.19298">
        <ele>2356.906</ele>
        <time>2020-06-29T13:12:37Z</time>
      </trkpt>
      <trkpt lat="44.11395" lon="7.19298">
        <ele>2356.906</ele>
        <time>2020-06-29T13:12:53Z</time>
      </trkpt>
      <trkpt lat="44.11395" lon="7.19298">
        <ele>2356.906</ele>
        <time>2020-06-29T13:13:08Z</time>
      </trkpt>
      <trkpt lat="44.11395" lon="7.19298">
        <ele>2356.906</ele>
        <time>2020-06-29T13:13:23Z</time>
      </trkpt>
      <trkpt lat="44.11395" lon="7.19298">
        <ele>2356.906</ele>
        <time>2020-06-29T13:13:38Z</time>
      </trkpt>
      <trkpt lat="44.11395" lon="7.19298">
        <ele>2356.906</ele>
        <time>2020-06-29T13:13:54Z</time>
      </trkpt>
      <trkpt lat="44.11395" lon="7.19298">
        <ele>2356.906</ele>
        <time>2020-06-29T13:14:09Z</time>
      </trkpt>
      <trkpt lat="44.11395" lon="7.19298">
        <ele>2356.906</ele>
        <time>2020-06-29T13:14:25Z</time>
      </trkpt>
      <trkpt lat="44.11395" lon="7.19298">
        <ele>2356.906</ele>
        <time>2020-06-29T13:14:40Z</time>
      </trkpt>
      <trkpt lat="44.11395" lon="7.19298">
        <ele>2356.906</ele>
        <time>2020-06-29T13:14:56Z</time>
      </trkpt>
      <trkpt lat="44.11395" lon="7.19298">
        <ele>2356.906</ele>
        <time>2020-06-29T13:15:11Z</time>
      </trkpt>
      <trkpt lat="44.11395" lon="7.19298">
        <ele>2356.906</ele>
        <time>2020-06-29T13:15:27Z</time>
      </trkpt>
      <trkpt lat="44.11395" lon="7.19298">
        <ele>2356.906</ele>
        <time>2020-06-29T13:15:42Z</time>
      </trkpt>
      <trkpt lat="44.11395" lon="7.19298">
        <ele>2356.906</ele>
        <time>2020-06-29T13:15:58Z</time>
      </trkpt>
      <trkpt lat="44.11396" lon="7.19297">
        <ele>2357.107</ele>
        <time>2020-06-29T13:16:14Z</time>
      </trkpt>
      <trkpt lat="44.11396" lon="7.19297">
        <ele>2357.107</ele>
        <time>2020-06-29T13:16:29Z</time>
      </trkpt>
      <trkpt lat="44.11396" lon="7.19297">
        <ele>2357.107</ele>
        <time>2020-06-29T13:16:44Z</time>
      </trkpt>
      <trkpt lat="44.11396" lon="7.19297">
        <ele>2357.107</ele>
        <time>2020-06-29T13:17:00Z</time>
      </trkpt>
      <trkpt lat="44.11395" lon="7.19298">
        <ele>2358.182</ele>
        <time>2020-06-29T13:17:15Z</time>
      </trkpt>
      <trkpt lat="44.11395" lon="7.19298">
        <ele>2358.182</ele>
        <time>2020-06-29T13:17:31Z</time>
      </trkpt>
      <trkpt lat="44.11395" lon="7.19298">
        <ele>2358.182</ele>
        <time>2020-06-29T13:17:46Z</time>
      </trkpt>
      <trkpt lat="44.11395" lon="7.19298">
        <ele>2358.182</ele>
        <time>2020-06-29T13:18:01Z</time>
      </trkpt>
      <trkpt lat="44.11395" lon="7.19298">
        <ele>2358.182</ele>
        <time>2020-06-29T13:18:17Z</time>
      </trkpt>
      <trkpt lat="44.11395" lon="7.19298">
        <ele>2358.418</ele>
        <time>2020-06-29T13:18:32Z</time>
      </trkpt>
      <trkpt lat="44.11395" lon="7.19298">
        <ele>2358.418</ele>
        <time>2020-06-29T13:18:47Z</time>
      </trkpt>
      <trkpt lat="44.11399" lon="7.19292">
        <ele>2360.227</ele>
        <time>2020-06-29T13:19:03Z</time>
      </trkpt>
      <trkpt lat="44.1141" lon="7.19289">
        <ele>2361.542</ele>
        <time>2020-06-29T13:19:19Z</time>
      </trkpt>
      <trkpt lat="44.11411" lon="7.1928">
        <ele>2365.652</ele>
        <time>2020-06-29T13:19:35Z</time>
      </trkpt>
      <trkpt lat="44.11416" lon="7.19263">
        <ele>2367.11</ele>
        <time>2020-06-29T13:19:51Z</time>
      </trkpt>
      <trkpt lat="44.11432" lon="7.19254">
        <ele>2369.151</ele>
        <time>2020-06-29T13:20:07Z</time>
      </trkpt>
      <trkpt lat="44.11446" lon="7.19247">
        <ele>2365.787</ele>
        <time>2020-06-29T13:20:22Z</time>
      </trkpt>
      <trkpt lat="44.11454" lon="7.19243">
        <ele>2365.439</ele>
        <time>2020-06-29T13:20:38Z</time>
      </trkpt>
      <trkpt lat="44.11463" lon="7.19222">
        <ele>2361.38</ele>
        <time>2020-06-29T13:20:53Z</time>
      </trkpt>
      <trkpt lat="44.11472" lon="7.19202">
        <ele>2364.578</ele>
        <time>2020-06-29T13:21:08Z</time>
      </trkpt>
      <trkpt lat="44.11481" lon="7.1918">
        <ele>2365.702</ele>
        <time>2020-06-29T13:21:24Z</time>
      </trkpt>
      <trkpt lat="44.11488" lon="7.19161">
        <ele>2365.606</ele>
        <time>2020-06-29T13:21:40Z</time>
      </trkpt>
      <trkpt lat="44.11492" lon="7.19149">
        <ele>2361.841</ele>
        <time>2020-06-29T13:21:55Z</time>
      </trkpt>
      <trkpt lat="44.11492" lon="7.19147">
        <ele>2362.581</ele>
        <time>2020-06-29T13:22:11Z</time>
      </trkpt>
      <trkpt lat="44.11494" lon="7.19147">
        <ele>2361.824</ele>
        <time>2020-06-29T13:22:27Z</time>
      </trkpt>
      <trkpt lat="44.11493" lon="7.19147">
        <ele>2361.909</ele>
        <time>2020-06-29T13:22:43Z</time>
      </trkpt>
      <trkpt lat="44.11486" lon="7.1914">
        <ele>2361.962</ele>
        <time>2020-06-29T13:22:58Z</time>
      </trkpt>
      <trkpt lat="44.11471" lon="7.19134">
        <ele>2362.806</ele>
        <time>2020-06-29T13:23:13Z</time>
      </trkpt>
      <trkpt lat="44.11458" lon="7.19115">
        <ele>2361.284</ele>
        <time>2020-06-29T13:23:29Z</time>
      </trkpt>
      <trkpt lat="44.11457" lon="7.19093">
        <ele>2358.916</ele>
        <time>2020-06-29T13:23:45Z</time>
      </trkpt>
      <trkpt lat="44.11459" lon="7.19092">
        <ele>2358.363</ele>
        <time>2020-06-29T13:24:00Z</time>
      </trkpt>
      <trkpt lat="44.11455" lon="7.19076">
        <ele>2358.879</ele>
        <time>2020-06-29T13:24:15Z</time>
      </trkpt>
      <trkpt lat="44.11455" lon="7.19076">
        <ele>2358.879</ele>
        <time>2020-06-29T13:24:31Z</time>
      </trkpt>
      <trkpt lat="44.11455" lon="7.19076">
        <ele>2358.879</ele>
        <time>2020-06-29T13:24:47Z</time>
      </trkpt>
      <trkpt lat="44.11456" lon="7.19073">
        <ele>2357.698</ele>
        <time>2020-06-29T13:25:02Z</time>
      </trkpt>
      <trkpt lat="44.11456" lon="7.19073">
        <ele>2357.698</ele>
        <time>2020-06-29T13:25:17Z</time>
      </trkpt>
      <trkpt lat="44.11457" lon="7.19072">
        <ele>2357.392</ele>
        <time>2020-06-29T13:25:32Z</time>
      </trkpt>
      <trkpt lat="44.11457" lon="7.19065">
        <ele>2355.31</ele>
        <time>2020-06-29T13:25:48Z</time>
      </trkpt>
      <trkpt lat="44.11458" lon="7.1906">
        <ele>2354.377</ele>
        <time>2020-06-29T13:26:04Z</time>
      </trkpt>
      <trkpt lat="44.11454" lon="7.19056">
        <ele>2354.431</ele>
        <time>2020-06-29T13:26:20Z</time>
      </trkpt>
      <trkpt lat="44.11448" lon="7.19046">
        <ele>2353.321</ele>
        <time>2020-06-29T13:26:35Z</time>
      </trkpt>
      <trkpt lat="44.11449" lon="7.19034">
        <ele>2348.573</ele>
        <time>2020-06-29T13:26:51Z</time>
      </trkpt>
      <trkpt lat="44.11449" lon="7.19026">
        <ele>2344.462</ele>
        <time>2020-06-29T13:27:06Z</time>
      </trkpt>
      <trkpt lat="44.11448" lon="7.19024">
        <ele>2342.651</ele>
        <time>2020-06-29T13:27:22Z</time>
      </trkpt>
      <trkpt lat="44.11443" lon="7.19024">
        <ele>2339.216</ele>
        <time>2020-06-29T13:27:37Z</time>
      </trkpt>
      <trkpt lat="44.1144" lon="7.19017">
        <ele>2336.893</ele>
        <time>2020-06-29T13:27:52Z</time>
      </trkpt>
      <trkpt lat="44.11437" lon="7.19014">
        <ele>2336.457</ele>
        <time>2020-06-29T13:28:07Z</time>
      </trkpt>
      <trkpt lat="44.11435" lon="7.1901">
        <ele>2335.463</ele>
        <time>2020-06-29T13:28:23Z</time>
      </trkpt>
      <trkpt lat="44.11432" lon="7.19001">
        <ele>2332.434</ele>
        <time>2020-06-29T13:28:38Z</time>
      </trkpt>
      <trkpt lat="44.1143" lon="7.18989">
        <ele>2327.727</ele>
        <time>2020-06-29T13:28:54Z</time>
      </trkpt>
      <trkpt lat="44.11425" lon="7.1897">
        <ele>2322.832</ele>
        <time>2020-06-29T13:29:10Z</time>
      </trkpt>
      <trkpt lat="44.1142" lon="7.18952">
        <ele>2319.07</ele>
        <time>2020-06-29T13:29:26Z</time>
      </trkpt>
      <trkpt lat="44.11415" lon="7.18939">
        <ele>2320.439</ele>
        <time>2020-06-29T13:29:41Z</time>
      </trkpt>
      <trkpt lat="44.11415" lon="7.18934">
        <ele>2319.797</ele>
        <time>2020-06-29T13:29:57Z</time>
      </trkpt>
      <trkpt lat="44.11424" lon="7.18921">
        <ele>2317.036</ele>
        <time>2020-06-29T13:30:13Z</time>
      </trkpt>
      <trkpt lat="44.11427" lon="7.18902">
        <ele>2310.059</ele>
        <time>2020-06-29T13:30:28Z</time>
      </trkpt>
      <trkpt lat="44.11427" lon="7.18886">
        <ele>2306.38</ele>
        <time>2020-06-29T13:30:44Z</time>
      </trkpt>
      <trkpt lat="44.11426" lon="7.18865">
        <ele>2304.966</ele>
        <time>2020-06-29T13:30:59Z</time>
      </trkpt>
      <trkpt lat="44.11421" lon="7.18842">
        <ele>2303.348</ele>
        <time>2020-06-29T13:31:15Z</time>
      </trkpt>
      <trkpt lat="44.11415" lon="7.18829">
        <ele>2302.941</ele>
        <time>2020-06-29T13:31:30Z</time>
      </trkpt>
      <trkpt lat="44.11405" lon="7.18811">
        <ele>2301.816</ele>
        <time>2020-06-29T13:31:45Z</time>
      </trkpt>
      <trkpt lat="44.11395" lon="7.188">
        <ele>2300.69</ele>
        <time>2020-06-29T13:32:01Z</time>
      </trkpt>
      <trkpt lat="44.11383" lon="7.18793">
        <ele>2300.266</ele>
        <time>2020-06-29T13:32:17Z</time>
      </trkpt>
      <trkpt lat="44.1137" lon="7.18786">
        <ele>2295.41</ele>
        <time>2020-06-29T13:32:33Z</time>
      </trkpt>
      <trkpt lat="44.11354" lon="7.18782">
        <ele>2291.664</ele>
        <time>2020-06-29T13:32:49Z</time>
      </trkpt>
      <trkpt lat="44.11336" lon="7.18786">
        <ele>2287.481</ele>
        <time>2020-06-29T13:33:05Z</time>
      </trkpt>
      <trkpt lat="44.11324" lon="7.18788">
        <ele>2284.783</ele>
        <time>2020-06-29T13:33:21Z</time>
      </trkpt>
      <trkpt lat="44.1131" lon="7.18795">
        <ele>2282.372</ele>
        <time>2020-06-29T13:33:36Z</time>
      </trkpt>
      <trkpt lat="44.11293" lon="7.18801">
        <ele>2279.372</ele>
        <time>2020-06-29T13:33:52Z</time>
      </trkpt>
      <trkpt lat="44.11278" lon="7.18813">
        <ele>2280.911</ele>
        <time>2020-06-29T13:34:08Z</time>
      </trkpt>
      <trkpt lat="44.11268" lon="7.18836">
        <ele>2281.758</ele>
        <time>2020-06-29T13:34:24Z</time>
      </trkpt>
      <trkpt lat="44.11257" lon="7.18845">
        <ele>2278.935</ele>
        <time>2020-06-29T13:34:40Z</time>
      </trkpt>
      <trkpt lat="44.11245" lon="7.18852">
        <ele>2279.279</ele>
        <time>2020-06-29T13:34:56Z</time>
      </trkpt>
      <trkpt lat="44.11241" lon="7.1885">
        <ele>2279.507</ele>
        <time>2020-06-29T13:35:11Z</time>
      </trkpt>
      <trkpt lat="44.11241" lon="7.1885">
        <ele>2279.507</ele>
        <time>2020-06-29T13:35:27Z</time>
      </trkpt>
      <trkpt lat="44.11241" lon="7.1885">
        <ele>2279.507</ele>
        <time>2020-06-29T13:35:42Z</time>
      </trkpt>
      <trkpt lat="44.11241" lon="7.1885">
        <ele>2279.507</ele>
        <time>2020-06-29T13:35:57Z</time>
      </trkpt>
      <trkpt lat="44.11241" lon="7.18851">
        <ele>2279.11</ele>
        <time>2020-06-29T13:36:12Z</time>
      </trkpt>
      <trkpt lat="44.11241" lon="7.18851">
        <ele>2278.851</ele>
        <time>2020-06-29T13:36:27Z</time>
      </trkpt>
      <trkpt lat="44.11241" lon="7.18851">
        <ele>2278.851</ele>
        <time>2020-06-29T13:36:43Z</time>
      </trkpt>
      <trkpt lat="44.11242" lon="7.18851">
        <ele>2279.208</ele>
        <time>2020-06-29T13:36:59Z</time>
      </trkpt>
      <trkpt lat="44.11237" lon="7.18856">
        <ele>2279.503</ele>
        <time>2020-06-29T13:37:15Z</time>
      </trkpt>
      <trkpt lat="44.11232" lon="7.18869">
        <ele>2280.094</ele>
        <time>2020-06-29T13:37:31Z</time>
      </trkpt>
      <trkpt lat="44.11226" lon="7.1888">
        <ele>2282.122</ele>
        <time>2020-06-29T13:37:46Z</time>
      </trkpt>
      <trkpt lat="44.11212" lon="7.18866">
        <ele>2280.518</ele>
        <time>2020-06-29T13:38:02Z</time>
      </trkpt>
      <trkpt lat="44.11196" lon="7.18866">
        <ele>2278.193</ele>
        <time>2020-06-29T13:38:17Z</time>
      </trkpt>
      <trkpt lat="44.11178" lon="7.18863">
        <ele>2277.862</ele>
        <time>2020-06-29T13:38:33Z</time>
      </trkpt>
      <trkpt lat="44.11164" lon="7.18861">
        <ele>2277.784</ele>
        <time>2020-06-29T13:38:48Z</time>
      </trkpt>
      <trkpt lat="44.11152" lon="7.18867">
        <ele>2277.219</ele>
        <time>2020-06-29T13:39:04Z</time>
      </trkpt>
      <trkpt lat="44.1114" lon="7.18873">
        <ele>2274.202</ele>
        <time>2020-06-29T13:39:19Z</time>
      </trkpt>
      <trkpt lat="44.11128" lon="7.18878">
        <ele>2271.546</ele>
        <time>2020-06-29T13:39:35Z</time>
      </trkpt>
      <trkpt lat="44.11116" lon="7.18885">
        <ele>2269.121</ele>
        <time>2020-06-29T13:39:51Z</time>
      </trkpt>
      <trkpt lat="44.11111" lon="7.18887">
        <ele>2267.449</ele>
        <time>2020-06-29T13:40:06Z</time>
      </trkpt>
      <trkpt lat="44.11093" lon="7.189">
        <ele>2262.418</ele>
        <time>2020-06-29T13:40:22Z</time>
      </trkpt>
      <trkpt lat="44.11078" lon="7.18917">
        <ele>2260.528</ele>
        <time>2020-06-29T13:40:38Z</time>
      </trkpt>
      <trkpt lat="44.11065" lon="7.18928">
        <ele>2256.271</ele>
        <time>2020-06-29T13:40:53Z</time>
      </trkpt>
      <trkpt lat="44.11055" lon="7.18932">
        <ele>2254.953</ele>
        <time>2020-06-29T13:41:08Z</time>
      </trkpt>
      <trkpt lat="44.11043" lon="7.18937">
        <ele>2251.148</ele>
        <time>2020-06-29T13:41:24Z</time>
      </trkpt>
      <trkpt lat="44.11026" lon="7.18939">
        <ele>2246.538</ele>
        <time>2020-06-29T13:41:39Z</time>
      </trkpt>
      <trkpt lat="44.11011" lon="7.18936">
        <ele>2245.101</ele>
        <time>2020-06-29T13:41:54Z</time>
      </trkpt>
      <trkpt lat="44.11001" lon="7.18938">
        <ele>2243.154</ele>
        <time>2020-06-29T13:42:10Z</time>
      </trkpt>
      <trkpt lat="44.1099" lon="7.18937">
        <ele>2241.323</ele>
        <time>2020-06-29T13:42:25Z</time>
      </trkpt>
      <trkpt lat="44.10984" lon="7.18934">
        <ele>2238.94</ele>
        <time>2020-06-29T13:42:41Z</time>
      </trkpt>
      <trkpt lat="44.10969" lon="7.18927">
        <ele>2237.582</ele>
        <time>2020-06-29T13:42:56Z</time>
      </trkpt>
      <trkpt lat="44.10956" lon="7.18925">
        <ele>2235.818</ele>
        <time>2020-06-29T13:43:11Z</time>
      </trkpt>
      <trkpt lat="44.10943" lon="7.1892">
        <ele>2234.424</ele>
        <time>2020-06-29T13:43:27Z</time>
      </trkpt>
      <trkpt lat="44.10925" lon="7.18909">
        <ele>2234.393</ele>
        <time>2020-06-29T13:43:43Z</time>
      </trkpt>
      <trkpt lat="44.10908" lon="7.18905">
        <ele>2234.984</ele>
        <time>2020-06-29T13:43:59Z</time>
      </trkpt>
      <trkpt lat="44.10893" lon="7.18907">
        <ele>2234.835</ele>
        <time>2020-06-29T13:44:14Z</time>
      </trkpt>
      <trkpt lat="44.1088" lon="7.18906">
        <ele>2237.092</ele>
        <time>2020-06-29T13:44:30Z</time>
      </trkpt>
      <trkpt lat="44.10866" lon="7.18904">
        <ele>2239.111</ele>
        <time>2020-06-29T13:44:46Z</time>
      </trkpt>
      <trkpt lat="44.1085" lon="7.18893">
        <ele>2239.599</ele>
        <time>2020-06-29T13:45:01Z</time>
      </trkpt>
      <trkpt lat="44.10836" lon="7.18893">
        <ele>2239.434</ele>
        <time>2020-06-29T13:45:16Z</time>
      </trkpt>
      <trkpt lat="44.10822" lon="7.18888">
        <ele>2240.056</ele>
        <time>2020-06-29T13:45:31Z</time>
      </trkpt>
      <trkpt lat="44.10804" lon="7.18887">
        <ele>2239.211</ele>
        <time>2020-06-29T13:45:47Z</time>
      </trkpt>
      <trkpt lat="44.10785" lon="7.1888">
        <ele>2240.16</ele>
        <time>2020-06-29T13:46:03Z</time>
      </trkpt>
      <trkpt lat="44.10768" lon="7.18877">
        <ele>2241.496</ele>
        <time>2020-06-29T13:46:19Z</time>
      </trkpt>
      <trkpt lat="44.10751" lon="7.18881">
        <ele>2240.06</ele>
        <time>2020-06-29T13:46:34Z</time>
      </trkpt>
      <trkpt lat="44.10735" lon="7.18891">
        <ele>2238.779</ele>
        <time>2020-06-29T13:46:50Z</time>
      </trkpt>
      <trkpt lat="44.10718" lon="7.18898">
        <ele>2234.466</ele>
        <time>2020-06-29T13:47:05Z</time>
      </trkpt>
      <trkpt lat="44.10702" lon="7.18907">
        <ele>2233.471</ele>
        <time>2020-06-29T13:47:21Z</time>
      </trkpt>
      <trkpt lat="44.10687" lon="7.18912">
        <ele>2231.77</ele>
        <time>2020-06-29T13:47:37Z</time>
      </trkpt>
      <trkpt lat="44.10671" lon="7.18913">
        <ele>2231.307</ele>
        <time>2020-06-29T13:47:53Z</time>
      </trkpt>
      <trkpt lat="44.10654" lon="7.18909">
        <ele>2232.382</ele>
        <time>2020-06-29T13:48:09Z</time>
      </trkpt>
      <trkpt lat="44.1064" lon="7.18907">
        <ele>2232.909</ele>
        <time>2020-06-29T13:48:24Z</time>
      </trkpt>
      <trkpt lat="44.10628" lon="7.18907">
        <ele>2233.557</ele>
        <time>2020-06-29T13:48:40Z</time>
      </trkpt>
      <trkpt lat="44.10618" lon="7.18907">
        <ele>2235.467</ele>
        <time>2020-06-29T13:48:56Z</time>
      </trkpt>
      <trkpt lat="44.10604" lon="7.18909">
        <ele>2239.233</ele>
        <time>2020-06-29T13:49:12Z</time>
      </trkpt>
      <trkpt lat="44.1059" lon="7.18912">
        <ele>2239.873</ele>
        <time>2020-06-29T13:49:28Z</time>
      </trkpt>
      <trkpt lat="44.1058" lon="7.18912">
        <ele>2240.97</ele>
        <time>2020-06-29T13:49:44Z</time>
      </trkpt>
      <trkpt lat="44.10569" lon="7.18916">
        <ele>2240.981</ele>
        <time>2020-06-29T13:49:59Z</time>
      </trkpt>
      <trkpt lat="44.10551" lon="7.18909">
        <ele>2240.637</ele>
        <time>2020-06-29T13:50:15Z</time>
      </trkpt>
      <trkpt lat="44.10534" lon="7.18896">
        <ele>2239.628</ele>
        <time>2020-06-29T13:50:31Z</time>
      </trkpt>
      <trkpt lat="44.10521" lon="7.18884">
        <ele>2237.145</ele>
        <time>2020-06-29T13:50:46Z</time>
      </trkpt>
      <trkpt lat="44.10507" lon="7.18867">
        <ele>2237.254</ele>
        <time>2020-06-29T13:51:02Z</time>
      </trkpt>
      <trkpt lat="44.1049" lon="7.18853">
        <ele>2235.024</ele>
        <time>2020-06-29T13:51:17Z</time>
      </trkpt>
      <trkpt lat="44.10475" lon="7.18843">
        <ele>2234.371</ele>
        <time>2020-06-29T13:51:33Z</time>
      </trkpt>
      <trkpt lat="44.10465" lon="7.18839">
        <ele>2235.425</ele>
        <time>2020-06-29T13:51:49Z</time>
      </trkpt>
      <trkpt lat="44.10451" lon="7.18836">
        <ele>2237.706</ele>
        <time>2020-06-29T13:52:04Z</time>
      </trkpt>
      <trkpt lat="44.10437" lon="7.1883">
        <ele>2239.52</ele>
        <time>2020-06-29T13:52:20Z</time>
      </trkpt>
      <trkpt lat="44.10424" lon="7.18824">
        <ele>2242.496</ele>
        <time>2020-06-29T13:52:36Z</time>
      </trkpt>
      <trkpt lat="44.10414" lon="7.18822">
        <ele>2243.309</ele>
        <time>2020-06-29T13:52:51Z</time>
      </trkpt>
      <trkpt lat="44.10399" lon="7.18821">
        <ele>2245.022</ele>
        <time>2020-06-29T13:53:07Z</time>
      </trkpt>
      <trkpt lat="44.10393" lon="7.18822">
        <ele>2245.268</ele>
        <time>2020-06-29T13:53:22Z</time>
      </trkpt>
      <trkpt lat="44.10391" lon="7.18822">
        <ele>2245.013</ele>
        <time>2020-06-29T13:53:38Z</time>
      </trkpt>
      <trkpt lat="44.10391" lon="7.18822">
        <ele>2245.013</ele>
        <time>2020-06-29T13:53:53Z</time>
      </trkpt>
      <trkpt lat="44.10391" lon="7.18822">
        <ele>2245.013</ele>
        <time>2020-06-29T13:54:09Z</time>
      </trkpt>
      <trkpt lat="44.10391" lon="7.18822">
        <ele>2245.013</ele>
        <time>2020-06-29T13:54:25Z</time>
      </trkpt>
      <trkpt lat="44.10391" lon="7.18822">
        <ele>2245.013</ele>
        <time>2020-06-29T13:54:41Z</time>
      </trkpt>
      <trkpt lat="44.10391" lon="7.18822">
        <ele>2245.013</ele>
        <time>2020-06-29T13:54:57Z</time>
      </trkpt>
      <trkpt lat="44.10391" lon="7.18822">
        <ele>2245.013</ele>
        <time>2020-06-29T13:55:12Z</time>
      </trkpt>
      <trkpt lat="44.10391" lon="7.18822">
        <ele>2245.013</ele>
        <time>2020-06-29T13:55:28Z</time>
      </trkpt>
      <trkpt lat="44.10389" lon="7.18826">
        <ele>2245.753</ele>
        <time>2020-06-29T13:55:43Z</time>
      </trkpt>
      <trkpt lat="44.10385" lon="7.18828">
        <ele>2244.85</ele>
        <time>2020-06-29T13:55:59Z</time>
      </trkpt>
      <trkpt lat="44.10379" lon="7.18833">
        <ele>2243.741</ele>
        <time>2020-06-29T13:56:15Z</time>
      </trkpt>
      <trkpt lat="44.1037" lon="7.18832">
        <ele>2243.268</ele>
        <time>2020-06-29T13:56:30Z</time>
      </trkpt>
      <trkpt lat="44.10359" lon="7.18836">
        <ele>2240.264</ele>
        <time>2020-06-29T13:56:46Z</time>
      </trkpt>
      <trkpt lat="44.1035" lon="7.18836">
        <ele>2237.973</ele>
        <time>2020-06-29T13:57:01Z</time>
      </trkpt>
      <trkpt lat="44.10348" lon="7.18838">
        <ele>2236.493</ele>
        <time>2020-06-29T13:57:17Z</time>
      </trkpt>
      <trkpt lat="44.10349" lon="7.18846">
        <ele>2237.809</ele>
        <time>2020-06-29T13:57:33Z</time>
      </trkpt>
      <trkpt lat="44.10353" lon="7.1885">
        <ele>2237.196</ele>
        <time>2020-06-29T13:57:49Z</time>
      </trkpt>
      <trkpt lat="44.10348" lon="7.18859">
        <ele>2233.94</ele>
        <time>2020-06-29T13:58:04Z</time>
      </trkpt>
      <trkpt lat="44.10341" lon="7.18863">
        <ele>2231.515</ele>
        <time>2020-06-29T13:58:20Z</time>
      </trkpt>
      <trkpt lat="44.10333" lon="7.18868">
        <ele>2225.804</ele>
        <time>2020-06-29T13:58:35Z</time>
      </trkpt>
      <trkpt lat="44.10324" lon="7.18874">
        <ele>2224.58</ele>
        <time>2020-06-29T13:58:50Z</time>
      </trkpt>
      <trkpt lat="44.10322" lon="7.18876">
        <ele>2223.32</ele>
        <time>2020-06-29T13:59:06Z</time>
      </trkpt>
      <trkpt lat="44.10311" lon="7.18886">
        <ele>2223.808</ele>
        <time>2020-06-29T13:59:22Z</time>
      </trkpt>
      <trkpt lat="44.103" lon="7.18896">
        <ele>2222.177</ele>
        <time>2020-06-29T13:59:38Z</time>
      </trkpt>
      <trkpt lat="44.10289" lon="7.18894">
        <ele>2211.215</ele>
        <time>2020-06-29T13:59:54Z</time>
      </trkpt>
      <trkpt lat="44.10281" lon="7.18898">
        <ele>2209.115</ele>
        <time>2020-06-29T14:00:09Z</time>
      </trkpt>
      <trkpt lat="44.10274" lon="7.18903">
        <ele>2203.962</ele>
        <time>2020-06-29T14:00:24Z</time>
      </trkpt>
      <trkpt lat="44.1026" lon="7.18899">
        <ele>2198.245</ele>
        <time>2020-06-29T14:00:40Z</time>
      </trkpt>
      <trkpt lat="44.1026" lon="7.189">
        <ele>2199.642</ele>
        <time>2020-06-29T14:00:56Z</time>
      </trkpt>
      <trkpt lat="44.10261" lon="7.18909">
        <ele>2201.637</ele>
        <time>2020-06-29T14:01:11Z</time>
      </trkpt>
      <trkpt lat="44.10266" lon="7.18926">
        <ele>2198.332</ele>
        <time>2020-06-29T14:01:27Z</time>
      </trkpt>
      <trkpt lat="44.10261" lon="7.18923">
        <ele>2192.228</ele>
        <time>2020-06-29T14:01:42Z</time>
      </trkpt>
      <trkpt lat="44.10258" lon="7.1893">
        <ele>2192.841</ele>
        <time>2020-06-29T14:01:58Z</time>
      </trkpt>
      <trkpt lat="44.10249" lon="7.18934">
        <ele>2189.03</ele>
        <time>2020-06-29T14:02:13Z</time>
      </trkpt>
      <trkpt lat="44.10238" lon="7.1893">
        <ele>2180.976</ele>
        <time>2020-06-29T14:02:29Z</time>
      </trkpt>
      <trkpt lat="44.10229" lon="7.1893">
        <ele>2179.282</ele>
        <time>2020-06-29T14:02:44Z</time>
      </trkpt>
      <trkpt lat="44.10227" lon="7.18928">
        <ele>2178.22</ele>
        <time>2020-06-29T14:02:59Z</time>
      </trkpt>
      <trkpt lat="44.1022" lon="7.18928">
        <ele>2175.08</ele>
        <time>2020-06-29T14:03:15Z</time>
      </trkpt>
      <trkpt lat="44.10214" lon="7.18928">
        <ele>2169.022</ele>
        <time>2020-06-29T14:03:31Z</time>
      </trkpt>
      <trkpt lat="44.10199" lon="7.18928">
        <ele>2163.419</ele>
        <time>2020-06-29T14:03:46Z</time>
      </trkpt>
      <trkpt lat="44.10194" lon="7.18933">
        <ele>2161.86</ele>
        <time>2020-06-29T14:04:03Z</time>
      </trkpt>
      <trkpt lat="44.10194" lon="7.18933">
        <ele>2161.86</ele>
        <time>2020-06-29T14:04:19Z</time>
      </trkpt>
      <trkpt lat="44.10194" lon="7.18933">
        <ele>2160.858</ele>
        <time>2020-06-29T14:04:34Z</time>
      </trkpt>
      <trkpt lat="44.10189" lon="7.18935">
        <ele>2160.495</ele>
        <time>2020-06-29T14:04:50Z</time>
      </trkpt>
      <trkpt lat="44.10171" lon="7.18939">
        <ele>2158.213</ele>
        <time>2020-06-29T14:05:05Z</time>
      </trkpt>
      <trkpt lat="44.10153" lon="7.18938">
        <ele>2157.83</ele>
        <time>2020-06-29T14:05:21Z</time>
      </trkpt>
      <trkpt lat="44.10145" lon="7.18937">
        <ele>2155.228</ele>
        <time>2020-06-29T14:05:37Z</time>
      </trkpt>
      <trkpt lat="44.1014" lon="7.18939">
        <ele>2155.956</ele>
        <time>2020-06-29T14:05:53Z</time>
      </trkpt>
      <trkpt lat="44.10129" lon="7.18932">
        <ele>2158.005</ele>
        <time>2020-06-29T14:06:08Z</time>
      </trkpt>
      <trkpt lat="44.10116" lon="7.18929">
        <ele>2156.634</ele>
        <time>2020-06-29T14:06:24Z</time>
      </trkpt>
      <trkpt lat="44.10104" lon="7.18922">
        <ele>2155.778</ele>
        <time>2020-06-29T14:06:40Z</time>
      </trkpt>
      <trkpt lat="44.10089" lon="7.18924">
        <ele>2153.599</ele>
        <time>2020-06-29T14:06:55Z</time>
      </trkpt>
      <trkpt lat="44.10078" lon="7.18928">
        <ele>2152.608</ele>
        <time>2020-06-29T14:07:10Z</time>
      </trkpt>
      <trkpt lat="44.10064" lon="7.18926">
        <ele>2149.299</ele>
        <time>2020-06-29T14:07:26Z</time>
      </trkpt>
      <trkpt lat="44.10049" lon="7.18919">
        <ele>2145.459</ele>
        <time>2020-06-29T14:07:42Z</time>
      </trkpt>
      <trkpt lat="44.10038" lon="7.18923">
        <ele>2143.231</ele>
        <time>2020-06-29T14:07:58Z</time>
      </trkpt>
      <trkpt lat="44.1002" lon="7.18928">
        <ele>2141.329</ele>
        <time>2020-06-29T14:08:14Z</time>
      </trkpt>
      <trkpt lat="44.10003" lon="7.18928">
        <ele>2135.851</ele>
        <time>2020-06-29T14:08:30Z</time>
      </trkpt>
      <trkpt lat="44.09987" lon="7.18931">
        <ele>2131.575</ele>
        <time>2020-06-29T14:08:45Z</time>
      </trkpt>
      <trkpt lat="44.09978" lon="7.1893">
        <ele>2131.567</ele>
        <time>2020-06-29T14:09:00Z</time>
      </trkpt>
      <trkpt lat="44.09963" lon="7.18939">
        <ele>2132.1</ele>
        <time>2020-06-29T14:09:16Z</time>
      </trkpt>
      <trkpt lat="44.09945" lon="7.18943">
        <ele>2130.368</ele>
        <time>2020-06-29T14:09:31Z</time>
      </trkpt>
      <trkpt lat="44.09931" lon="7.18947">
        <ele>2128.869</ele>
        <time>2020-06-29T14:09:47Z</time>
      </trkpt>
      <trkpt lat="44.09919" lon="7.1895">
        <ele>2129.05</ele>
        <time>2020-06-29T14:10:02Z</time>
      </trkpt>
      <trkpt lat="44.09902" lon="7.18947">
        <ele>2128.92</ele>
        <time>2020-06-29T14:10:18Z</time>
      </trkpt>
      <trkpt lat="44.0989" lon="7.18934">
        <ele>2123.815</ele>
        <time>2020-06-29T14:10:34Z</time>
      </trkpt>
      <trkpt lat="44.0988" lon="7.18922">
        <ele>2118.162</ele>
        <time>2020-06-29T14:10:50Z</time>
      </trkpt>
      <trkpt lat="44.0987" lon="7.18913">
        <ele>2116.11</ele>
        <time>2020-06-29T14:11:05Z</time>
      </trkpt>
      <trkpt lat="44.09867" lon="7.18911">
        <ele>2114.735</ele>
        <time>2020-06-29T14:11:21Z</time>
      </trkpt>
      <trkpt lat="44.09857" lon="7.18914">
        <ele>2107.91</ele>
        <time>2020-06-29T14:11:36Z</time>
      </trkpt>
      <trkpt lat="44.09841" lon="7.18905">
        <ele>2103.974</ele>
        <time>2020-06-29T14:11:52Z</time>
      </trkpt>
      <trkpt lat="44.09833" lon="7.18882">
        <ele>2098.195</ele>
        <time>2020-06-29T14:12:08Z</time>
      </trkpt>
      <trkpt lat="44.09819" lon="7.18874">
        <ele>2090.249</ele>
        <time>2020-06-29T14:12:24Z</time>
      </trkpt>
      <trkpt lat="44.09811" lon="7.18876">
        <ele>2087.597</ele>
        <time>2020-06-29T14:12:40Z</time>
      </trkpt>
      <trkpt lat="44.09803" lon="7.18858">
        <ele>2084.687</ele>
        <time>2020-06-29T14:12:56Z</time>
      </trkpt>
      <trkpt lat="44.09798" lon="7.18852">
        <ele>2082.594</ele>
        <time>2020-06-29T14:13:11Z</time>
      </trkpt>
      <trkpt lat="44.09794" lon="7.18838">
        <ele>2081.421</ele>
        <time>2020-06-29T14:13:27Z</time>
      </trkpt>
      <trkpt lat="44.09789" lon="7.18823">
        <ele>2080.89</ele>
        <time>2020-06-29T14:13:43Z</time>
      </trkpt>
      <trkpt lat="44.09789" lon="7.18823">
        <ele>2080.89</ele>
        <time>2020-06-29T14:13:59Z</time>
      </trkpt>
      <trkpt lat="44.09789" lon="7.18823">
        <ele>2080.89</ele>
        <time>2020-06-29T14:14:14Z</time>
      </trkpt>
      <trkpt lat="44.09789" lon="7.18823">
        <ele>2080.89</ele>
        <time>2020-06-29T14:14:30Z</time>
      </trkpt>
      <trkpt lat="44.09789" lon="7.18823">
        <ele>2080.89</ele>
        <time>2020-06-29T14:14:45Z</time>
      </trkpt>
      <trkpt lat="44.09789" lon="7.18823">
        <ele>2080.89</ele>
        <time>2020-06-29T14:15:01Z</time>
      </trkpt>
      <trkpt lat="44.09789" lon="7.18823">
        <ele>2080.89</ele>
        <time>2020-06-29T14:15:17Z</time>
      </trkpt>
      <trkpt lat="44.09789" lon="7.18823">
        <ele>2080.89</ele>
        <time>2020-06-29T14:15:32Z</time>
      </trkpt>
      <trkpt lat="44.09789" lon="7.18823">
        <ele>2080.89</ele>
        <time>2020-06-29T14:15:48Z</time>
      </trkpt>
      <trkpt lat="44.09789" lon="7.18823">
        <ele>2080.89</ele>
        <time>2020-06-29T14:16:03Z</time>
      </trkpt>
      <trkpt lat="44.09789" lon="7.18823">
        <ele>2080.89</ele>
        <time>2020-06-29T14:16:19Z</time>
      </trkpt>
      <trkpt lat="44.09789" lon="7.18823">
        <ele>2080.89</ele>
        <time>2020-06-29T14:16:35Z</time>
      </trkpt>
      <trkpt lat="44.09789" lon="7.18823">
        <ele>2080.89</ele>
        <time>2020-06-29T14:16:51Z</time>
      </trkpt>
      <trkpt lat="44.09789" lon="7.18823">
        <ele>2080.89</ele>
        <time>2020-06-29T14:17:07Z</time>
      </trkpt>
      <trkpt lat="44.09789" lon="7.18823">
        <ele>2080.89</ele>
        <time>2020-06-29T14:17:23Z</time>
      </trkpt>
      <trkpt lat="44.09789" lon="7.18823">
        <ele>2080.89</ele>
        <time>2020-06-29T14:17:38Z</time>
      </trkpt>
      <trkpt lat="44.09789" lon="7.18823">
        <ele>2080.89</ele>
        <time>2020-06-29T14:17:54Z</time>
      </trkpt>
      <trkpt lat="44.09789" lon="7.18823">
        <ele>2080.89</ele>
        <time>2020-06-29T14:18:10Z</time>
      </trkpt>
      <trkpt lat="44.09789" lon="7.18823">
        <ele>2080.89</ele>
        <time>2020-06-29T14:18:25Z</time>
      </trkpt>
      <trkpt lat="44.09789" lon="7.18823">
        <ele>2080.89</ele>
        <time>2020-06-29T14:18:41Z</time>
      </trkpt>
      <trkpt lat="44.09789" lon="7.18823">
        <ele>2080.89</ele>
        <time>2020-06-29T14:18:56Z</time>
      </trkpt>
      <trkpt lat="44.09789" lon="7.18823">
        <ele>2080.89</ele>
        <time>2020-06-29T14:19:12Z</time>
      </trkpt>
      <trkpt lat="44.09787" lon="7.18823">
        <ele>2082.303</ele>
        <time>2020-06-29T14:19:28Z</time>
      </trkpt>
      <trkpt lat="44.09787" lon="7.18823">
        <ele>2082.303</ele>
        <time>2020-06-29T14:19:43Z</time>
      </trkpt>
      <trkpt lat="44.09787" lon="7.18823">
        <ele>2082.303</ele>
        <time>2020-06-29T14:19:59Z</time>
      </trkpt>
      <trkpt lat="44.09784" lon="7.18811">
        <ele>2080.774</ele>
        <time>2020-06-29T14:20:15Z</time>
      </trkpt>
      <trkpt lat="44.09786" lon="7.18796">
        <ele>2077.403</ele>
        <time>2020-06-29T14:20:31Z</time>
      </trkpt>
      <trkpt lat="44.09796" lon="7.18783">
        <ele>2074.591</ele>
        <time>2020-06-29T14:20:46Z</time>
      </trkpt>
      <trkpt lat="44.0979" lon="7.18778">
        <ele>2073.945</ele>
        <time>2020-06-29T14:21:01Z</time>
      </trkpt>
      <trkpt lat="44.09782" lon="7.18763">
        <ele>2069.949</ele>
        <time>2020-06-29T14:21:17Z</time>
      </trkpt>
      <trkpt lat="44.09778" lon="7.18749">
        <ele>2067.281</ele>
        <time>2020-06-29T14:21:33Z</time>
      </trkpt>
      <trkpt lat="44.09776" lon="7.18737">
        <ele>2066.177</ele>
        <time>2020-06-29T14:21:49Z</time>
      </trkpt>
      <trkpt lat="44.0978" lon="7.18719">
        <ele>2063.182</ele>
        <time>2020-06-29T14:22:05Z</time>
      </trkpt>
      <trkpt lat="44.09776" lon="7.18709">
        <ele>2058.902</ele>
        <time>2020-06-29T14:22:21Z</time>
      </trkpt>
      <trkpt lat="44.09765" lon="7.18695">
        <ele>2056.492</ele>
        <time>2020-06-29T14:22:37Z</time>
      </trkpt>
      <trkpt lat="44.09763" lon="7.18693">
        <ele>2054.866</ele>
        <time>2020-06-29T14:22:53Z</time>
      </trkpt>
      <trkpt lat="44.09752" lon="7.18681">
        <ele>2050.388</ele>
        <time>2020-06-29T14:23:08Z</time>
      </trkpt>
      <trkpt lat="44.09743" lon="7.18672">
        <ele>2047.442</ele>
        <time>2020-06-29T14:23:24Z</time>
      </trkpt>
      <trkpt lat="44.09733" lon="7.18669">
        <ele>2045.944</ele>
        <time>2020-06-29T14:23:40Z</time>
      </trkpt>
      <trkpt lat="44.09723" lon="7.18671">
        <ele>2044.601</ele>
        <time>2020-06-29T14:23:55Z</time>
      </trkpt>
      <trkpt lat="44.09709" lon="7.18665">
        <ele>2039.678</ele>
        <time>2020-06-29T14:24:11Z</time>
      </trkpt>
      <trkpt lat="44.09699" lon="7.18659">
        <ele>2036.69</ele>
        <time>2020-06-29T14:24:27Z</time>
      </trkpt>
      <trkpt lat="44.09692" lon="7.18654">
        <ele>2031.688</ele>
        <time>2020-06-29T14:24:42Z</time>
      </trkpt>
      <trkpt lat="44.0969" lon="7.18669">
        <ele>2029.158</ele>
        <time>2020-06-29T14:24:58Z</time>
      </trkpt>
      <trkpt lat="44.09695" lon="7.18685">
        <ele>2024.465</ele>
        <time>2020-06-29T14:25:14Z</time>
      </trkpt>
      <trkpt lat="44.09689" lon="7.18692">
        <ele>2020.388</ele>
        <time>2020-06-29T14:25:30Z</time>
      </trkpt>
      <trkpt lat="44.09683" lon="7.18704">
        <ele>2020.781</ele>
        <time>2020-06-29T14:25:45Z</time>
      </trkpt>
      <trkpt lat="44.09681" lon="7.18717">
        <ele>2017.69</ele>
        <time>2020-06-29T14:26:01Z</time>
      </trkpt>
      <trkpt lat="44.09672" lon="7.18734">
        <ele>2016.67</ele>
        <time>2020-06-29T14:26:17Z</time>
      </trkpt>
      <trkpt lat="44.09666" lon="7.18752">
        <ele>2013.231</ele>
        <time>2020-06-29T14:26:33Z</time>
      </trkpt>
      <trkpt lat="44.09654" lon="7.18773">
        <ele>2011.274</ele>
        <time>2020-06-29T14:26:49Z</time>
      </trkpt>
      <trkpt lat="44.09647" lon="7.18785">
        <ele>2009.804</ele>
        <time>2020-06-29T14:27:04Z</time>
      </trkpt>
      <trkpt lat="44.09647" lon="7.18785">
        <ele>2009.804</ele>
        <time>2020-06-29T14:27:19Z</time>
      </trkpt>
      <trkpt lat="44.09648" lon="7.18784">
        <ele>2009.821</ele>
        <time>2020-06-29T14:27:35Z</time>
      </trkpt>
      <trkpt lat="44.0965" lon="7.18792">
        <ele>2008.583</ele>
        <time>2020-06-29T14:27:50Z</time>
      </trkpt>
      <trkpt lat="44.09649" lon="7.18806">
        <ele>2006.489</ele>
        <time>2020-06-29T14:28:06Z</time>
      </trkpt>
      <trkpt lat="44.09641" lon="7.18817">
        <ele>2006.164</ele>
        <time>2020-06-29T14:28:22Z</time>
      </trkpt>
      <trkpt lat="44.09627" lon="7.18829">
        <ele>2007.893</ele>
        <time>2020-06-29T14:28:38Z</time>
      </trkpt>
      <trkpt lat="44.09613" lon="7.18839">
        <ele>2009.003</ele>
        <time>2020-06-29T14:28:54Z</time>
      </trkpt>
      <trkpt lat="44.09607" lon="7.18845">
        <ele>2006.712</ele>
        <time>2020-06-29T14:29:10Z</time>
      </trkpt>
      <trkpt lat="44.09597" lon="7.18857">
        <ele>2005.205</ele>
        <time>2020-06-29T14:29:26Z</time>
      </trkpt>
      <trkpt lat="44.09584" lon="7.18868">
        <ele>2006.691</ele>
        <time>2020-06-29T14:29:41Z</time>
      </trkpt>
      <trkpt lat="44.09575" lon="7.18885">
        <ele>2010.662</ele>
        <time>2020-06-29T14:29:56Z</time>
      </trkpt>
      <trkpt lat="44.09561" lon="7.18895">
        <ele>2012.707</ele>
        <time>2020-06-29T14:30:12Z</time>
      </trkpt>
      <trkpt lat="44.09546" lon="7.18903">
        <ele>2013.372</ele>
        <time>2020-06-29T14:30:28Z</time>
      </trkpt>
      <trkpt lat="44.09531" lon="7.18913">
        <ele>2014.891</ele>
        <time>2020-06-29T14:30:43Z</time>
      </trkpt>
      <trkpt lat="44.0952" lon="7.18929">
        <ele>2012.883</ele>
        <time>2020-06-29T14:30:58Z</time>
      </trkpt>
      <trkpt lat="44.09511" lon="7.18943">
        <ele>2008.521</ele>
        <time>2020-06-29T14:31:14Z</time>
      </trkpt>
      <trkpt lat="44.09501" lon="7.18944">
        <ele>2007.456</ele>
        <time>2020-06-29T14:31:29Z</time>
      </trkpt>
      <trkpt lat="44.095" lon="7.18944">
        <ele>2007.638</ele>
        <time>2020-06-29T14:31:45Z</time>
      </trkpt>
      <trkpt lat="44.09495" lon="7.18948">
        <ele>2008.123</ele>
        <time>2020-06-29T14:32:01Z</time>
      </trkpt>
      <trkpt lat="44.09483" lon="7.18958">
        <ele>2005.401</ele>
        <time>2020-06-29T14:32:16Z</time>
      </trkpt>
      <trkpt lat="44.09465" lon="7.18965">
        <ele>2001.834</ele>
        <time>2020-06-29T14:32:32Z</time>
      </trkpt>
      <trkpt lat="44.09453" lon="7.18979">
        <ele>2000.125</ele>
        <time>2020-06-29T14:32:48Z</time>
      </trkpt>
      <trkpt lat="44.09439" lon="7.18991">
        <ele>1998.886</ele>
        <time>2020-06-29T14:33:03Z</time>
      </trkpt>
      <trkpt lat="44.09425" lon="7.18999">
        <ele>1998.572</ele>
        <time>2020-06-29T14:33:19Z</time>
      </trkpt>
      <trkpt lat="44.09412" lon="7.18999">
        <ele>1998.028</ele>
        <time>2020-06-29T14:33:34Z</time>
      </trkpt>
      <trkpt lat="44.09404" lon="7.19008">
        <ele>2001.413</ele>
        <time>2020-06-29T14:33:50Z</time>
      </trkpt>
      <trkpt lat="44.0939" lon="7.19013">
        <ele>2000.769</ele>
        <time>2020-06-29T14:34:06Z</time>
      </trkpt>
      <trkpt lat="44.09381" lon="7.19022">
        <ele>1997.711</ele>
        <time>2020-06-29T14:34:21Z</time>
      </trkpt>
      <trkpt lat="44.09368" lon="7.1904">
        <ele>1997.128</ele>
        <time>2020-06-29T14:34:37Z</time>
      </trkpt>
      <trkpt lat="44.09359" lon="7.19054">
        <ele>1995.165</ele>
        <time>2020-06-29T14:34:52Z</time>
      </trkpt>
      <trkpt lat="44.09349" lon="7.1907">
        <ele>1996.494</ele>
        <time>2020-06-29T14:35:08Z</time>
      </trkpt>
      <trkpt lat="44.09332" lon="7.1908">
        <ele>1999.423</ele>
        <time>2020-06-29T14:35:23Z</time>
      </trkpt>
      <trkpt lat="44.09323" lon="7.19091">
        <ele>1996.137</ele>
        <time>2020-06-29T14:35:39Z</time>
      </trkpt>
      <trkpt lat="44.09317" lon="7.19098">
        <ele>1998.386</ele>
        <time>2020-06-29T14:35:54Z</time>
      </trkpt>
      <trkpt lat="44.09318" lon="7.19103">
        <ele>1996.753</ele>
        <time>2020-06-29T14:36:10Z</time>
      </trkpt>
      <trkpt lat="44.09317" lon="7.19107">
        <ele>1997.648</ele>
        <time>2020-06-29T14:36:27Z</time>
      </trkpt>
      <trkpt lat="44.09317" lon="7.19107">
        <ele>1997.648</ele>
        <time>2020-06-29T14:36:42Z</time>
      </trkpt>
      <trkpt lat="44.09316" lon="7.19109">
        <ele>1997.163</ele>
        <time>2020-06-29T14:36:58Z</time>
      </trkpt>
      <trkpt lat="44.09322" lon="7.19118">
        <ele>1999.221</ele>
        <time>2020-06-29T14:37:13Z</time>
      </trkpt>
      <trkpt lat="44.09324" lon="7.19134">
        <ele>2000.342</ele>
        <time>2020-06-29T14:37:28Z</time>
      </trkpt>
      <trkpt lat="44.09319" lon="7.19131">
        <ele>1999.219</ele>
        <time>2020-06-29T14:37:43Z</time>
      </trkpt>
      <trkpt lat="44.09305" lon="7.1913">
        <ele>1996.528</ele>
        <time>2020-06-29T14:37:59Z</time>
      </trkpt>
      <trkpt lat="44.09303" lon="7.19132">
        <ele>1999.591</ele>
        <time>2020-06-29T14:38:15Z</time>
      </trkpt>
      <trkpt lat="44.09295" lon="7.19141">
        <ele>1995.124</ele>
        <time>2020-06-29T14:38:31Z</time>
      </trkpt>
      <trkpt lat="44.09284" lon="7.19144">
        <ele>1990.184</ele>
        <time>2020-06-29T14:38:47Z</time>
      </trkpt>
      <trkpt lat="44.09272" lon="7.19146">
        <ele>1988.929</ele>
        <time>2020-06-29T14:39:02Z</time>
      </trkpt>
      <trkpt lat="44.09261" lon="7.19151">
        <ele>1987.349</ele>
        <time>2020-06-29T14:39:18Z</time>
      </trkpt>
      <trkpt lat="44.09251" lon="7.19154">
        <ele>1984.671</ele>
        <time>2020-06-29T14:39:33Z</time>
      </trkpt>
      <trkpt lat="44.0924" lon="7.19158">
        <ele>1981.969</ele>
        <time>2020-06-29T14:39:49Z</time>
      </trkpt>
      <trkpt lat="44.09224" lon="7.19164">
        <ele>1975.59</ele>
        <time>2020-06-29T14:40:04Z</time>
      </trkpt>
      <trkpt lat="44.09217" lon="7.1917">
        <ele>1972.669</ele>
        <time>2020-06-29T14:40:20Z</time>
      </trkpt>
      <trkpt lat="44.09209" lon="7.19177">
        <ele>1969.648</ele>
        <time>2020-06-29T14:40:35Z</time>
      </trkpt>
      <trkpt lat="44.09201" lon="7.19189">
        <ele>1966.756</ele>
        <time>2020-06-29T14:40:51Z</time>
      </trkpt>
      <trkpt lat="44.09192" lon="7.19201">
        <ele>1963.498</ele>
        <time>2020-06-29T14:41:07Z</time>
      </trkpt>
      <trkpt lat="44.09179" lon="7.19212">
        <ele>1960.198</ele>
        <time>2020-06-29T14:41:22Z</time>
      </trkpt>
      <trkpt lat="44.09167" lon="7.19223">
        <ele>1956.861</ele>
        <time>2020-06-29T14:41:38Z</time>
      </trkpt>
      <trkpt lat="44.09161" lon="7.19231">
        <ele>1953.303</ele>
        <time>2020-06-29T14:41:54Z</time>
      </trkpt>
      <trkpt lat="44.0914" lon="7.19238">
        <ele>1947.964</ele>
        <time>2020-06-29T14:42:09Z</time>
      </trkpt>
      <trkpt lat="44.09137" lon="7.19241">
        <ele>1946.389</ele>
        <time>2020-06-29T14:42:25Z</time>
      </trkpt>
      <trkpt lat="44.09129" lon="7.19248">
        <ele>1943.701</ele>
        <time>2020-06-29T14:42:41Z</time>
      </trkpt>
      <trkpt lat="44.09113" lon="7.19259">
        <ele>1937.476</ele>
        <time>2020-06-29T14:42:57Z</time>
      </trkpt>
      <trkpt lat="44.09107" lon="7.19265">
        <ele>1936.748</ele>
        <time>2020-06-29T14:43:13Z</time>
      </trkpt>
      <trkpt lat="44.0909" lon="7.19273">
        <ele>1932.847</ele>
        <time>2020-06-29T14:43:28Z</time>
      </trkpt>
      <trkpt lat="44.09079" lon="7.19289">
        <ele>1929.598</ele>
        <time>2020-06-29T14:43:43Z</time>
      </trkpt>
      <trkpt lat="44.09077" lon="7.1929">
        <ele>1928.943</ele>
        <time>2020-06-29T14:43:58Z</time>
      </trkpt>
      <trkpt lat="44.09066" lon="7.193">
        <ele>1924.821</ele>
        <time>2020-06-29T14:44:14Z</time>
      </trkpt>
      <trkpt lat="44.09052" lon="7.19312">
        <ele>1921.192</ele>
        <time>2020-06-29T14:44:29Z</time>
      </trkpt>
      <trkpt lat="44.09046" lon="7.1932">
        <ele>1918.88</ele>
        <time>2020-06-29T14:44:45Z</time>
      </trkpt>
      <trkpt lat="44.09046" lon="7.1933">
        <ele>1917.176</ele>
        <time>2020-06-29T14:45:01Z</time>
      </trkpt>
      <trkpt lat="44.09055" lon="7.19339">
        <ele>1914.995</ele>
        <time>2020-06-29T14:45:17Z</time>
      </trkpt>
      <trkpt lat="44.0906" lon="7.19358">
        <ele>1909.311</ele>
        <time>2020-06-29T14:45:32Z</time>
      </trkpt>
      <trkpt lat="44.09054" lon="7.19386">
        <ele>1907.529</ele>
        <time>2020-06-29T14:45:48Z</time>
      </trkpt>
      <trkpt lat="44.09051" lon="7.1941">
        <ele>1905.35</ele>
        <time>2020-06-29T14:46:03Z</time>
      </trkpt>
      <trkpt lat="44.09049" lon="7.19435">
        <ele>1904.124</ele>
        <time>2020-06-29T14:46:19Z</time>
      </trkpt>
      <trkpt lat="44.09047" lon="7.19452">
        <ele>1898.899</ele>
        <time>2020-06-29T14:46:34Z</time>
      </trkpt>
      <trkpt lat="44.09046" lon="7.19462">
        <ele>1898.282</ele>
        <time>2020-06-29T14:46:49Z</time>
      </trkpt>
      <trkpt lat="44.09045" lon="7.19477">
        <ele>1901.477</ele>
        <time>2020-06-29T14:47:05Z</time>
      </trkpt>
      <trkpt lat="44.09035" lon="7.19506">
        <ele>1902.868</ele>
        <time>2020-06-29T14:47:21Z</time>
      </trkpt>
      <trkpt lat="44.0902" lon="7.19526">
        <ele>1895.73</ele>
        <time>2020-06-29T14:47:37Z</time>
      </trkpt>
      <trkpt lat="44.09007" lon="7.19547">
        <ele>1893.014</ele>
        <time>2020-06-29T14:47:53Z</time>
      </trkpt>
      <trkpt lat="44.09" lon="7.19571">
        <ele>1889.22</ele>
        <time>2020-06-29T14:48:09Z</time>
      </trkpt>
      <trkpt lat="44.08989" lon="7.1959">
        <ele>1886.181</ele>
        <time>2020-06-29T14:48:24Z</time>
      </trkpt>
      <trkpt lat="44.08975" lon="7.19611">
        <ele>1882.854</ele>
        <time>2020-06-29T14:48:40Z</time>
      </trkpt>
      <trkpt lat="44.08961" lon="7.1962">
        <ele>1881.652</ele>
        <time>2020-06-29T14:48:55Z</time>
      </trkpt>
      <trkpt lat="44.08953" lon="7.19644">
        <ele>1881.31</ele>
        <time>2020-06-29T14:49:10Z</time>
      </trkpt>
      <trkpt lat="44.08947" lon="7.19663">
        <ele>1876.713</ele>
        <time>2020-06-29T14:49:25Z</time>
      </trkpt>
      <trkpt lat="44.08943" lon="7.19683">
        <ele>1872.161</ele>
        <time>2020-06-29T14:49:40Z</time>
      </trkpt>
      <trkpt lat="44.08944" lon="7.19697">
        <ele>1872.574</ele>
        <time>2020-06-29T14:49:56Z</time>
      </trkpt>
      <trkpt lat="44.08936" lon="7.19712">
        <ele>1875.508</ele>
        <time>2020-06-29T14:50:12Z</time>
      </trkpt>
      <trkpt lat="44.08935" lon="7.19714">
        <ele>1875.184</ele>
        <time>2020-06-29T14:50:27Z</time>
      </trkpt>
      <trkpt lat="44.08931" lon="7.19718">
        <ele>1876.057</ele>
        <time>2020-06-29T14:50:43Z</time>
      </trkpt>
      <trkpt lat="44.0892" lon="7.19725">
        <ele>1876.009</ele>
        <time>2020-06-29T14:50:58Z</time>
      </trkpt>
      <trkpt lat="44.08908" lon="7.19731">
        <ele>1875.921</ele>
        <time>2020-06-29T14:51:13Z</time>
      </trkpt>
      <trkpt lat="44.08894" lon="7.19736">
        <ele>1872.403</ele>
        <time>2020-06-29T14:51:29Z</time>
      </trkpt>
      <trkpt lat="44.08883" lon="7.19741">
        <ele>1870.489</ele>
        <time>2020-06-29T14:51:45Z</time>
      </trkpt>
      <trkpt lat="44.0887" lon="7.19755">
        <ele>1868.51</ele>
        <time>2020-06-29T14:52:01Z</time>
      </trkpt>
      <trkpt lat="44.08862" lon="7.19767">
        <ele>1864.211</ele>
        <time>2020-06-29T14:52:17Z</time>
      </trkpt>
      <trkpt lat="44.08853" lon="7.19783">
        <ele>1859.904</ele>
        <time>2020-06-29T14:52:32Z</time>
      </trkpt>
      <trkpt lat="44.08839" lon="7.19798">
        <ele>1850.646</ele>
        <time>2020-06-29T14:52:48Z</time>
      </trkpt>
      <trkpt lat="44.08828" lon="7.19806">
        <ele>1847.622</ele>
        <time>2020-06-29T14:53:04Z</time>
      </trkpt>
      <trkpt lat="44.08819" lon="7.19787">
        <ele>1842.429</ele>
        <time>2020-06-29T14:53:19Z</time>
      </trkpt>
      <trkpt lat="44.08809" lon="7.19767">
        <ele>1837.494</ele>
        <time>2020-06-29T14:53:35Z</time>
      </trkpt>
      <trkpt lat="44.08799" lon="7.19768">
        <ele>1831.272</ele>
        <time>2020-06-29T14:53:51Z</time>
      </trkpt>
      <trkpt lat="44.08791" lon="7.19781">
        <ele>1825.319</ele>
        <time>2020-06-29T14:54:07Z</time>
      </trkpt>
      <trkpt lat="44.08783" lon="7.198">
        <ele>1824.803</ele>
        <time>2020-06-29T14:54:22Z</time>
      </trkpt>
      <trkpt lat="44.0877" lon="7.19804">
        <ele>1820.444</ele>
        <time>2020-06-29T14:54:37Z</time>
      </trkpt>
      <trkpt lat="44.08761" lon="7.1979">
        <ele>1818.372</ele>
        <time>2020-06-29T14:54:53Z</time>
      </trkpt>
      <trkpt lat="44.08748" lon="7.19781">
        <ele>1815.709</ele>
        <time>2020-06-29T14:55:09Z</time>
      </trkpt>
      <trkpt lat="44.08742" lon="7.19788">
        <ele>1813.689</ele>
        <time>2020-06-29T14:55:24Z</time>
      </trkpt>
      <trkpt lat="44.08736" lon="7.19797">
        <ele>1810.793</ele>
        <time>2020-06-29T14:55:40Z</time>
      </trkpt>
      <trkpt lat="44.08729" lon="7.19803">
        <ele>1809.067</ele>
        <time>2020-06-29T14:55:55Z</time>
      </trkpt>
      <trkpt lat="44.08718" lon="7.19823">
        <ele>1804.962</ele>
        <time>2020-06-29T14:56:11Z</time>
      </trkpt>
      <trkpt lat="44.08705" lon="7.19845">
        <ele>1803.184</ele>
        <time>2020-06-29T14:56:27Z</time>
      </trkpt>
      <trkpt lat="44.08697" lon="7.19861">
        <ele>1802.783</ele>
        <time>2020-06-29T14:56:42Z</time>
      </trkpt>
      <trkpt lat="44.08686" lon="7.19849">
        <ele>1798.161</ele>
        <time>2020-06-29T14:56:58Z</time>
      </trkpt>
      <trkpt lat="44.08682" lon="7.19826">
        <ele>1793.156</ele>
        <time>2020-06-29T14:57:13Z</time>
      </trkpt>
      <trkpt lat="44.08674" lon="7.19819">
        <ele>1790.417</ele>
        <time>2020-06-29T14:57:29Z</time>
      </trkpt>
      <trkpt lat="44.0867" lon="7.19821">
        <ele>1787.275</ele>
        <time>2020-06-29T14:57:45Z</time>
      </trkpt>
      <trkpt lat="44.08662" lon="7.19829">
        <ele>1786.925</ele>
        <time>2020-06-29T14:58:01Z</time>
      </trkpt>
      <trkpt lat="44.08659" lon="7.19833">
        <ele>1787.479</ele>
        <time>2020-06-29T14:58:17Z</time>
      </trkpt>
      <trkpt lat="44.08653" lon="7.19833">
        <ele>1785.538</ele>
        <time>2020-06-29T14:58:32Z</time>
      </trkpt>
      <trkpt lat="44.08653" lon="7.19833">
        <ele>1785.538</ele>
        <time>2020-06-29T14:58:47Z</time>
      </trkpt>
      <trkpt lat="44.08651" lon="7.19834">
        <ele>1784.527</ele>
        <time>2020-06-29T14:59:03Z</time>
      </trkpt>
      <trkpt lat="44.08651" lon="7.19834">
        <ele>1784.527</ele>
        <time>2020-06-29T14:59:19Z</time>
      </trkpt>
      <trkpt lat="44.08651" lon="7.19834">
        <ele>1784.527</ele>
        <time>2020-06-29T14:59:35Z</time>
      </trkpt>
      <trkpt lat="44.08652" lon="7.19834">
        <ele>1785.3</ele>
        <time>2020-06-29T14:59:51Z</time>
      </trkpt>
      <trkpt lat="44.08652" lon="7.19834">
        <ele>1785.3</ele>
        <time>2020-06-29T15:00:07Z</time>
      </trkpt>
      <trkpt lat="44.08648" lon="7.19834">
        <ele>1783.54</ele>
        <time>2020-06-29T15:00:22Z</time>
      </trkpt>
      <trkpt lat="44.08632" lon="7.1983">
        <ele>1776.911</ele>
        <time>2020-06-29T15:00:37Z</time>
      </trkpt>
      <trkpt lat="44.0862" lon="7.1983">
        <ele>1772.53</ele>
        <time>2020-06-29T15:00:53Z</time>
      </trkpt>
      <trkpt lat="44.08616" lon="7.19825">
        <ele>1772.524</ele>
        <time>2020-06-29T15:01:09Z</time>
      </trkpt>
      <trkpt lat="44.08608" lon="7.19819">
        <ele>1769.465</ele>
        <time>2020-06-29T15:01:25Z</time>
      </trkpt>
      <trkpt lat="44.08589" lon="7.19818">
        <ele>1766.11</ele>
        <time>2020-06-29T15:01:41Z</time>
      </trkpt>
      <trkpt lat="44.08573" lon="7.1981">
        <ele>1761.62</ele>
        <time>2020-06-29T15:01:57Z</time>
      </trkpt>
      <trkpt lat="44.08564" lon="7.19817">
        <ele>1762.077</ele>
        <time>2020-06-29T15:02:12Z</time>
      </trkpt>
      <trkpt lat="44.08552" lon="7.19815">
        <ele>1760.957</ele>
        <time>2020-06-29T15:02:28Z</time>
      </trkpt>
      <trkpt lat="44.08541" lon="7.1981">
        <ele>1755.779</ele>
        <time>2020-06-29T15:02:44Z</time>
      </trkpt>
      <trkpt lat="44.08529" lon="7.19798">
        <ele>1746.105</ele>
        <time>2020-06-29T15:03:00Z</time>
      </trkpt>
      <trkpt lat="44.08522" lon="7.19795">
        <ele>1742.939</ele>
        <time>2020-06-29T15:03:15Z</time>
      </trkpt>
      <trkpt lat="44.08511" lon="7.19803">
        <ele>1740.024</ele>
        <time>2020-06-29T15:03:31Z</time>
      </trkpt>
      <trkpt lat="44.08499" lon="7.19807">
        <ele>1740.115</ele>
        <time>2020-06-29T15:03:47Z</time>
      </trkpt>
      <trkpt lat="44.08492" lon="7.19823">
        <ele>1740.133</ele>
        <time>2020-06-29T15:04:02Z</time>
      </trkpt>
      <trkpt lat="44.08488" lon="7.19834">
        <ele>1740.397</ele>
        <time>2020-06-29T15:04:18Z</time>
      </trkpt>
      <trkpt lat="44.08483" lon="7.19841">
        <ele>1739.221</ele>
        <time>2020-06-29T15:04:34Z</time>
      </trkpt>
      <trkpt lat="44.08473" lon="7.19848">
        <ele>1738.791</ele>
        <time>2020-06-29T15:04:50Z</time>
      </trkpt>
      <trkpt lat="44.0846" lon="7.19855">
        <ele>1735.168</ele>
        <time>2020-06-29T15:05:05Z</time>
      </trkpt>
      <trkpt lat="44.08456" lon="7.19859">
        <ele>1735.942</ele>
        <time>2020-06-29T15:05:21Z</time>
      </trkpt>
      <trkpt lat="44.08453" lon="7.19858">
        <ele>1734.918</ele>
        <time>2020-06-29T15:05:37Z</time>
      </trkpt>
      <trkpt lat="44.08433" lon="7.19881">
        <ele>1730.985</ele>
        <time>2020-06-29T15:05:53Z</time>
      </trkpt>
      <trkpt lat="44.08422" lon="7.199">
        <ele>1727.327</ele>
        <time>2020-06-29T15:06:08Z</time>
      </trkpt>
      <trkpt lat="44.08421" lon="7.19915">
        <ele>1725.686</ele>
        <time>2020-06-29T15:06:23Z</time>
      </trkpt>
      <trkpt lat="44.08421" lon="7.1993">
        <ele>1724.321</ele>
        <time>2020-06-29T15:06:39Z</time>
      </trkpt>
      <trkpt lat="44.08417" lon="7.19935">
        <ele>1724.122</ele>
        <time>2020-06-29T15:06:55Z</time>
      </trkpt>
      <trkpt lat="44.08413" lon="7.19942">
        <ele>1721.15</ele>
        <time>2020-06-29T15:07:10Z</time>
      </trkpt>
      <trkpt lat="44.08413" lon="7.19943">
        <ele>1720.522</ele>
        <time>2020-06-29T15:07:26Z</time>
      </trkpt>
      <trkpt lat="44.08399" lon="7.19965">
        <ele>1708.746</ele>
        <time>2020-06-29T15:07:42Z</time>
      </trkpt>
      <trkpt lat="44.08392" lon="7.19976">
        <ele>1707.317</ele>
        <time>2020-06-29T15:07:57Z</time>
      </trkpt>
      <trkpt lat="44.08392" lon="7.19976">
        <ele>1707.317</ele>
        <time>2020-06-29T15:08:13Z</time>
      </trkpt>
      <trkpt lat="44.08392" lon="7.19976">
        <ele>1707.317</ele>
        <time>2020-06-29T15:08:29Z</time>
      </trkpt>
      <trkpt lat="44.08392" lon="7.19976">
        <ele>1707.317</ele>
        <time>2020-06-29T15:08:44Z</time>
      </trkpt>
      <trkpt lat="44.08391" lon="7.19978">
        <ele>1708.326</ele>
        <time>2020-06-29T15:09:00Z</time>
      </trkpt>
      <trkpt lat="44.08387" lon="7.19982">
        <ele>1709.373</ele>
        <time>2020-06-29T15:09:16Z</time>
      </trkpt>
      <trkpt lat="44.08383" lon="7.19984">
        <ele>1711.53</ele>
        <time>2020-06-29T15:09:32Z</time>
      </trkpt>
      <trkpt lat="44.08382" lon="7.19988">
        <ele>1712.257</ele>
        <time>2020-06-29T15:09:48Z</time>
      </trkpt>
      <trkpt lat="44.08376" lon="7.20001">
        <ele>1710.472</ele>
        <time>2020-06-29T15:10:03Z</time>
      </trkpt>
      <trkpt lat="44.08367" lon="7.20019">
        <ele>1705.449</ele>
        <time>2020-06-29T15:10:19Z</time>
      </trkpt>
      <trkpt lat="44.08355" lon="7.20024">
        <ele>1697.383</ele>
        <time>2020-06-29T15:10:35Z</time>
      </trkpt>
      <trkpt lat="44.08341" lon="7.20026">
        <ele>1687.367</ele>
        <time>2020-06-29T15:10:51Z</time>
      </trkpt>
      <trkpt lat="44.08339" lon="7.20028">
        <ele>1685.5</ele>
        <time>2020-06-29T15:11:06Z</time>
      </trkpt>
      <trkpt lat="44.08339" lon="7.20028">
        <ele>1685.5</ele>
        <time>2020-06-29T15:11:21Z</time>
      </trkpt>
      <trkpt lat="44.08338" lon="7.20028">
        <ele>1685.311</ele>
        <time>2020-06-29T15:11:37Z</time>
      </trkpt>
      <trkpt lat="44.08329" lon="7.20023">
        <ele>1681.296</ele>
        <time>2020-06-29T15:11:53Z</time>
      </trkpt>
      <trkpt lat="44.08317" lon="7.20016">
        <ele>1679.835</ele>
        <time>2020-06-29T15:12:09Z</time>
      </trkpt>
      <trkpt lat="44.08308" lon="7.20019">
        <ele>1679.403</ele>
        <time>2020-06-29T15:12:24Z</time>
      </trkpt>
      <trkpt lat="44.08294" lon="7.20033">
        <ele>1679.39</ele>
        <time>2020-06-29T15:12:40Z</time>
      </trkpt>
      <trkpt lat="44.08274" lon="7.20046">
        <ele>1676.41</ele>
        <time>2020-06-29T15:12:56Z</time>
      </trkpt>
      <trkpt lat="44.08262" lon="7.20044">
        <ele>1674.518</ele>
        <time>2020-06-29T15:13:12Z</time>
      </trkpt>
      <trkpt lat="44.08247" lon="7.20052">
        <ele>1672.274</ele>
        <time>2020-06-29T15:13:28Z</time>
      </trkpt>
      <trkpt lat="44.08236" lon="7.20064">
        <ele>1668.311</ele>
        <time>2020-06-29T15:13:43Z</time>
      </trkpt>
      <trkpt lat="44.08235" lon="7.20086">
        <ele>1665.839</ele>
        <time>2020-06-29T15:13:59Z</time>
      </trkpt>
      <trkpt lat="44.08225" lon="7.2011">
        <ele>1665.115</ele>
        <time>2020-06-29T15:14:14Z</time>
      </trkpt>
      <trkpt lat="44.08221" lon="7.20133">
        <ele>1660.364</ele>
        <time>2020-06-29T15:14:30Z</time>
      </trkpt>
      <trkpt lat="44.08206" lon="7.20156">
        <ele>1652.277</ele>
        <time>2020-06-29T15:14:45Z</time>
      </trkpt>
      <trkpt lat="44.08192" lon="7.20164">
        <ele>1649.05</ele>
        <time>2020-06-29T15:15:01Z</time>
      </trkpt>
      <trkpt lat="44.08184" lon="7.20169">
        <ele>1651.014</ele>
        <time>2020-06-29T15:15:16Z</time>
      </trkpt>
      <trkpt lat="44.08183" lon="7.20171">
        <ele>1654.378</ele>
        <time>2020-06-29T15:15:32Z</time>
      </trkpt>
      <trkpt lat="44.08167" lon="7.20174">
        <ele>1655.899</ele>
        <time>2020-06-29T15:15:48Z</time>
      </trkpt>
      <trkpt lat="44.0815" lon="7.20169">
        <ele>1657.287</ele>
        <time>2020-06-29T15:16:03Z</time>
      </trkpt>
      <trkpt lat="44.08134" lon="7.20172">
        <ele>1656.832</ele>
        <time>2020-06-29T15:16:19Z</time>
      </trkpt>
      <trkpt lat="44.08124" lon="7.20171">
        <ele>1650.324</ele>
        <time>2020-06-29T15:16:34Z</time>
      </trkpt>
      <trkpt lat="44.08108" lon="7.20171">
        <ele>1643.957</ele>
        <time>2020-06-29T15:16:50Z</time>
      </trkpt>
      <trkpt lat="44.08095" lon="7.20164">
        <ele>1633.001</ele>
        <time>2020-06-29T15:17:05Z</time>
      </trkpt>
      <trkpt lat="44.08081" lon="7.20157">
        <ele>1631.275</ele>
        <time>2020-06-29T15:17:20Z</time>
      </trkpt>
      <trkpt lat="44.08071" lon="7.20162">
        <ele>1631.098</ele>
        <time>2020-06-29T15:17:36Z</time>
      </trkpt>
      <trkpt lat="44.08065" lon="7.20169">
        <ele>1629.364</ele>
        <time>2020-06-29T15:17:52Z</time>
      </trkpt>
      <trkpt lat="44.08061" lon="7.20189">
        <ele>1624.3</ele>
        <time>2020-06-29T15:18:07Z</time>
      </trkpt>
      <trkpt lat="44.08058" lon="7.20204">
        <ele>1624</ele>
        <time>2020-06-29T15:18:22Z</time>
      </trkpt>
      <trkpt lat="44.08054" lon="7.20229">
        <ele>1623.559</ele>
        <time>2020-06-29T15:18:38Z</time>
      </trkpt>
      <trkpt lat="44.08046" lon="7.20242">
        <ele>1624.798</ele>
        <time>2020-06-29T15:18:53Z</time>
      </trkpt>
      <trkpt lat="44.08029" lon="7.20269">
        <ele>1621.04</ele>
        <time>2020-06-29T15:19:09Z</time>
      </trkpt>
      <trkpt lat="44.08017" lon="7.20283">
        <ele>1612.866</ele>
        <time>2020-06-29T15:19:24Z</time>
      </trkpt>
      <trkpt lat="44.08007" lon="7.20297">
        <ele>1612.121</ele>
        <time>2020-06-29T15:19:40Z</time>
      </trkpt>
      <trkpt lat="44.07995" lon="7.20307">
        <ele>1613.458</ele>
        <time>2020-06-29T15:19:56Z</time>
      </trkpt>
      <trkpt lat="44.07983" lon="7.2031">
        <ele>1610.912</ele>
        <time>2020-06-29T15:20:11Z</time>
      </trkpt>
      <trkpt lat="44.07973" lon="7.20302">
        <ele>1609.455</ele>
        <time>2020-06-29T15:20:26Z</time>
      </trkpt>
      <trkpt lat="44.07971" lon="7.20302">
        <ele>1608.102</ele>
        <time>2020-06-29T15:20:42Z</time>
      </trkpt>
      <trkpt lat="44.0796" lon="7.20293">
        <ele>1603.668</ele>
        <time>2020-06-29T15:20:58Z</time>
      </trkpt>
      <trkpt lat="44.07942" lon="7.20283">
        <ele>1599.003</ele>
        <time>2020-06-29T15:21:14Z</time>
      </trkpt>
      <trkpt lat="44.07931" lon="7.20278">
        <ele>1595.74</ele>
        <time>2020-06-29T15:21:29Z</time>
      </trkpt>
      <trkpt lat="44.07917" lon="7.20276">
        <ele>1590.701</ele>
        <time>2020-06-29T15:21:45Z</time>
      </trkpt>
      <trkpt lat="44.07899" lon="7.20275">
        <ele>1588.758</ele>
        <time>2020-06-29T15:22:01Z</time>
      </trkpt>
      <trkpt lat="44.07892" lon="7.20274">
        <ele>1587.449</ele>
        <time>2020-06-29T15:22:16Z</time>
      </trkpt>
      <trkpt lat="44.07888" lon="7.20273">
        <ele>1585.142</ele>
        <time>2020-06-29T15:22:32Z</time>
      </trkpt>
      <trkpt lat="44.07875" lon="7.20269">
        <ele>1579.624</ele>
        <time>2020-06-29T15:22:48Z</time>
      </trkpt>
      <trkpt lat="44.07861" lon="7.20266">
        <ele>1574.56</ele>
        <time>2020-06-29T15:23:03Z</time>
      </trkpt>
      <trkpt lat="44.0785" lon="7.20272">
        <ele>1574.455</ele>
        <time>2020-06-29T15:23:18Z</time>
      </trkpt>
      <trkpt lat="44.0784" lon="7.20278">
        <ele>1571.123</ele>
        <time>2020-06-29T15:23:33Z</time>
      </trkpt>
      <trkpt lat="44.07826" lon="7.20278">
        <ele>1567.045</ele>
        <time>2020-06-29T15:23:49Z</time>
      </trkpt>
      <trkpt lat="44.07815" lon="7.20268">
        <ele>1565.696</ele>
        <time>2020-06-29T15:24:04Z</time>
      </trkpt>
      <trkpt lat="44.07807" lon="7.20261">
        <ele>1560.002</ele>
        <time>2020-06-29T15:24:19Z</time>
      </trkpt>
      <trkpt lat="44.07795" lon="7.20251">
        <ele>1552.376</ele>
        <time>2020-06-29T15:24:35Z</time>
      </trkpt>
      <trkpt lat="44.07784" lon="7.20245">
        <ele>1548.879</ele>
        <time>2020-06-29T15:24:51Z</time>
      </trkpt>
      <trkpt lat="44.07776" lon="7.20255">
        <ele>1547.251</ele>
        <time>2020-06-29T15:25:07Z</time>
      </trkpt>
      <trkpt lat="44.07781" lon="7.20265">
        <ele>1544.288</ele>
        <time>2020-06-29T15:25:23Z</time>
      </trkpt>
      <trkpt lat="44.07764" lon="7.20264">
        <ele>1544.178</ele>
        <time>2020-06-29T15:25:38Z</time>
      </trkpt>
      <trkpt lat="44.07749" lon="7.20256">
        <ele>1538.63</ele>
        <time>2020-06-29T15:25:54Z</time>
      </trkpt>
      <trkpt lat="44.07742" lon="7.20223">
        <ele>1533.808</ele>
        <time>2020-06-29T15:26:09Z</time>
      </trkpt>
      <trkpt lat="44.07742" lon="7.20209">
        <ele>1529.234</ele>
        <time>2020-06-29T15:26:24Z</time>
      </trkpt>
      <trkpt lat="44.07741" lon="7.20199">
        <ele>1529.44</ele>
        <time>2020-06-29T15:26:40Z</time>
      </trkpt>
      <trkpt lat="44.07722" lon="7.20212">
        <ele>1529.175</ele>
        <time>2020-06-29T15:26:55Z</time>
      </trkpt>
      <trkpt lat="44.07703" lon="7.20222">
        <ele>1533.87</ele>
        <time>2020-06-29T15:27:10Z</time>
      </trkpt>
      <trkpt lat="44.07685" lon="7.20227">
        <ele>1530.58</ele>
        <time>2020-06-29T15:27:25Z</time>
      </trkpt>
      <trkpt lat="44.07668" lon="7.20239">
        <ele>1534.849</ele>
        <time>2020-06-29T15:27:41Z</time>
      </trkpt>
      <trkpt lat="44.07658" lon="7.20236">
        <ele>1533.279</ele>
        <time>2020-06-29T15:27:57Z</time>
      </trkpt>
      <trkpt lat="44.07648" lon="7.20231">
        <ele>1534.755</ele>
        <time>2020-06-29T15:28:13Z</time>
      </trkpt>
      <trkpt lat="44.07638" lon="7.20226">
        <ele>1532.088</ele>
        <time>2020-06-29T15:28:28Z</time>
      </trkpt>
      <trkpt lat="44.07617" lon="7.20224">
        <ele>1528.222</ele>
        <time>2020-06-29T15:28:44Z</time>
      </trkpt>
      <trkpt lat="44.07602" lon="7.20214">
        <ele>1520.146</ele>
        <time>2020-06-29T15:28:59Z</time>
      </trkpt>
      <trkpt lat="44.07586" lon="7.20211">
        <ele>1513.523</ele>
        <time>2020-06-29T15:29:14Z</time>
      </trkpt>
      <trkpt lat="44.0757" lon="7.20202">
        <ele>1509.344</ele>
        <time>2020-06-29T15:29:30Z</time>
      </trkpt>
      <trkpt lat="44.07551" lon="7.20202">
        <ele>1503.093</ele>
        <time>2020-06-29T15:29:46Z</time>
      </trkpt>
      <trkpt lat="44.07533" lon="7.20206">
        <ele>1502.942</ele>
        <time>2020-06-29T15:30:01Z</time>
      </trkpt>
      <trkpt lat="44.07522" lon="7.20197">
        <ele>1493.646</ele>
        <time>2020-06-29T15:30:16Z</time>
      </trkpt>
      <trkpt lat="44.07512" lon="7.20196">
        <ele>1492.732</ele>
        <time>2020-06-29T15:30:31Z</time>
      </trkpt>
      <trkpt lat="44.07499" lon="7.20198">
        <ele>1485.309</ele>
        <time>2020-06-29T15:30:47Z</time>
      </trkpt>
      <trkpt lat="44.07485" lon="7.20205">
        <ele>1479.754</ele>
        <time>2020-06-29T15:31:03Z</time>
      </trkpt>
      <trkpt lat="44.07472" lon="7.20211">
        <ele>1480.753</ele>
        <time>2020-06-29T15:31:18Z</time>
      </trkpt>
      <trkpt lat="44.0746" lon="7.20212">
        <ele>1476.465</ele>
        <time>2020-06-29T15:31:34Z</time>
      </trkpt>
      <trkpt lat="44.07451" lon="7.20213">
        <ele>1474.17</ele>
        <time>2020-06-29T15:31:49Z</time>
      </trkpt>
      <trkpt lat="44.07451" lon="7.20213">
        <ele>1474.17</ele>
        <time>2020-06-29T15:32:05Z</time>
      </trkpt>
      <trkpt lat="44.0744" lon="7.20208">
        <ele>1467.186</ele>
        <time>2020-06-29T15:32:20Z</time>
      </trkpt>
      <trkpt lat="44.07423" lon="7.20209">
        <ele>1462.083</ele>
        <time>2020-06-29T15:32:36Z</time>
      </trkpt>
      <trkpt lat="44.07404" lon="7.2021">
        <ele>1460.859</ele>
        <time>2020-06-29T15:32:51Z</time>
      </trkpt>
      <trkpt lat="44.0739" lon="7.20211">
        <ele>1456.706</ele>
        <time>2020-06-29T15:33:06Z</time>
      </trkpt>
      <trkpt lat="44.07374" lon="7.20205">
        <ele>1453.179</ele>
        <time>2020-06-29T15:33:22Z</time>
      </trkpt>
      <trkpt lat="44.07358" lon="7.20205">
        <ele>1449.641</ele>
        <time>2020-06-29T15:33:38Z</time>
      </trkpt>
      <trkpt lat="44.07343" lon="7.20206">
        <ele>1448.18</ele>
        <time>2020-06-29T15:33:53Z</time>
      </trkpt>
      <trkpt lat="44.07345" lon="7.20211">
        <ele>1447.774</ele>
        <time>2020-06-29T15:34:09Z</time>
      </trkpt>
      <trkpt lat="44.07333" lon="7.20213">
        <ele>1444.944</ele>
        <time>2020-06-29T15:34:24Z</time>
      </trkpt>
      <trkpt lat="44.07319" lon="7.20221">
        <ele>1442.116</ele>
        <time>2020-06-29T15:34:40Z</time>
      </trkpt>
      <trkpt lat="44.07302" lon="7.20221">
        <ele>1440.491</ele>
        <time>2020-06-29T15:34:55Z</time>
      </trkpt>
      <trkpt lat="44.07283" lon="7.20223">
        <ele>1439.998</ele>
        <time>2020-06-29T15:35:11Z</time>
      </trkpt>
      <trkpt lat="44.07264" lon="7.20238">
        <ele>1444.536</ele>
        <time>2020-06-29T15:35:27Z</time>
      </trkpt>
      <trkpt lat="44.0726" lon="7.20235">
        <ele>1442.839</ele>
        <time>2020-06-29T15:35:42Z</time>
      </trkpt>
      <trkpt lat="44.07259" lon="7.20235">
        <ele>1443.16</ele>
        <time>2020-06-29T15:35:58Z</time>
      </trkpt>
      <trkpt lat="44.07259" lon="7.20235">
        <ele>1443.16</ele>
        <time>2020-06-29T15:36:14Z</time>
      </trkpt>
      <trkpt lat="44.07259" lon="7.20235">
        <ele>1443.16</ele>
        <time>2020-06-29T15:36:29Z</time>
      </trkpt>
      <trkpt lat="44.07259" lon="7.20236">
        <ele>1442.823</ele>
        <time>2020-06-29T15:36:44Z</time>
      </trkpt>
      <trkpt lat="44.07259" lon="7.20234">
        <ele>1443.167</ele>
        <time>2020-06-29T15:37:00Z</time>
      </trkpt>
      <trkpt lat="44.07259" lon="7.20234">
        <ele>1443.363</ele>
        <time>2020-06-29T15:37:16Z</time>
      </trkpt>
      <trkpt lat="44.07259" lon="7.20234">
        <ele>1443.363</ele>
        <time>2020-06-29T15:37:32Z</time>
      </trkpt>
      <trkpt lat="44.07259" lon="7.20234">
        <ele>1443.363</ele>
        <time>2020-06-29T15:37:48Z</time>
      </trkpt>
      <trkpt lat="44.07259" lon="7.20234">
        <ele>1443.363</ele>
        <time>2020-06-29T15:38:04Z</time>
      </trkpt>
      <trkpt lat="44.07259" lon="7.20234">
        <ele>1443.363</ele>
        <time>2020-06-29T15:38:20Z</time>
      </trkpt>
      <trkpt lat="44.07259" lon="7.20234">
        <ele>1443.363</ele>
        <time>2020-06-29T15:38:35Z</time>
      </trkpt>
      <trkpt lat="44.07259" lon="7.20234">
        <ele>1443.363</ele>
        <time>2020-06-29T15:38:50Z</time>
      </trkpt>
      <trkpt lat="44.07259" lon="7.20234">
        <ele>1443.363</ele>
        <time>2020-06-29T15:39:06Z</time>
      </trkpt>
      <trkpt lat="44.07259" lon="7.20234">
        <ele>1443.363</ele>
        <time>2020-06-29T15:39:21Z</time>
      </trkpt>
      <trkpt lat="44.07259" lon="7.20234">
        <ele>1443.363</ele>
        <time>2020-06-29T15:39:37Z</time>
      </trkpt>
      <trkpt lat="44.07259" lon="7.20234">
        <ele>1443.363</ele>
        <time>2020-06-29T15:39:53Z</time>
      </trkpt>
      <trkpt lat="44.07259" lon="7.20234">
        <ele>1443.363</ele>
        <time>2020-06-29T15:40:08Z</time>
      </trkpt>
      <trkpt lat="44.07259" lon="7.20234">
        <ele>1443.363</ele>
        <time>2020-06-29T15:40:23Z</time>
      </trkpt>
      <trkpt lat="44.07259" lon="7.20234">
        <ele>1443.363</ele>
        <time>2020-06-29T15:40:39Z</time>
      </trkpt>
      <trkpt lat="44.07259" lon="7.20234">
        <ele>1443.363</ele>
        <time>2020-06-29T15:40:55Z</time>
      </trkpt>
      <trkpt lat="44.07259" lon="7.20234">
        <ele>1443.363</ele>
        <time>2020-06-29T15:41:11Z</time>
      </trkpt>
      <trkpt lat="44.07259" lon="7.20234">
        <ele>1443.363</ele>
        <time>2020-06-29T15:41:27Z</time>
      </trkpt>
      <trkpt lat="44.07262" lon="7.20232">
        <ele>1443.389</ele>
        <time>2020-06-29T15:41:43Z</time>
      </trkpt>
      <trkpt lat="44.07262" lon="7.20232">
        <ele>1443.389</ele>
        <time>2020-06-29T15:41:59Z</time>
      </trkpt>
      <trkpt lat="44.07262" lon="7.20232">
        <ele>1443.389</ele>
        <time>2020-06-29T15:42:15Z</time>
      </trkpt>
      <trkpt lat="44.07262" lon="7.20232">
        <ele>1443.389</ele>
        <time>2020-06-29T15:42:30Z</time>
      </trkpt>
      <trkpt lat="44.07255" lon="7.20238">
        <ele>1441.843</ele>
        <time>2020-06-29T15:42:46Z</time>
      </trkpt>
      <trkpt lat="44.07239" lon="7.20229">
        <ele>1439.707</ele>
        <time>2020-06-29T15:43:01Z</time>
      </trkpt>
      <trkpt lat="44.07222" lon="7.20241">
        <ele>1437.163</ele>
        <time>2020-06-29T15:43:16Z</time>
      </trkpt>
      <trkpt lat="44.07208" lon="7.20257">
        <ele>1434.149</ele>
        <time>2020-06-29T15:43:32Z</time>
      </trkpt>
      <trkpt lat="44.07188" lon="7.20261">
        <ele>1429.233</ele>
        <time>2020-06-29T15:43:47Z</time>
      </trkpt>
      <trkpt lat="44.0717" lon="7.20266">
        <ele>1426.536</ele>
        <time>2020-06-29T15:44:03Z</time>
      </trkpt>
      <trkpt lat="44.07154" lon="7.20278">
        <ele>1420.128</ele>
        <time>2020-06-29T15:44:19Z</time>
      </trkpt>
      <trkpt lat="44.07139" lon="7.20291">
        <ele>1417.605</ele>
        <time>2020-06-29T15:44:35Z</time>
      </trkpt>
      <trkpt lat="44.0712" lon="7.20294">
        <ele>1414.266</ele>
        <time>2020-06-29T15:44:50Z</time>
      </trkpt>
      <trkpt lat="44.07101" lon="7.20292">
        <ele>1410.67</ele>
        <time>2020-06-29T15:45:06Z</time>
      </trkpt>
      <trkpt lat="44.07083" lon="7.20293">
        <ele>1409.549</ele>
        <time>2020-06-29T15:45:22Z</time>
      </trkpt>
      <trkpt lat="44.07068" lon="7.20289">
        <ele>1408.952</ele>
        <time>2020-06-29T15:45:38Z</time>
      </trkpt>
      <trkpt lat="44.07055" lon="7.2028">
        <ele>1401.915</ele>
        <time>2020-06-29T15:45:53Z</time>
      </trkpt>
      <trkpt lat="44.07038" lon="7.20279">
        <ele>1395.991</ele>
        <time>2020-06-29T15:46:08Z</time>
      </trkpt>
      <trkpt lat="44.07024" lon="7.20276">
        <ele>1389.643</ele>
        <time>2020-06-29T15:46:23Z</time>
      </trkpt>
      <trkpt lat="44.07005" lon="7.20276">
        <ele>1388.087</ele>
        <time>2020-06-29T15:46:39Z</time>
      </trkpt>
      <trkpt lat="44.06987" lon="7.20279">
        <ele>1385.414</ele>
        <time>2020-06-29T15:46:54Z</time>
      </trkpt>
      <trkpt lat="44.06971" lon="7.20289">
        <ele>1382.804</ele>
        <time>2020-06-29T15:47:10Z</time>
      </trkpt>
      <trkpt lat="44.06956" lon="7.20305">
        <ele>1379.567</ele>
        <time>2020-06-29T15:47:26Z</time>
      </trkpt>
      <trkpt lat="44.06943" lon="7.20317">
        <ele>1374.904</ele>
        <time>2020-06-29T15:47:42Z</time>
      </trkpt>
      <trkpt lat="44.06924" lon="7.20327">
        <ele>1375.929</ele>
        <time>2020-06-29T15:47:57Z</time>
      </trkpt>
      <trkpt lat="44.06904" lon="7.20332">
        <ele>1377.058</ele>
        <time>2020-06-29T15:48:12Z</time>
      </trkpt>
      <trkpt lat="44.06887" lon="7.20329">
        <ele>1370.974</ele>
        <time>2020-06-29T15:48:28Z</time>
      </trkpt>
      <trkpt lat="44.06872" lon="7.20334">
        <ele>1369.798</ele>
        <time>2020-06-29T15:48:44Z</time>
      </trkpt>
      <trkpt lat="44.06855" lon="7.2034">
        <ele>1369.21</ele>
        <time>2020-06-29T15:49:00Z</time>
      </trkpt>
      <trkpt lat="44.06836" lon="7.20347">
        <ele>1366.815</ele>
        <time>2020-06-29T15:49:15Z</time>
      </trkpt>
      <trkpt lat="44.06819" lon="7.20339">
        <ele>1366.01</ele>
        <time>2020-06-29T15:49:31Z</time>
      </trkpt>
      <trkpt lat="44.06802" lon="7.20335">
        <ele>1364.106</ele>
        <time>2020-06-29T15:49:46Z</time>
      </trkpt>
      <trkpt lat="44.06786" lon="7.2033">
        <ele>1363.346</ele>
        <time>2020-06-29T15:50:01Z</time>
      </trkpt>
      <trkpt lat="44.06772" lon="7.20325">
        <ele>1361.227</ele>
        <time>2020-06-29T15:50:17Z</time>
      </trkpt>
      <trkpt lat="44.06751" lon="7.20317">
        <ele>1363.299</ele>
        <time>2020-06-29T15:50:33Z</time>
      </trkpt>
      <trkpt lat="44.06735" lon="7.20306">
        <ele>1365.133</ele>
        <time>2020-06-29T15:50:48Z</time>
      </trkpt>
      <trkpt lat="44.06721" lon="7.20292">
        <ele>1361.475</ele>
        <time>2020-06-29T15:51:04Z</time>
      </trkpt>
      <trkpt lat="44.06702" lon="7.20298">
        <ele>1362.557</ele>
        <time>2020-06-29T15:51:20Z</time>
      </trkpt>
      <trkpt lat="44.06685" lon="7.20295">
        <ele>1359.634</ele>
        <time>2020-06-29T15:51:35Z</time>
      </trkpt>
      <trkpt lat="44.06664" lon="7.20285">
        <ele>1354.502</ele>
        <time>2020-06-29T15:51:51Z</time>
      </trkpt>
      <trkpt lat="44.06649" lon="7.20278">
        <ele>1352.446</ele>
        <time>2020-06-29T15:52:06Z</time>
      </trkpt>
      <trkpt lat="44.06643" lon="7.20266">
        <ele>1348.149</ele>
        <time>2020-06-29T15:52:21Z</time>
      </trkpt>
      <trkpt lat="44.06643" lon="7.20264">
        <ele>1346.2</ele>
        <time>2020-06-29T15:52:37Z</time>
      </trkpt>
      <trkpt lat="44.06641" lon="7.20262">
        <ele>1346.25</ele>
        <time>2020-06-29T15:52:52Z</time>
      </trkpt>
      <trkpt lat="44.06493" lon="7.20264">
        <ele>1348.099</ele>
        <time>2020-06-29T15:53:26Z</time>
      </trkpt>
      <trkpt lat="44.06632" lon="7.20275">
        <ele>1352.067</ele>
        <time>2020-06-29T15:53:41Z</time>
      </trkpt>
      <trkpt lat="44.06629" lon="7.20276">
        <ele>1351.252</ele>
        <time>2020-06-29T15:53:57Z</time>
      </trkpt>
      <trkpt lat="44.06633" lon="7.20277">
        <ele>1350.52</ele>
        <time>2020-06-29T15:54:13Z</time>
      </trkpt>
      <trkpt lat="44.06638" lon="7.20276">
        <ele>1346.918</ele>
        <time>2020-06-29T15:54:29Z</time>
      </trkpt>
      <trkpt lat="44.06638" lon="7.20274">
        <ele>1348.859</ele>
        <time>2020-06-29T15:54:44Z</time>
      </trkpt>
      <trkpt lat="44.06638" lon="7.20274">
        <ele>1348.859</ele>
        <time>2020-06-29T15:55:00Z</time>
      </trkpt>
      <trkpt lat="44.06638" lon="7.20274">
        <ele>1348.859</ele>
        <time>2020-06-29T15:55:16Z</time>
      </trkpt>
      <trkpt lat="44.06638" lon="7.20274">
        <ele>1348.859</ele>
        <time>2020-06-29T15:55:31Z</time>
      </trkpt>
      <trkpt lat="44.06638" lon="7.20274">
        <ele>1348.859</ele>
        <time>2020-06-29T15:55:46Z</time>
      </trkpt>
    </trkseg>
  </trk>
</gpx>